Temperatur und Luftfeuchte

Temperatur und Luftfeuchte

Nummer Datum und Zeit Sensor ID Temperatur in Celsius gef├╝hlte Temperatur Luftfeuchte in %
26694 2020-05-27 17:16:24 Terrasse 24.70 24.37 43.70
26693 2020-05-27 16:48:08 Terrasse 25.10 24.73 40.90
26692 2020-05-27 16:19:55 Terrasse 26.00 25.73 41.00
26691 2020-05-27 15:51:45 Terrasse 26.50 26.52 40.10
26690 2020-05-27 15:23:26 Terrasse 27.40 27.16 39.90
26689 2020-05-27 14:55:15 Terrasse 28.30 27.92 39.80
26688 2020-05-27 14:26:50 Terrasse 27.60 27.39 41.00
26687 2020-05-27 13:58:37 Terrasse 28.40 28.16 41.80
26686 2020-05-27 13:30:15 Terrasse 27.40 27.29 42.20
26685 2020-05-27 13:01:46 Terrasse 26.10 25.97 46.10
26684 2020-05-27 12:33:16 Terrasse 23.90 23.65 50.00
26683 2020-05-27 12:05:01 Terrasse 23.70 23.45 50.60
26682 2020-05-27 11:36:35 Terrasse 22.80 22.51 52.80
26681 2020-05-27 11:08:09 Terrasse 21.50 21.13 54.40
26680 2020-05-27 10:39:30 Terrasse 19.60 19.17 59.70
26679 2020-05-27 10:11:00 Terrasse 18.20 17.78 65.10
26678 2020-05-27 09:42:35 Terrasse 17.00 16.51 67.30
26677 2020-05-27 09:14:07 Terrasse 15.80 15.28 70.50
26676 2020-05-27 08:45:38 Terrasse 14.50 14.14 81.60
26675 2020-05-27 08:17:13 Terrasse 13.50 13.18 87.10
26674 2020-05-27 07:48:51 Terrasse 12.80 12.60 94.50
26673 2020-05-27 07:20:30 Terrasse 12.30 12.19 99.90
26672 2020-05-27 06:52:10 Terrasse 11.90 11.67 96.80
26671 2020-05-27 06:23:50 Terrasse 11.70 11.41 95.20
26670 2020-05-27 05:55:33 Terrasse 11.80 11.46 92.70
26669 2020-05-27 05:27:16 Terrasse 11.90 11.58 93.10
26668 2020-05-27 04:58:58 Terrasse 12.10 11.75 91.50
26667 2020-05-27 04:30:42 Terrasse 12.20 11.83 90.10
26666 2020-05-27 04:02:25 Terrasse 12.40 11.93 85.50
26665 2020-05-27 03:34:10 Terrasse 12.70 12.10 79.60
26664 2020-05-27 03:05:50 Terrasse 12.80 12.21 79.40
26663 2020-05-27 02:37:31 Terrasse 12.70 12.10 79.30
26662 2020-05-27 02:09:15 Terrasse 13.30 12.58 72.50
26661 2020-05-27 01:40:59 Terrasse 13.80 13.04 69.00
26660 2020-05-27 01:12:42 Terrasse 14.00 13.27 69.40
26659 2020-05-27 00:44:24 Terrasse 14.00 13.23 67.80
26658 2020-05-27 00:16:06 Terrasse 14.10 13.32 67.30
26657 2020-05-26 23:47:49 Terrasse 14.50 13.72 65.50
26656 2020-05-26 23:19:32 Terrasse 15.00 14.24 64.40
26655 2020-05-26 22:51:16 Terrasse 15.30 14.57 64.50
26654 2020-05-26 22:23:01 Terrasse 15.60 14.87 63.50
26653 2020-05-26 21:54:44 Terrasse 16.10 15.37 61.60
26652 2020-05-26 21:26:29 Terrasse 16.60 15.91 60.90
26651 2020-05-26 20:58:14 Terrasse 17.20 16.53 59.40
26650 2020-05-26 20:29:58 Terrasse 17.70 17.07 59.10
26649 2020-05-26 20:01:42 Terrasse 18.50 17.89 56.70
26648 2020-05-26 19:33:27 Terrasse 19.20 18.59 54.30
26647 2020-05-26 19:05:08 Terrasse 19.40 18.79 53.50
26646 2020-05-26 18:36:50 Terrasse 19.90 19.35 53.70
26645 2020-05-26 18:08:36 Terrasse 20.50 19.98 52.50
26644 2020-05-26 17:40:16 Terrasse 20.40 19.86 52.40
26643 2020-05-26 17:11:59 Terrasse 21.00 20.50 51.60
26642 2020-05-26 16:43:43 Terrasse 21.60 21.19 52.60
26641 2020-05-26 16:15:27 Terrasse 21.80 21.41 52.60
26640 2020-05-26 15:47:10 Terrasse 22.40 22.06 52.20
26639 2020-05-26 15:18:55 Terrasse 23.20 22.92 51.50
26638 2020-05-26 14:50:40 Terrasse 24.20 24.03 51.70
26637 2020-05-26 14:22:25 Terrasse 24.20 24.08 53.90
26636 2020-05-26 13:53:56 Terrasse 23.20 22.97 53.40
26635 2020-05-26 13:25:06 Terrasse 19.00 18.50 59.10
26634 2020-05-26 12:56:50 Terrasse 18.70 18.29 63.60
26633 2020-05-26 12:28:22 Terrasse 18.00 17.53 64.00
26632 2020-05-26 12:00:00 Terrasse 17.10 16.72 70.90
26631 2020-05-26 11:31:40 Terrasse 16.60 16.18 71.60
26630 2020-05-26 11:03:26 Terrasse 16.90 16.53 72.20
26629 2020-05-26 10:35:12 Terrasse 17.10 16.74 71.70
26628 2020-05-26 10:06:52 Terrasse 16.80 16.48 74.60
26627 2020-05-26 09:38:29 Terrasse 15.70 15.46 81.90
26626 2020-05-26 09:10:04 Terrasse 14.80 14.64 88.30
26625 2020-05-26 08:41:35 Terrasse 13.50 13.40 95.60
26624 2020-05-26 08:13:11 Terrasse 12.70 12.63 99.90
26623 2020-05-26 07:44:49 Terrasse 12.10 11.97 99.90
26622 2020-05-26 07:16:28 Terrasse 11.60 11.42 99.90
26621 2020-05-26 06:48:10 Terrasse 11.30 11.09 99.90
26620 2020-05-26 06:19:52 Terrasse 11.10 10.87 99.90
26619 2020-05-26 05:51:35 Terrasse 11.10 10.81 97.60
26618 2020-05-26 05:23:20 Terrasse 11.50 11.15 93.80
26617 2020-05-26 04:55:03 Terrasse 11.70 11.30 90.80
26616 2020-05-26 04:26:46 Terrasse 12.10 11.60 85.50
26615 2020-05-26 03:58:30 Terrasse 12.20 11.63 82.40
26614 2020-05-26 03:30:14 Terrasse 12.40 11.75 78.60
26613 2020-05-26 03:01:58 Terrasse 12.70 11.96 74.00
26612 2020-05-26 02:33:44 Terrasse 13.10 12.32 70.90
26611 2020-05-26 02:05:29 Terrasse 13.70 12.88 67.20
26610 2020-05-26 01:37:12 Terrasse 13.90 13.07 66.00
26609 2020-05-26 01:08:54 Terrasse 14.10 13.28 65.50
26608 2020-05-26 00:40:37 Terrasse 14.20 13.38 65.40
26607 2020-05-26 00:12:20 Terrasse 14.30 13.47 64.40
26606 2020-05-25 23:44:03 Terrasse 14.40 13.56 63.60
26605 2020-05-25 23:15:47 Terrasse 14.70 13.87 62.90
26604 2020-05-25 22:47:31 Terrasse 15.00 14.16 61.60
26603 2020-05-25 22:19:15 Terrasse 15.40 14.62 62.40
26602 2020-05-25 21:51:00 Terrasse 15.90 15.17 62.10
26601 2020-05-25 21:22:44 Terrasse 16.50 15.78 60.30
26600 2020-05-25 20:54:28 Terrasse 16.90 16.18 58.70
26599 2020-05-25 20:26:14 Terrasse 17.40 16.73 58.60
26598 2020-05-25 19:57:57 Terrasse 17.80 17.17 58.90
26597 2020-05-25 19:29:41 Terrasse 18.20 17.63 59.70
26596 2020-05-25 19:01:25 Terrasse 18.70 18.18 59.50
26595 2020-05-25 18:33:10 Terrasse 19.20 18.71 58.70
26594 2020-05-25 18:04:54 Terrasse 19.60 19.21 61.00
26593 2020-05-25 17:36:36 Terrasse 20.00 19.62 59.80
26592 2020-05-25 17:08:17 Terrasse 20.00 19.67 61.70
26591 2020-05-25 16:39:58 Terrasse 19.90 19.62 64.10
26590 2020-05-25 16:11:43 Terrasse 20.30 19.99 61.40
26589 2020-05-25 15:43:17 Terrasse 19.50 19.18 64.20
26588 2020-05-25 15:14:58 Terrasse 19.70 19.55 69.70
26587 2020-05-25 14:46:42 Terrasse 20.20 20.13 71.20
26586 2020-05-25 14:18:26 Terrasse 20.40 20.32 69.90
26585 2020-05-25 13:50:07 Terrasse 21.40 21.61 77.10
26584 2020-05-25 13:21:26 Terrasse 17.90 18.35 99.90
26583 2020-05-25 12:53:06 Terrasse 17.00 17.36 99.90
26582 2020-05-25 12:24:43 Terrasse 16.60 16.92 99.90
26581 2020-05-25 11:56:31 Terrasse 17.20 17.58 99.90
26580 2020-05-25 11:28:05 Terrasse 16.20 16.48 99.90
26579 2020-05-25 10:59:40 Terrasse 14.90 15.05 99.90
26578 2020-05-25 10:31:20 Terrasse 14.50 14.61 99.90
26577 2020-05-25 10:03:02 Terrasse 14.40 14.50 99.90
26576 2020-05-25 09:34:44 Terrasse 14.30 14.39 99.90
26575 2020-05-25 09:06:22 Terrasse 13.70 13.73 99.90
26574 2020-05-25 08:38:04 Terrasse 13.50 13.51 99.90
26573 2020-05-25 08:09:43 Terrasse 13.30 13.29 99.90
26572 2020-05-25 07:41:22 Terrasse 12.90 12.85 99.90
26571 2020-05-25 07:13:04 Terrasse 12.70 12.63 99.90
26570 2020-05-25 06:44:46 Terrasse 12.60 12.52 99.90
26569 2020-05-25 06:16:29 Terrasse 12.60 12.52 99.90
26568 2020-05-25 05:48:13 Terrasse 12.60 12.52 99.90
26567 2020-05-25 05:19:56 Terrasse 12.60 12.52 99.90
26566 2020-05-25 04:51:38 Terrasse 12.60 12.52 99.90
26565 2020-05-25 04:23:22 Terrasse 12.60 12.52 99.90
26564 2020-05-25 03:55:05 Terrasse 12.60 12.52 99.90
26563 2020-05-25 03:26:48 Terrasse 12.70 12.63 99.90
26562 2020-05-25 02:58:31 Terrasse 12.70 12.63 99.90
26561 2020-05-25 02:30:14 Terrasse 12.70 12.63 99.90
26560 2020-05-25 02:01:57 Terrasse 12.70 12.63 99.90
26559 2020-05-25 01:33:40 Terrasse 12.70 12.63 99.90
26558 2020-05-25 01:05:23 Terrasse 12.80 12.74 99.90
26557 2020-05-25 00:37:08 Terrasse 12.90 12.85 99.90
26556 2020-05-25 00:08:51 Terrasse 13.00 12.96 99.90
26555 2020-05-24 23:40:32 Terrasse 13.00 12.96 99.90
26554 2020-05-24 23:12:15 Terrasse 13.20 13.18 99.90
26553 2020-05-24 22:43:58 Terrasse 13.40 13.40 99.90
26552 2020-05-24 22:15:40 Terrasse 13.40 13.40 99.90
26551 2020-05-24 21:47:23 Terrasse 13.30 13.29 99.90
26550 2020-05-24 21:19:07 Terrasse 13.50 13.51 99.90
26549 2020-05-24 20:50:52 Terrasse 13.90 13.95 99.90
26548 2020-05-24 20:22:36 Terrasse 14.10 14.17 99.90
26547 2020-05-24 19:54:19 Terrasse 14.10 14.17 99.90
26546 2020-05-24 19:26:02 Terrasse 14.20 14.28 99.90
26545 2020-05-24 18:57:45 Terrasse 14.50 14.61 99.90
26544 2020-05-24 18:29:30 Terrasse 14.90 14.98 97.10
26543 2020-05-24 18:01:17 Terrasse 15.40 14.92 73.60
26542 2020-05-24 17:33:03 Terrasse 16.00 15.38 66.20
26541 2020-05-24 17:04:46 Terrasse 16.60 15.84 58.30
26540 2020-05-24 16:36:30 Terrasse 17.00 16.24 56.80
26539 2020-05-24 16:08:16 Terrasse 17.70 16.97 55.50
26538 2020-05-24 15:40:02 Terrasse 18.40 17.72 54.60
26537 2020-05-24 15:11:44 Terrasse 18.60 17.94 54.70
26536 2020-05-24 14:43:32 Terrasse 19.60 19.00 52.90
26535 2020-05-24 14:15:20 Terrasse 20.60 20.06 51.50
26534 2020-05-24 13:46:55 Terrasse 19.40 18.78 52.90
26533 2020-05-24 13:18:42 Terrasse 19.70 19.11 52.90
26532 2020-05-24 12:50:21 Terrasse 18.60 17.96 55.30
26531 2020-05-24 12:21:58 Terrasse 17.40 16.72 58.50
26530 2020-05-24 11:53:54 Terrasse 17.10 16.33 56.20
26529 2020-05-24 11:25:30 Terrasse 17.70 17.09 60.10
26528 2020-05-24 10:56:59 Terrasse 16.00 15.39 66.50
26527 2020-05-24 10:28:32 Terrasse 14.90 14.91 94.40
26526 2020-05-24 10:00:09 Terrasse 14.20 14.23 97.90
26525 2020-05-24 09:31:47 Terrasse 13.20 13.18 99.90
26524 2020-05-24 09:03:23 Terrasse 12.10 11.97 99.90
26523 2020-05-24 08:35:01 Terrasse 11.50 11.31 99.90
26522 2020-05-24 08:06:41 Terrasse 10.70 10.43 99.90
26521 2020-05-24 07:38:25 Terrasse 10.50 10.21 99.90
26520 2020-05-24 07:10:06 Terrasse 10.00 9.66 99.90
26519 2020-05-24 06:41:47 Terrasse 9.60 9.22 99.90
26518 2020-05-24 06:13:30 Terrasse 9.40 9.00 99.90
26517 2020-05-24 05:45:10 Terrasse 9.20 8.78 99.90
26516 2020-05-24 05:16:54 Terrasse 9.30 8.89 99.90
26515 2020-05-24 04:48:37 Terrasse 9.50 9.11 99.90
26514 2020-05-24 04:20:27 Terrasse 9.80 9.44 99.90
26513 2020-05-24 03:52:09 Terrasse 9.70 9.33 99.90
26512 2020-05-24 03:23:52 Terrasse 9.70 9.33 99.90
26511 2020-05-24 02:55:35 Terrasse 10.00 9.66 99.90
26510 2020-05-24 02:27:21 Terrasse 10.30 9.99 99.90
26509 2020-05-24 01:59:04 Terrasse 10.60 10.32 99.90
26508 2020-05-24 01:30:49 Terrasse 10.80 10.54 99.90
26507 2020-05-24 01:02:33 Terrasse 11.10 10.87 99.90
26506 2020-05-24 00:34:19 Terrasse 11.50 11.31 99.90
26505 2020-05-24 00:06:04 Terrasse 11.90 11.75 99.90
26504 2020-05-23 23:37:50 Terrasse 12.50 12.41 99.90
26503 2020-05-23 23:09:35 Terrasse 12.90 12.85 99.90
26502 2020-05-23 22:41:20 Terrasse 13.30 13.29 99.90
26501 2020-05-23 22:13:07 Terrasse 13.70 13.70 98.70
26500 2020-05-23 21:44:52 Terrasse 13.80 13.71 94.90
26499 2020-05-23 21:16:36 Terrasse 14.30 13.97 83.80
26498 2020-05-23 20:48:21 Terrasse 14.60 14.20 79.70
26497 2020-05-23 20:20:05 Terrasse 14.90 14.51 79.00
26496 2020-05-23 19:51:48 Terrasse 15.20 14.85 79.50
26495 2020-05-23 19:23:33 Terrasse 15.40 14.94 74.50
26494 2020-05-23 18:55:16 Terrasse 15.60 15.14 73.70
26493 2020-05-23 18:26:58 Terrasse 15.70 15.26 74.20
26492 2020-05-23 17:58:43 Terrasse 15.90 15.41 71.30
26491 2020-05-23 17:30:23 Terrasse 15.80 15.33 72.60
26490 2020-05-23 17:02:04 Terrasse 15.60 15.40 83.80
26489 2020-05-23 16:33:44 Terrasse 15.40 15.52 96.50
26488 2020-05-23 16:05:24 Terrasse 15.00 15.16 99.90
26487 2020-05-23 15:37:05 Terrasse 14.90 15.05 99.90
26486 2020-05-23 15:08:46 Terrasse 14.50 14.61 99.90
26485 2020-05-23 14:40:27 Terrasse 14.40 14.50 99.90
26484 2020-05-23 14:12:10 Terrasse 14.20 14.28 99.90
26483 2020-05-23 13:43:52 Terrasse 14.00 14.06 99.90
26482 2020-05-23 13:15:36 Terrasse 14.20 14.28 99.90
26481 2020-05-23 12:47:20 Terrasse 14.10 14.17 99.90
26480 2020-05-23 12:18:59 Terrasse 13.80 13.84 99.90
26479 2020-05-23 11:50:46 Terrasse 14.00 14.06 99.90
26478 2020-05-23 11:22:30 Terrasse 14.50 14.61 99.90
26477 2020-05-23 10:54:15 Terrasse 15.10 15.10 93.40
26476 2020-05-23 10:25:57 Terrasse 15.30 15.49 99.90
26475 2020-05-23 09:57:39 Terrasse 15.10 15.27 99.90
26474 2020-05-23 09:29:21 Terrasse 15.20 15.38 99.90
26473 2020-05-23 09:01:04 Terrasse 15.10 15.27 99.90
26472 2020-05-23 08:32:44 Terrasse 15.20 15.38 99.90
26471 2020-05-23 08:04:27 Terrasse 15.20 15.38 99.90
26470 2020-05-23 07:36:18 Terrasse 15.20 15.38 99.90
26469 2020-05-23 07:07:58 Terrasse 15.20 15.38 99.90
26468 2020-05-23 06:39:43 Terrasse 15.30 15.49 99.90
26467 2020-05-23 06:11:25 Terrasse 15.40 15.60 99.90
26466 2020-05-23 05:43:08 Terrasse 15.50 15.71 99.90
26465 2020-05-23 05:14:53 Terrasse 15.70 15.93 99.90
26464 2020-05-23 04:46:39 Terrasse 15.90 16.15 99.90
26463 2020-05-23 04:18:22 Terrasse 16.10 16.37 99.90
26462 2020-05-23 03:50:05 Terrasse 16.40 16.70 99.90
26461 2020-05-23 03:21:47 Terrasse 16.70 17.03 99.90
26460 2020-05-23 02:53:32 Terrasse 17.10 17.47 99.90
26459 2020-05-23 02:25:15 Terrasse 17.40 17.80 99.90
26458 2020-05-23 01:56:58 Terrasse 17.60 18.02 99.90
26457 2020-05-23 01:28:43 Terrasse 17.80 18.24 99.90
26456 2020-05-23 01:00:26 Terrasse 18.40 18.90 99.90
26455 2020-05-23 00:32:09 Terrasse 18.60 19.12 99.90
26454 2020-05-23 00:03:53 Terrasse 19.00 19.56 99.90
26453 2020-05-22 23:35:37 Terrasse 19.30 19.89 99.90
26452 2020-05-22 23:07:22 Terrasse 19.90 20.55 99.90
26451 2020-05-22 22:39:08 Terrasse 20.20 20.88 99.90
26450 2020-05-22 22:10:53 Terrasse 20.60 21.32 99.90
26449 2020-05-22 21:42:38 Terrasse 21.20 21.98 99.90
26448 2020-05-22 21:14:24 Terrasse 21.70 22.51 98.80
26447 2020-05-22 20:46:12 Terrasse 22.60 23.24 88.90
26446 2020-05-22 20:17:55 Terrasse 23.00 23.28 73.80
26445 2020-05-22 19:49:38 Terrasse 23.10 23.35 72.10
26444 2020-05-22 19:21:21 Terrasse 23.40 23.65 71.00
26443 2020-05-22 18:53:07 Terrasse 23.70 23.94 69.60
26442 2020-05-22 18:24:49 Terrasse 24.10 24.49 73.60
26441 2020-05-22 17:56:31 Terrasse 24.20 24.63 74.70
26440 2020-05-22 17:28:10 Terrasse 24.00 24.52 79.00
26439 2020-05-22 16:59:50 Terrasse 23.70 24.13 76.90
26438 2020-05-22 16:31:30 Terrasse 23.60 24.08 78.90
26437 2020-05-22 16:03:13 Terrasse 23.50 23.91 76.80
26436 2020-05-22 15:34:51 Terrasse 23.30 23.67 76.10
26435 2020-05-22 15:06:34 Terrasse 23.40 23.79 76.30
26434 2020-05-22 14:38:10 Terrasse 23.00 23.48 81.50
26433 2020-05-22 14:09:54 Terrasse 23.10 23.47 76.70
26432 2020-05-22 13:41:34 Terrasse 23.10 23.38 73.50
26431 2020-05-22 13:13:14 Terrasse 22.90 23.14 72.50
26430 2020-05-22 12:44:54 Terrasse 22.70 22.88 71.20
26429 2020-05-22 12:16:35 Terrasse 22.50 22.72 73.30
26428 2020-05-22 11:48:15 Terrasse 22.30 22.52 74.10
26427 2020-05-22 11:19:55 Terrasse 22.00 22.33 79.60
26426 2020-05-22 10:51:35 Terrasse 21.60 21.94 81.30
26425 2020-05-22 10:23:15 Terrasse 21.40 21.71 80.90
26424 2020-05-22 09:54:55 Terrasse 21.10 21.41 82.30
26423 2020-05-22 09:26:34 Terrasse 20.80 21.07 81.80
26422 2020-05-22 08:58:11 Terrasse 20.20 20.29 77.30
26421 2020-05-22 08:29:47 Terrasse 19.30 19.51 85.10
26420 2020-05-22 08:01:24 Terrasse 18.70 19.00 91.00
26419 2020-05-22 07:33:02 Terrasse 18.10 18.42 94.00
26418 2020-05-22 07:04:41 Terrasse 17.70 17.95 92.90
26417 2020-05-22 06:36:22 Terrasse 17.40 17.57 90.80
26416 2020-05-22 06:08:05 Terrasse 17.40 17.45 86.40
26415 2020-05-22 05:39:49 Terrasse 17.40 17.40 84.40
26414 2020-05-22 05:11:32 Terrasse 17.60 17.51 80.30
26413 2020-05-22 04:43:16 Terrasse 17.80 17.63 76.30
26412 2020-05-22 04:14:59 Terrasse 18.10 17.81 70.80
26411 2020-05-22 03:46:41 Terrasse 18.40 18.06 67.70
26410 2020-05-22 03:18:23 Terrasse 18.60 18.23 65.80
26409 2020-05-22 02:50:05 Terrasse 18.70 18.28 63.20
26408 2020-05-22 02:21:50 Terrasse 18.90 18.47 62.40
26407 2020-05-22 01:53:33 Terrasse 19.10 18.68 61.80
26406 2020-05-22 01:25:15 Terrasse 19.20 18.80 62.10
26405 2020-05-22 00:56:59 Terrasse 19.60 19.22 61.60
26404 2020-05-22 00:28:43 Terrasse 19.90 19.52 60.40
26403 2020-05-22 00:00:26 Terrasse 19.90 19.51 59.80
26402 2020-05-21 23:32:11 Terrasse 20.30 19.93 59.00
26401 2020-05-21 23:03:56 Terrasse 20.60 20.24 58.50
26400 2020-05-21 22:35:38 Terrasse 20.90 20.56 58.10
26399 2020-05-21 22:07:22 Terrasse 21.20 20.89 58.10
26398 2020-05-21 21:39:07 Terrasse 21.70 21.42 57.40
26397 2020-05-21 21:10:53 Terrasse 22.40 22.18 57.00
26396 2020-05-21 20:42:40 Terrasse 23.30 23.09 53.90
26395 2020-05-21 20:14:25 Terrasse 24.00 23.84 53.20
26394 2020-05-21 19:46:09 Terrasse 24.40 24.28 53.10
26393 2020-05-21 19:17:54 Terrasse 24.90 24.81 52.30
26392 2020-05-21 18:49:40 Terrasse 25.70 25.66 51.20
26391 2020-05-21 18:21:22 Terrasse 26.10 26.06 49.40
26390 2020-05-21 17:53:06 Terrasse 26.50 26.88 48.20
26389 2020-05-21 17:24:49 Terrasse 26.90 27.23 48.40
26388 2020-05-21 16:56:31 Terrasse 27.00 27.39 49.50
26387 2020-05-21 16:28:14 Terrasse 27.30 27.62 48.70
26386 2020-05-21 15:59:59 Terrasse 27.60 27.78 46.80
26385 2020-05-21 15:31:47 Terrasse 28.70 29.04 47.80
26384 2020-05-21 15:03:29 Terrasse 29.00 29.43 48.10
26383 2020-05-21 14:35:05 Terrasse 29.30 29.73 47.40
26382 2020-05-21 14:06:52 Terrasse 29.80 30.34 47.10
26381 2020-05-21 13:38:35 Terrasse 29.40 30.09 49.20
26380 2020-05-21 13:10:05 Terrasse 28.40 29.05 51.30
26379 2020-05-21 12:41:29 Terrasse 26.00 26.08 54.50
26378 2020-05-21 12:13:14 Terrasse 25.70 25.77 55.30
26377 2020-05-21 11:44:55 Terrasse 24.90 24.95 57.50
26376 2020-05-21 11:16:31 Terrasse 23.70 23.68 59.70
26375 2020-05-21 10:47:54 Terrasse 21.80 21.76 66.00
26374 2020-05-21 10:19:24 Terrasse 20.30 20.27 72.20
26373 2020-05-21 09:50:59 Terrasse 19.10 19.10 77.90
26372 2020-05-21 09:22:37 Terrasse 18.10 18.20 85.40
26371 2020-05-21 08:54:12 Terrasse 17.00 17.16 92.00
26370 2020-05-21 08:25:49 Terrasse 16.20 16.39 96.30
26369 2020-05-21 07:57:29 Terrasse 15.70 15.93 99.90
26368 2020-05-21 07:29:10 Terrasse 15.40 15.60 99.90
26367 2020-05-21 07:00:51 Terrasse 15.00 15.16 99.90
26366 2020-05-21 06:32:33 Terrasse 14.70 14.83 99.90
26365 2020-05-21 06:04:16 Terrasse 14.80 14.94 99.90
26364 2020-05-21 05:36:00 Terrasse 15.00 15.13 98.50
26363 2020-05-21 05:07:44 Terrasse 14.90 15.03 98.90
26362 2020-05-21 04:39:28 Terrasse 15.10 15.18 96.30
26361 2020-05-21 04:11:13 Terrasse 15.40 15.42 92.90
26360 2020-05-21 03:42:57 Terrasse 15.70 15.67 89.70
26359 2020-05-21 03:14:41 Terrasse 16.00 15.81 82.60
26358 2020-05-21 02:46:24 Terrasse 16.30 16.00 77.20
26357 2020-05-21 02:18:09 Terrasse 16.40 16.07 75.50
26356 2020-05-21 01:49:52 Terrasse 16.70 16.33 72.90
26355 2020-05-21 01:21:36 Terrasse 16.90 16.55 73.10
26354 2020-05-21 00:53:18 Terrasse 17.20 16.97 76.40
26353 2020-05-21 00:25:04 Terrasse 17.60 17.33 73.30
26352 2020-05-20 23:56:47 Terrasse 17.80 17.43 68.80
26351 2020-05-20 23:28:31 Terrasse 18.10 17.67 65.30
26350 2020-05-20 23:00:14 Terrasse 18.30 17.83 63.10
26349 2020-05-20 22:31:58 Terrasse 18.60 18.15 62.70
26348 2020-05-20 22:03:41 Terrasse 18.90 18.43 60.70
26347 2020-05-20 21:35:26 Terrasse 19.40 18.96 60.10
26346 2020-05-20 21:07:11 Terrasse 20.00 19.62 60.00
26345 2020-05-20 20:38:57 Terrasse 20.60 20.27 59.70
26344 2020-05-20 20:10:43 Terrasse 21.40 21.12 58.40
26343 2020-05-20 19:42:28 Terrasse 22.00 21.74 57.00
26342 2020-05-20 19:14:13 Terrasse 22.60 22.38 56.10
26341 2020-05-20 18:45:58 Terrasse 23.10 22.93 56.10
26340 2020-05-20 18:17:40 Terrasse 23.20 23.01 54.80
26339 2020-05-20 17:49:20 Terrasse 23.20 23.01 55.00
26338 2020-05-20 17:21:06 Terrasse 24.00 23.85 53.40
26337 2020-05-20 16:52:47 Terrasse 24.20 24.08 53.90
26336 2020-05-20 16:24:29 Terrasse 24.20 24.08 53.90
26335 2020-05-20 15:56:05 Terrasse 23.80 23.66 54.50
26334 2020-05-20 15:27:58 Terrasse 25.10 25.04 52.60
26333 2020-05-20 14:59:23 Terrasse 22.80 22.62 56.80
26332 2020-05-20 14:31:08 Terrasse 23.00 22.81 55.80
26331 2020-05-20 14:02:46 Terrasse 22.70 22.50 56.50
26330 2020-05-20 13:34:35 Terrasse 23.80 23.75 58.10
26329 2020-05-20 13:06:27 Terrasse 23.70 23.57 55.40
26328 2020-05-20 12:37:56 Terrasse 22.00 21.79 58.90
26327 2020-05-20 12:09:38 Terrasse 21.50 21.23 58.50
26326 2020-05-20 11:41:27 Terrasse 22.00 21.79 58.90
26325 2020-05-20 11:13:32 Terrasse 23.30 23.27 60.70
26324 2020-05-20 10:44:52 Terrasse 20.20 20.04 67.60
26323 2020-05-20 10:16:25 Terrasse 19.50 19.28 67.90
26322 2020-05-20 09:48:04 Terrasse 19.00 18.77 69.40
26321 2020-05-20 09:19:48 Terrasse 19.40 19.17 68.00
26320 2020-05-20 08:51:22 Terrasse 18.90 18.70 71.10
26319 2020-05-20 08:22:59 Terrasse 18.10 18.05 79.80
26318 2020-05-20 07:54:38 Terrasse 17.50 17.39 79.80
26317 2020-05-20 07:26:21 Terrasse 17.40 17.39 84.20
26316 2020-05-20 06:58:03 Terrasse 17.30 17.26 83.20
26315 2020-05-20 06:29:44 Terrasse 17.00 16.86 80.50
26314 2020-05-20 06:01:26 Terrasse 17.00 16.93 83.10
26313 2020-05-20 05:33:09 Terrasse 17.10 16.94 79.40
26312 2020-05-20 05:04:51 Terrasse 17.30 17.17 79.70
26311 2020-05-20 04:36:34 Terrasse 17.50 17.27 75.30
26310 2020-05-20 04:08:17 Terrasse 17.60 17.27 71.10
26309 2020-05-20 03:39:59 Terrasse 17.60 17.20 68.50
26308 2020-05-20 03:11:40 Terrasse 17.60 17.15 66.50
26307 2020-05-20 02:43:22 Terrasse 17.60 17.11 65.00
26306 2020-05-20 02:15:04 Terrasse 17.60 17.10 64.60
26305 2020-05-20 01:46:46 Terrasse 17.60 17.02 61.60
26304 2020-05-20 01:18:30 Terrasse 18.00 17.41 59.60
26303 2020-05-20 00:50:12 Terrasse 18.10 17.50 58.80
26302 2020-05-20 00:21:57 Terrasse 18.40 17.79 57.40
26301 2020-05-19 23:53:41 Terrasse 18.80 18.22 56.90
26300 2020-05-19 23:25:24 Terrasse 19.20 18.63 55.80
26299 2020-05-19 22:57:10 Terrasse 19.70 19.14 54.20
26298 2020-05-19 22:28:56 Terrasse 20.30 19.77 53.10
26297 2020-05-19 22:00:42 Terrasse 20.80 20.31 52.50
26296 2020-05-19 21:32:27 Terrasse 21.40 20.94 51.40
26295 2020-05-19 21:04:13 Terrasse 22.20 21.75 49.00
26294 2020-05-19 20:36:00 Terrasse 22.80 22.37 47.30
26293 2020-05-19 20:07:45 Terrasse 23.30 22.88 45.70
26292 2020-05-19 19:39:31 Terrasse 23.90 23.51 44.70
26291 2020-05-19 19:11:15 Terrasse 24.40 24.02 43.10
26290 2020-05-19 18:43:08 Terrasse 25.00 24.64 41.50
26289 2020-05-19 18:14:49 Terrasse 25.50 25.19 41.40
26288 2020-05-19 17:46:33 Terrasse 25.90 25.62 41.00
26287 2020-05-19 17:18:20 Terrasse 26.50 26.52 40.00
26286 2020-05-19 16:50:04 Terrasse 27.00 26.86 40.00
26285 2020-05-19 16:21:48 Terrasse 27.30 27.14 41.00
26284 2020-05-19 15:53:36 Terrasse 27.90 27.57 39.90
26283 2020-05-19 15:25:25 Terrasse 29.40 28.80 37.70
26282 2020-05-19 14:57:08 Terrasse 30.00 29.53 38.60
26281 2020-05-19 14:28:39 Terrasse 29.40 28.86 38.30
26280 2020-05-19 14:00:24 Terrasse 28.80 28.28 38.50
26279 2020-05-19 13:32:07 Terrasse 29.10 28.62 39.00
26278 2020-05-19 13:03:43 Terrasse 28.00 27.66 40.00
26277 2020-05-19 12:35:11 Terrasse 25.70 25.35 39.20
26276 2020-05-19 12:06:54 Terrasse 25.40 25.03 39.60
26275 2020-05-19 11:38:27 Terrasse 24.10 23.65 41.60
26274 2020-05-19 11:09:47 Terrasse 21.70 21.08 44.40
26273 2020-05-19 10:41:23 Terrasse 20.40 19.68 45.30
26272 2020-05-19 10:12:59 Terrasse 19.80 19.02 45.40
26271 2020-05-19 09:44:32 Terrasse 18.40 17.52 47.00
26270 2020-05-19 09:16:10 Terrasse 17.50 16.56 48.10
26269 2020-05-19 08:47:41 Terrasse 16.20 15.19 50.20
26268 2020-05-19 08:19:16 Terrasse 15.10 14.07 53.70
26267 2020-05-19 07:50:54 Terrasse 14.40 13.34 55.20
26266 2020-05-19 07:22:34 Terrasse 13.80 12.65 54.00
26265 2020-05-19 06:54:15 Terrasse 13.60 12.44 54.70
26264 2020-05-19 06:25:58 Terrasse 13.40 12.26 56.00
26263 2020-05-19 05:57:42 Terrasse 13.60 12.52 57.70
26262 2020-05-19 05:29:27 Terrasse 14.30 13.31 58.40
26261 2020-05-19 05:01:12 Terrasse 14.60 13.68 60.10
26260 2020-05-19 04:32:57 Terrasse 14.90 14.05 61.50
26259 2020-05-19 04:04:42 Terrasse 15.50 14.69 60.80
26258 2020-05-19 03:36:27 Terrasse 16.00 15.19 58.90
26257 2020-05-19 03:08:12 Terrasse 16.50 15.73 58.30
26256 2020-05-19 02:39:57 Terrasse 17.10 16.36 57.10
26255 2020-05-19 02:11:40 Terrasse 17.40 16.65 55.70
26254 2020-05-19 01:43:23 Terrasse 17.40 16.65 55.60
26253 2020-05-19 01:15:07 Terrasse 17.30 16.56 56.60
26252 2020-05-19 00:46:52 Terrasse 18.00 17.29 55.00
26251 2020-05-19 00:18:35 Terrasse 18.10 17.39 54.70
26250 2020-05-18 23:50:19 Terrasse 18.10 17.41 55.20
26249 2020-05-18 23:22:06 Terrasse 18.70 18.03 53.90
26248 2020-05-18 22:53:50 Terrasse 19.20 18.54 52.20
26247 2020-05-18 22:25:33 Terrasse 19.30 18.64 52.00
26246 2020-05-18 21:57:17 Terrasse 19.60 18.96 51.60
26245 2020-05-18 21:29:05 Terrasse 20.10 19.47 50.10
26244 2020-05-18 21:00:52 Terrasse 21.00 20.43 48.90
26243 2020-05-18 20:32:37 Terrasse 21.60 21.03 46.50
26242 2020-05-18 20:04:23 Terrasse 22.20 21.65 45.00
26241 2020-05-18 19:36:09 Terrasse 22.90 22.38 43.40
26240 2020-05-18 19:07:53 Terrasse 23.30 22.81 43.00
26239 2020-05-18 18:39:38 Terrasse 23.80 23.33 42.10
26238 2020-05-18 18:11:24 Terrasse 24.30 23.90 42.50
26237 2020-05-18 17:43:08 Terrasse 24.70 24.34 42.70
26236 2020-05-18 17:14:53 Terrasse 25.10 24.74 41.30
26235 2020-05-18 16:46:38 Terrasse 25.30 24.93 39.90
26234 2020-05-18 16:18:22 Terrasse 25.50 25.16 40.30
26233 2020-05-18 15:50:09 Terrasse 26.10 25.81 40.10
26232 2020-05-18 15:21:50 Terrasse 26.60 26.56 39.60
26231 2020-05-18 14:53:27 Terrasse 26.00 25.73 41.20
26230 2020-05-18 14:25:18 Terrasse 26.90 26.81 40.50
26229 2020-05-18 13:57:04 Terrasse 27.60 27.33 40.00
26228 2020-05-18 13:28:45 Terrasse 27.10 26.92 39.70
26227 2020-05-18 13:00:20 Terrasse 26.10 25.88 42.80
26226 2020-05-18 12:31:52 Terrasse 23.70 23.29 44.50
26225 2020-05-18 12:03:32 Terrasse 23.30 22.84 44.10
26224 2020-05-18 11:35:10 Terrasse 22.60 22.14 46.80
26223 2020-05-18 11:06:44 Terrasse 21.30 20.78 49.40
26222 2020-05-18 10:38:03 Terrasse 19.20 18.51 51.20
26221 2020-05-18 10:09:37 Terrasse 17.80 17.02 53.10
26220 2020-05-18 09:41:14 Terrasse 16.60 15.74 54.70
26219 2020-05-18 09:12:47 Terrasse 15.50 14.55 55.40
26218 2020-05-18 08:44:19 Terrasse 14.10 13.02 55.60
26217 2020-05-18 08:15:55 Terrasse 13.10 11.98 58.00
26216 2020-05-18 07:47:36 Terrasse 12.60 11.56 63.10
26215 2020-05-18 07:19:17 Terrasse 12.00 10.87 62.00
26214 2020-05-18 06:50:58 Terrasse 11.50 10.29 60.80
26213 2020-05-18 06:22:43 Terrasse 11.50 10.25 59.10
26212 2020-05-18 05:54:28 Terrasse 11.60 10.32 57.50
26211 2020-05-18 05:26:13 Terrasse 11.80 10.51 56.40
26210 2020-05-18 04:57:58 Terrasse 11.90 10.62 56.40
26209 2020-05-18 04:29:43 Terrasse 11.80 10.48 55.30
26208 2020-05-18 04:01:28 Terrasse 12.20 10.93 55.60
26207 2020-05-18 03:33:12 Terrasse 12.40 11.11 54.20
26206 2020-05-18 03:04:57 Terrasse 12.70 11.44 54.00
26205 2020-05-18 02:36:43 Terrasse 12.90 11.63 53.00
26204 2020-05-18 02:08:28 Terrasse 13.10 11.81 51.60
26203 2020-05-18 01:40:13 Terrasse 13.20 11.92 51.40
26202 2020-05-18 01:11:59 Terrasse 13.40 12.13 51.00
26201 2020-05-18 00:43:42 Terrasse 13.50 12.22 50.50
26200 2020-05-18 00:15:27 Terrasse 13.60 12.33 50.20
26199 2020-05-17 23:47:11 Terrasse 14.00 12.75 49.60
26198 2020-05-17 23:18:55 Terrasse 14.20 12.94 48.60
26197 2020-05-17 22:50:40 Terrasse 14.70 13.48 48.00
26196 2020-05-17 22:22:26 Terrasse 15.20 14.01 47.20
26195 2020-05-17 21:54:11 Terrasse 15.80 14.65 46.50
26194 2020-05-17 21:25:59 Terrasse 16.60 15.51 45.60
26193 2020-05-17 20:57:44 Terrasse 17.50 16.45 43.90
26192 2020-05-17 20:29:29 Terrasse 18.00 16.97 42.60
26191 2020-05-17 20:01:15 Terrasse 18.80 17.79 40.20
26190 2020-05-17 19:33:01 Terrasse 19.30 18.31 39.20
26189 2020-05-17 19:04:47 Terrasse 19.90 18.95 38.30
26188 2020-05-17 18:36:33 Terrasse 20.50 19.59 37.90
26187 2020-05-17 18:08:20 Terrasse 20.80 19.83 34.40
26186 2020-05-17 17:40:04 Terrasse 21.20 20.24 33.10
26185 2020-05-17 17:11:48 Terrasse 21.60 20.69 33.60
26184 2020-05-17 16:43:33 Terrasse 22.10 21.31 36.20
26183 2020-05-17 16:15:20 Terrasse 22.70 21.98 36.50
26182 2020-05-17 15:47:10 Terrasse 23.30 22.65 37.00
26181 2020-05-17 15:18:51 Terrasse 23.40 22.76 37.10
26180 2020-05-17 14:50:35 Terrasse 23.30 22.70 39.00
26179 2020-05-17 14:22:14 Terrasse 23.10 22.53 40.60
26178 2020-05-17 13:53:56 Terrasse 23.60 23.11 42.00
26177 2020-05-17 13:25:19 Terrasse 21.10 20.41 43.80
26176 2020-05-17 12:57:05 Terrasse 21.10 20.43 44.70
26175 2020-05-17 12:28:34 Terrasse 18.30 17.41 47.00
26174 2020-05-17 12:00:09 Terrasse 17.50 16.56 48.00
26173 2020-05-17 11:31:45 Terrasse 17.70 16.80 48.70
26172 2020-05-17 11:03:36 Terrasse 18.10 17.25 49.10
26171 2020-05-17 10:35:07 Terrasse 16.00 14.98 50.70
26170 2020-05-17 10:06:46 Terrasse 15.40 14.26 48.40
26169 2020-05-17 09:38:21 Terrasse 14.40 13.19 49.50
26168 2020-05-17 09:09:58 Terrasse 13.60 12.38 52.10
26167 2020-05-17 08:41:34 Terrasse 12.70 11.46 55.00
26166 2020-05-17 08:13:14 Terrasse 12.00 10.71 55.70
26165 2020-05-17 07:44:56 Terrasse 11.70 10.38 55.60
26164 2020-05-17 07:16:38 Terrasse 11.50 10.18 56.40
26163 2020-05-17 06:48:20 Terrasse 11.10 9.73 56.00
26162 2020-05-17 06:20:04 Terrasse 11.30 9.92 55.10
26161 2020-05-17 05:51:49 Terrasse 11.40 10.00 53.60
26160 2020-05-17 05:23:34 Terrasse 11.80 10.39 51.80
26159 2020-05-17 04:55:19 Terrasse 12.00 10.59 51.10
26158 2020-05-17 04:27:04 Terrasse 12.40 10.98 49.30
26157 2020-05-17 03:58:50 Terrasse 12.70 11.29 48.60
26156 2020-05-17 03:30:35 Terrasse 12.80 11.44 49.80
26155 2020-05-17 03:02:20 Terrasse 12.90 11.57 50.70
26154 2020-05-17 02:34:05 Terrasse 13.30 11.98 49.70
26153 2020-05-17 02:05:50 Terrasse 13.50 12.18 48.80
26152 2020-05-17 01:37:37 Terrasse 14.00 12.67 46.50
26151 2020-05-17 01:09:22 Terrasse 14.50 13.18 44.90
26150 2020-05-17 00:41:06 Terrasse 14.70 13.40 45.10
26149 2020-05-17 00:12:51 Terrasse 14.80 13.50 44.60
26148 2020-05-16 23:44:36 Terrasse 15.00 13.72 44.70
26147 2020-05-16 23:16:21 Terrasse 15.30 14.06 45.00
26146 2020-05-16 22:48:06 Terrasse 15.50 14.28 45.00
26145 2020-05-16 22:19:49 Terrasse 15.60 14.42 46.30
26144 2020-05-16 21:51:35 Terrasse 15.70 14.56 47.20
26143 2020-05-16 21:23:22 Terrasse 16.20 15.08 46.20
26142 2020-05-16 20:55:09 Terrasse 17.20 16.12 43.70
26141 2020-05-16 20:26:55 Terrasse 17.80 16.74 42.40
26140 2020-05-16 19:58:43 Terrasse 18.40 17.39 41.80
26139 2020-05-16 19:30:28 Terrasse 19.20 18.27 42.10
26138 2020-05-16 19:02:13 Terrasse 19.90 19.01 40.60
26137 2020-05-16 18:33:57 Terrasse 20.10 19.18 38.90
26136 2020-05-16 18:05:44 Terrasse 20.80 19.93 38.20
26135 2020-05-16 17:37:26 Terrasse 20.90 20.04 38.10
26134 2020-05-16 17:09:10 Terrasse 21.50 20.68 37.20
26133 2020-05-16 16:40:57 Terrasse 22.30 21.55 36.90
26132 2020-05-16 16:12:40 Terrasse 22.40 21.69 38.10
26131 2020-05-16 15:44:31 Terrasse 23.10 22.43 36.80
26130 2020-05-16 15:16:11 Terrasse 23.80 23.19 36.40
26129 2020-05-16 14:47:57 Terrasse 24.20 23.65 37.20
26128 2020-05-16 14:19:38 Terrasse 24.30 23.76 37.30
26127 2020-05-16 13:51:20 Terrasse 24.60 24.09 37.40
26126 2020-05-16 13:23:01 Terrasse 24.10 23.60 39.70
26125 2020-05-16 12:54:28 Terrasse 22.70 22.09 40.90
26124 2020-05-16 12:26:06 Terrasse 20.70 19.92 41.80
26123 2020-05-16 11:57:57 Terrasse 20.70 19.94 42.50
26122 2020-05-16 11:29:31 Terrasse 19.70 18.88 44.20
26121 2020-05-16 11:01:00 Terrasse 17.90 16.91 44.70
26120 2020-05-16 10:32:19 Terrasse 15.80 14.64 46.30
26119 2020-05-16 10:03:54 Terrasse 14.60 13.38 48.30
26118 2020-05-16 09:35:29 Terrasse 13.60 12.27 48.10
26117 2020-05-16 09:07:04 Terrasse 12.60 11.19 48.90
26116 2020-05-16 08:38:38 Terrasse 11.30 9.85 52.30
26115 2020-05-16 08:10:16 Terrasse 10.40 8.90 53.70
26114 2020-05-16 07:41:55 Terrasse 9.60 8.06 55.50
26113 2020-05-16 07:13:36 Terrasse 8.80 7.26 58.20
26112 2020-05-16 06:45:19 Terrasse 8.40 6.80 57.50
26111 2020-05-16 06:17:04 Terrasse 8.50 6.87 56.10
26110 2020-05-16 05:48:51 Terrasse 8.80 7.16 54.70
26109 2020-05-16 05:20:37 Terrasse 9.20 7.57 53.50
26108 2020-05-16 04:52:22 Terrasse 9.30 7.66 52.70
26107 2020-05-16 04:24:09 Terrasse 9.70 8.08 52.00
26106 2020-05-16 03:55:55 Terrasse 10.10 8.48 50.30
26105 2020-05-16 03:27:40 Terrasse 10.30 8.66 48.80
26104 2020-05-16 02:59:27 Terrasse 10.50 8.89 49.10
26103 2020-05-16 02:31:12 Terrasse 11.00 9.42 48.30
26102 2020-05-16 02:02:57 Terrasse 11.20 9.59 46.40
26101 2020-05-16 01:34:44 Terrasse 11.60 10.04 46.90
26100 2020-05-16 01:06:29 Terrasse 12.00 10.44 45.20
26099 2020-05-16 00:38:14 Terrasse 12.30 10.74 44.30
26098 2020-05-16 00:10:00 Terrasse 12.70 11.17 44.00
26097 2020-05-15 23:41:45 Terrasse 13.20 11.73 44.10
26096 2020-05-15 23:13:32 Terrasse 13.50 12.05 43.80
26095 2020-05-15 22:45:16 Terrasse 14.00 12.58 43.00
26094 2020-05-15 22:17:00 Terrasse 14.30 12.96 44.80
26093 2020-05-15 21:48:49 Terrasse 14.90 13.60 44.10
26092 2020-05-15 21:20:36 Terrasse 15.70 14.45 42.90
26091 2020-05-15 20:52:23 Terrasse 16.50 15.33 42.90
26090 2020-05-15 20:24:08 Terrasse 17.10 15.98 42.50
26089 2020-05-15 19:55:51 Terrasse 17.60 16.47 40.40
26088 2020-05-15 19:27:36 Terrasse 18.10 17.00 39.50
26087 2020-05-15 18:59:22 Terrasse 18.30 17.21 39.20
26086 2020-05-15 18:31:09 Terrasse 19.00 17.95 38.10
26085 2020-05-15 18:02:54 Terrasse 19.70 18.69 36.90
26084 2020-05-15 17:34:39 Terrasse 20.40 19.47 37.40
26083 2020-05-15 17:06:24 Terrasse 20.90 20.01 37.00
26082 2020-05-15 16:38:03 Terrasse 20.60 19.64 35.40
26081 2020-05-15 16:09:47 Terrasse 21.10 20.24 37.40
26080 2020-05-15 15:41:36 Terrasse 21.20 20.32 36.30
26079 2020-05-15 15:13:22 Terrasse 22.40 21.62 35.40
26078 2020-05-15 14:45:17 Terrasse 24.00 23.38 35.40
26077 2020-05-15 14:17:00 Terrasse 24.00 23.38 35.30
26076 2020-05-15 13:48:40 Terrasse 23.90 23.31 37.00
26075 2020-05-15 13:20:21 Terrasse 24.00 23.48 39.20
26074 2020-05-15 12:51:50 Terrasse 22.10 21.44 41.20
26073 2020-05-15 12:23:30 Terrasse 20.70 19.91 41.60
26072 2020-05-15 11:55:11 Terrasse 20.30 19.50 42.50
26071 2020-05-15 11:26:48 Terrasse 19.30 18.39 42.40
26070 2020-05-15 10:58:17 Terrasse 17.60 16.65 47.10
26069 2020-05-15 10:29:39 Terrasse 15.80 14.71 49.00
26068 2020-05-15 10:01:14 Terrasse 14.40 13.18 49.30
26067 2020-05-15 09:32:51 Terrasse 13.30 12.00 50.50
26066 2020-05-15 09:04:28 Terrasse 12.40 11.03 51.10
26065 2020-05-15 08:36:03 Terrasse 11.20 9.75 52.80
26064 2020-05-15 08:07:43 Terrasse 10.50 8.99 53.00
26063 2020-05-15 07:39:23 Terrasse 10.00 8.48 54.60
26062 2020-05-15 07:11:06 Terrasse 9.70 8.19 56.10
26061 2020-05-15 06:42:49 Terrasse 9.40 7.86 56.00
26060 2020-05-15 06:14:34 Terrasse 9.40 7.84 55.30
26059 2020-05-15 05:46:17 Terrasse 9.30 7.73 55.50
26058 2020-05-15 05:18:01 Terrasse 9.10 7.50 55.00
26057 2020-05-15 04:49:45 Terrasse 9.30 7.73 55.30
26056 2020-05-15 04:21:28 Terrasse 9.50 7.96 55.80
26055 2020-05-15 03:53:11 Terrasse 9.80 8.27 55.10
26054 2020-05-15 03:24:56 Terrasse 9.90 8.38 54.80
26053 2020-05-15 02:56:40 Terrasse 10.10 8.58 54.00
26052 2020-05-15 02:28:24 Terrasse 10.30 8.79 53.70
26051 2020-05-15 02:00:08 Terrasse 10.40 8.91 54.00
26050 2020-05-15 01:31:52 Terrasse 10.50 9.02 54.00
26049 2020-05-15 01:03:37 Terrasse 10.70 9.21 53.00
26048 2020-05-15 00:35:18 Terrasse 10.80 9.29 51.80
26047 2020-05-15 00:07:01 Terrasse 11.00 9.44 49.30
26046 2020-05-14 23:38:46 Terrasse 11.30 9.77 49.20
26045 2020-05-14 23:10:29 Terrasse 11.60 10.09 48.80
26044 2020-05-14 22:42:15 Terrasse 11.80 10.29 48.10
26043 2020-05-14 22:14:00 Terrasse 12.10 10.59 46.80
26042 2020-05-14 21:45:47 Terrasse 12.50 11.03 46.90
26041 2020-05-14 21:17:33 Terrasse 12.90 11.45 46.30
26040 2020-05-14 20:49:20 Terrasse 13.50 12.11 46.30
26039 2020-05-14 20:21:06 Terrasse 14.00 12.65 45.70
26038 2020-05-14 19:52:53 Terrasse 14.60 13.31 45.80
26037 2020-05-14 19:24:42 Terrasse 15.40 14.17 45.00
26036 2020-05-14 18:56:28 Terrasse 16.20 15.01 43.40
26035 2020-05-14 18:28:12 Terrasse 16.60 15.47 44.30
26034 2020-05-14 17:59:57 Terrasse 16.80 15.68 44.00
26033 2020-05-14 17:31:44 Terrasse 17.80 16.76 43.00
26032 2020-05-14 17:03:28 Terrasse 17.70 16.66 43.60
26031 2020-05-14 16:35:23 Terrasse 19.40 18.52 42.90
26030 2020-05-14 16:07:07 Terrasse 20.00 19.16 42.20
26029 2020-05-14 15:38:55 Terrasse 20.50 19.70 41.80
26028 2020-05-14 15:10:43 Terrasse 22.00 21.33 41.20
26027 2020-05-14 14:42:34 Terrasse 23.10 22.55 41.60
26026 2020-05-14 14:14:17 Terrasse 22.60 22.07 44.20
26025 2020-05-14 13:45:57 Terrasse 22.10 21.55 45.30
26024 2020-05-14 13:17:35 Terrasse 21.60 21.03 46.70
26023 2020-05-14 12:48:59 Terrasse 19.40 18.67 48.90
26022 2020-05-14 12:20:36 Terrasse 18.00 17.16 50.10
26021 2020-05-14 11:52:21 Terrasse 18.10 17.32 52.00
26020 2020-05-14 11:23:55 Terrasse 16.90 16.07 54.50
26019 2020-05-14 10:55:21 Terrasse 15.00 14.03 56.40
26018 2020-05-14 10:26:51 Terrasse 13.40 12.34 59.20
26017 2020-05-14 09:58:25 Terrasse 12.10 10.96 61.10
26016 2020-05-14 09:30:01 Terrasse 11.20 10.02 62.90
26015 2020-05-14 09:01:38 Terrasse 10.40 9.17 64.10
26014 2020-05-14 08:33:13 Terrasse 9.20 7.96 68.30
26013 2020-05-14 08:05:00 Terrasse 8.50 7.30 72.50
26012 2020-05-14 07:36:39 Terrasse 8.10 6.89 73.80
26011 2020-05-14 07:08:20 Terrasse 7.80 6.61 75.70
26010 2020-05-14 06:40:03 Terrasse 7.70 6.44 73.50
26009 2020-05-14 06:11:46 Terrasse 7.70 6.37 70.70
26008 2020-05-14 05:43:31 Terrasse 7.70 6.32 68.80
26007 2020-05-14 05:15:16 Terrasse 7.90 6.50 67.20
26006 2020-05-14 04:47:00 Terrasse 8.10 6.65 64.60
26005 2020-05-14 04:18:45 Terrasse 8.50 7.05 63.10
26004 2020-05-14 03:50:30 Terrasse 8.80 7.35 61.90
26003 2020-05-14 03:22:14 Terrasse 9.10 7.68 61.70
26002 2020-05-14 02:53:59 Terrasse 9.30 7.88 61.10
26001 2020-05-14 02:25:42 Terrasse 9.50 8.08 60.40
26000 2020-05-14 01:57:27 Terrasse 9.70 8.27 59.20
25999 2020-05-14 01:29:12 Terrasse 10.00 8.55 57.10
25998 2020-05-14 01:00:57 Terrasse 10.30 8.87 56.80
25997 2020-05-14 00:32:44 Terrasse 10.70 9.29 55.90
25996 2020-05-14 00:04:31 Terrasse 11.20 9.73 51.80
25995 2020-05-13 23:36:16 Terrasse 11.60 10.07 48.20
25994 2020-05-13 23:07:59 Terrasse 11.80 10.26 47.00
25993 2020-05-13 22:39:42 Terrasse 12.00 10.49 47.40
25992 2020-05-13 22:11:28 Terrasse 12.20 10.71 47.30
25991 2020-05-13 21:43:12 Terrasse 12.50 11.06 47.90
25990 2020-05-13 21:14:57 Terrasse 13.00 11.59 47.20
25989 2020-05-13 20:46:43 Terrasse 13.40 12.04 47.80
25988 2020-05-13 20:18:36 Terrasse 13.90 12.58 47.20
25987 2020-05-13 19:50:18 Terrasse 14.40 13.14 47.70
25986 2020-05-13 19:22:03 Terrasse 14.90 13.68 47.20
25985 2020-05-13 18:53:49 Terrasse 15.30 14.11 47.00
25984 2020-05-13 18:25:31 Terrasse 15.40 14.21 46.50
25983 2020-05-13 17:57:16 Terrasse 15.90 14.70 44.20
25982 2020-05-13 17:29:01 Terrasse 16.60 15.44 43.20
25981 2020-05-13 17:00:48 Terrasse 17.50 16.49 45.40
25980 2020-05-13 16:32:30 Terrasse 17.80 16.77 43.30
25979 2020-05-13 16:04:16 Terrasse 17.90 16.83 41.40
25978 2020-05-13 15:36:04 Terrasse 18.20 17.25 44.90
25977 2020-05-13 15:07:41 Terrasse 17.60 16.55 43.30
25976 2020-05-13 14:39:27 Terrasse 17.60 16.53 42.50
25975 2020-05-13 14:11:07 Terrasse 17.00 15.91 44.20
25974 2020-05-13 13:42:57 Terrasse 18.30 17.34 44.10
25973 2020-05-13 13:14:54 Terrasse 20.80 20.10 44.70
25972 2020-05-13 12:46:14 Terrasse 18.30 17.41 46.80
25971 2020-05-13 12:17:52 Terrasse 17.00 15.96 46.10
25970 2020-05-13 11:49:36 Terrasse 17.20 16.22 47.70
25969 2020-05-13 11:21:19 Terrasse 16.90 15.96 50.50
25968 2020-05-13 10:52:37 Terrasse 14.30 13.22 54.90
25967 2020-05-13 10:24:08 Terrasse 12.30 11.05 56.10
25966 2020-05-13 09:55:49 Terrasse 11.80 10.47 54.90
25965 2020-05-13 09:27:28 Terrasse 11.10 9.69 54.40
25964 2020-05-13 08:59:05 Terrasse 10.40 8.98 56.80
25963 2020-05-13 08:30:39 Terrasse 9.10 7.63 60.10
25962 2020-05-13 08:02:17 Terrasse 8.40 6.95 63.40
25961 2020-05-13 07:34:01 Terrasse 7.80 6.48 70.60
25960 2020-05-13 07:05:42 Terrasse 7.30 6.12 77.90
25959 2020-05-13 06:37:39 Terrasse 7.30 5.86 67.80
25958 2020-05-13 06:09:16 Terrasse 7.30 5.76 64.10
25957 2020-05-13 05:41:03 Terrasse 7.10 5.51 63.00
25956 2020-05-13 05:12:53 Terrasse 7.20 5.62 62.90
25955 2020-05-13 04:44:34 Terrasse 7.30 5.72 62.60
25954 2020-05-13 04:16:18 Terrasse 7.30 5.73 63.10
25953 2020-05-13 03:48:03 Terrasse 7.30 5.75 63.80
25952 2020-05-13 03:19:48 Terrasse 7.50 5.99 64.40
25951 2020-05-13 02:51:33 Terrasse 7.70 6.24 65.70
25950 2020-05-13 02:23:22 Terrasse 8.10 6.71 66.80
25949 2020-05-13 01:55:05 Terrasse 8.50 7.11 65.20
25948 2020-05-13 01:26:49 Terrasse 8.80 7.39 63.20
25947 2020-05-13 00:58:34 Terrasse 9.00 7.60 63.00
25946 2020-05-13 00:30:18 Terrasse 9.20 7.80 62.20
25945 2020-05-13 00:02:02 Terrasse 9.40 7.96 60.00
25944 2020-05-12 23:33:46 Terrasse 9.50 8.09 60.60
25943 2020-05-12 23:05:31 Terrasse 9.80 8.40 60.00
25942 2020-05-12 22:37:16 Terrasse 10.10 8.70 58.80
25941 2020-05-12 22:09:02 Terrasse 10.70 9.35 58.50
25940 2020-05-12 21:40:47 Terrasse 11.30 9.96 56.60
25939 2020-05-12 21:12:34 Terrasse 11.90 10.56 54.30
25938 2020-05-12 20:44:20 Terrasse 12.50 11.18 52.70
25937 2020-05-12 20:16:07 Terrasse 13.10 11.82 51.70
25936 2020-05-12 19:48:06 Terrasse 13.80 12.53 49.40
25935 2020-05-12 19:19:48 Terrasse 14.20 12.91 47.40
25934 2020-05-12 18:51:33 Terrasse 14.70 13.45 47.00
25933 2020-05-12 18:23:17 Terrasse 14.50 13.16 44.10
25932 2020-05-12 17:55:03 Terrasse 15.20 13.97 45.80
25931 2020-05-12 17:26:53 Terrasse 16.20 15.08 46.00
25930 2020-05-12 16:58:40 Terrasse 16.70 15.64 46.40
25929 2020-05-12 16:30:16 Terrasse 16.10 15.00 47.40
25928 2020-05-12 16:01:53 Terrasse 15.20 14.03 48.10
25927 2020-05-12 15:33:35 Terrasse 15.10 13.93 48.40
25926 2020-05-12 15:05:26 Terrasse 16.00 14.92 48.30
25925 2020-05-12 14:36:57 Terrasse 15.60 14.41 45.70
25924 2020-05-12 14:08:54 Terrasse 16.70 15.70 48.80
25923 2020-05-12 13:40:23 Terrasse 16.20 15.10 46.80
25922 2020-05-12 13:12:25 Terrasse 17.50 16.56 48.20
25921 2020-05-12 12:43:33 Terrasse 14.60 13.62 57.50
25920 2020-05-12 12:15:02 Terrasse 11.80 10.58 59.20
25919 2020-05-12 11:46:36 Terrasse 11.00 9.70 59.10
25918 2020-05-12 11:18:05 Terrasse 9.60 8.40 68.20
25917 2020-05-12 10:49:49 Terrasse 10.00 8.97 73.40
25916 2020-05-12 10:21:30 Terrasse 9.00 7.79 70.10
25915 2020-05-12 09:53:15 Terrasse 9.30 8.24 74.80
25914 2020-05-12 09:24:50 Terrasse 8.40 7.65 90.20
25913 2020-05-12 08:56:26 Terrasse 7.30 6.46 91.00
25912 2020-05-12 08:28:02 Terrasse 6.10 5.32 97.90
25911 2020-05-12 07:59:43 Terrasse 5.50 4.71 99.90
25910 2020-05-12 07:31:25 Terrasse 4.90 4.05 99.90
25909 2020-05-12 07:03:08 Terrasse 4.60 3.72 99.90
25908 2020-05-12 06:34:50 Terrasse 4.50 3.61 99.90
25907 2020-05-12 06:06:34 Terrasse 4.50 3.57 98.40
25906 2020-05-12 05:38:18 Terrasse 4.70 3.73 95.80
25905 2020-05-12 05:10:01 Terrasse 4.80 3.80 94.20
25904 2020-05-12 04:41:45 Terrasse 4.80 3.86 96.60
25903 2020-05-12 04:13:28 Terrasse 4.70 3.78 97.70
25902 2020-05-12 03:45:12 Terrasse 4.80 3.93 99.20
25901 2020-05-12 03:16:55 Terrasse 4.70 3.83 99.90
25900 2020-05-12 02:48:39 Terrasse 4.70 3.83 99.90
25899 2020-05-12 02:20:24 Terrasse 4.70 3.83 99.90
25898 2020-05-12 01:52:10 Terrasse 4.90 4.05 99.90
25897 2020-05-12 01:23:55 Terrasse 5.00 4.16 99.90
25896 2020-05-12 00:55:40 Terrasse 5.30 4.49 99.90
25895 2020-05-12 00:27:27 Terrasse 5.60 4.82 99.90
25894 2020-05-11 23:59:13 Terrasse 6.10 5.37 99.90
25893 2020-05-11 23:30:59 Terrasse 6.40 5.70 99.90
25892 2020-05-11 23:02:46 Terrasse 6.90 6.25 99.90
25891 2020-05-11 22:34:31 Terrasse 7.20 6.58 99.90
25890 2020-05-11 22:06:27 Terrasse 7.40 6.80 99.90
25889 2020-05-11 21:38:08 Terrasse 7.50 6.91 99.90
25888 2020-05-11 21:09:51 Terrasse 7.60 7.02 99.90
25887 2020-05-11 20:41:36 Terrasse 7.90 7.35 99.90
25886 2020-05-11 20:13:20 Terrasse 8.10 7.57 99.90
25885 2020-05-11 19:45:06 Terrasse 8.50 8.01 99.90
25884 2020-05-11 19:16:50 Terrasse 8.60 8.12 99.90
25883 2020-05-11 18:48:34 Terrasse 8.60 8.12 99.90
25882 2020-05-11 18:20:29 Terrasse 9.10 8.67 99.90
25881 2020-05-11 17:52:03 Terrasse 8.20 7.68 99.90
25880 2020-05-11 17:23:44 Terrasse 7.50 6.91 99.90
25879 2020-05-11 16:55:25 Terrasse 7.30 6.69 99.90
25878 2020-05-11 16:27:07 Terrasse 6.90 6.25 99.90
25877 2020-05-11 15:58:49 Terrasse 6.60 5.92 99.90
25876 2020-05-11 15:30:31 Terrasse 6.50 5.81 99.90
25875 2020-05-11 15:02:13 Terrasse 6.30 5.59 99.90
25874 2020-05-11 14:33:58 Terrasse 6.40 5.70 99.90
25873 2020-05-11 14:05:41 Terrasse 6.30 5.59 99.90
25872 2020-05-11 13:37:24 Terrasse 6.10 5.37 99.90
25871 2020-05-11 13:09:08 Terrasse 6.20 5.48 99.90
25870 2020-05-11 12:40:52 Terrasse 6.30 5.59 99.90
25869 2020-05-11 12:12:40 Terrasse 6.30 5.59 99.90
25868 2020-05-11 11:44:23 Terrasse 6.30 5.59 99.90
25867 2020-05-11 11:16:06 Terrasse 6.50 5.81 99.90
25866 2020-05-11 10:47:50 Terrasse 6.40 5.56 94.30
25865 2020-05-11 10:19:37 Terrasse 6.90 6.09 93.70
25864 2020-05-11 09:51:24 Terrasse 7.30 6.61 96.80
25863 2020-05-11 09:23:10 Terrasse 7.70 6.99 94.50
25862 2020-05-11 08:54:57 Terrasse 8.10 7.46 95.40
25861 2020-05-11 08:26:45 Terrasse 8.60 8.05 97.20
25860 2020-05-11 07:58:35 Terrasse 9.30 8.76 94.80
25859 2020-05-11 07:30:24 Terrasse 10.10 9.77 99.90
25858 2020-05-11 07:02:10 Terrasse 10.50 10.21 99.90
25857 2020-05-11 06:33:56 Terrasse 11.00 10.76 99.90
25856 2020-05-11 06:05:44 Terrasse 11.50 11.31 99.90
25855 2020-05-11 05:37:29 Terrasse 11.80 11.64 99.90
25854 2020-05-11 05:09:16 Terrasse 12.40 12.30 99.90
25853 2020-05-11 04:41:03 Terrasse 12.60 12.52 99.90
25852 2020-05-11 04:12:48 Terrasse 13.10 13.07 99.90
25851 2020-05-11 03:44:35 Terrasse 13.90 13.95 99.90
25850 2020-05-11 03:16:21 Terrasse 14.50 14.61 99.90
25849 2020-05-11 02:48:08 Terrasse 15.20 15.38 99.90
25848 2020-05-11 02:19:52 Terrasse 15.60 15.82 99.90
25847 2020-05-11 01:51:34 Terrasse 15.80 16.04 99.90
25846 2020-05-11 01:23:16 Terrasse 15.80 16.04 99.90
25845 2020-05-11 00:55:06 Terrasse 15.60 15.82 99.90
25844 2020-05-11 00:26:46 Terrasse 15.70 15.93 99.90
25843 2020-05-10 23:58:30 Terrasse 15.90 16.15 99.90
25842 2020-05-10 23:30:13 Terrasse 16.00 16.26 99.90
25841 2020-05-10 23:01:57 Terrasse 16.40 16.70 99.90
25840 2020-05-10 22:33:39 Terrasse 16.70 17.03 99.90
25839 2020-05-10 22:05:24 Terrasse 17.10 17.47 99.90
25838 2020-05-10 21:37:08 Terrasse 17.50 17.91 99.90
25837 2020-05-10 21:08:53 Terrasse 18.00 18.46 99.90
25836 2020-05-10 20:40:39 Terrasse 18.80 19.34 99.90
25835 2020-05-10 20:12:24 Terrasse 19.70 20.33 99.90
25834 2020-05-10 18:23:38 Terrasse 21.50 22.15 93.60
25833 2020-05-10 17:55:27 Terrasse 23.00 23.24 72.20
25832 2020-05-10 17:27:16 Terrasse 24.10 24.24 64.10
25831 2020-05-10 16:59:00 Terrasse 24.60 24.76 63.00
25830 2020-05-10 16:30:42 Terrasse 24.70 24.91 64.70
25829 2020-05-10 16:02:23 Terrasse 24.60 24.78 63.90
25828 2020-05-10 15:34:09 Terrasse 25.20 25.42 63.10
25827 2020-05-10 15:05:52 Terrasse 25.30 25.56 64.00
25826 2020-05-10 14:37:39 Terrasse 25.60 25.86 63.10
25825 2020-05-10 14:09:24 Terrasse 25.40 25.68 64.70
25824 2020-05-10 13:41:01 Terrasse 24.30 24.58 68.80
25823 2020-05-10 13:12:35 Terrasse 23.60 23.98 75.30
25822 2020-05-10 12:43:51 Terrasse 20.50 21.13 96.80
25821 2020-05-10 12:15:18 Terrasse 17.40 17.80 99.90
25820 2020-05-10 11:47:02 Terrasse 17.30 17.69 99.90
25819 2020-05-10 11:18:44 Terrasse 17.20 17.58 99.90
25818 2020-05-10 10:50:25 Terrasse 17.10 17.47 99.90
25817 2020-05-10 10:22:02 Terrasse 16.30 16.59 99.90
25816 2020-05-10 09:53:46 Terrasse 16.30 16.59 99.90
25815 2020-05-10 09:25:19 Terrasse 15.40 15.60 99.90
25814 2020-05-10 08:57:02 Terrasse 15.00 15.16 99.90
25813 2020-05-10 08:28:44 Terrasse 15.00 15.16 99.90
25812 2020-05-10 08:00:27 Terrasse 15.00 15.16 99.90
25811 2020-05-10 07:32:08 Terrasse 14.60 14.72 99.90
25810 2020-05-10 07:03:50 Terrasse 14.20 14.28 99.90
25809 2020-05-10 06:35:32 Terrasse 14.00 14.06 99.90
25808 2020-05-10 06:07:16 Terrasse 14.00 14.06 99.90
25807 2020-05-10 05:39:00 Terrasse 13.90 13.95 99.90
25806 2020-05-10 05:10:43 Terrasse 13.80 13.84 99.90
25805 2020-05-10 04:42:28 Terrasse 13.90 13.95 99.90
25804 2020-05-10 04:14:14 Terrasse 14.00 14.06 99.90
25803 2020-05-10 03:45:58 Terrasse 14.10 14.17 99.90
25802 2020-05-10 03:17:42 Terrasse 14.20 14.28 99.90
25801 2020-05-10 02:49:27 Terrasse 14.20 14.28 99.90
25800 2020-05-10 02:21:12 Terrasse 14.40 14.50 99.90
25799 2020-05-10 01:52:57 Terrasse 14.70 14.83 99.90
25798 2020-05-10 01:24:40 Terrasse 14.70 14.83 99.90
25797 2020-05-10 00:56:24 Terrasse 14.40 14.50 99.90
25796 2020-05-10 00:28:09 Terrasse 14.60 14.72 99.90
25795 2020-05-09 23:59:52 Terrasse 14.80 14.94 99.90
25794 2020-05-09 23:31:36 Terrasse 14.90 15.05 99.90
25793 2020-05-09 23:03:20 Terrasse 15.10 15.27 99.90
25792 2020-05-09 22:35:06 Terrasse 15.50 15.71 99.90
25791 2020-05-09 22:06:51 Terrasse 15.90 16.15 99.90
25790 2020-05-09 21:38:35 Terrasse 16.10 16.37 99.90
25789 2020-05-09 21:10:21 Terrasse 16.30 16.59 99.90
25788 2020-05-09 20:42:36 Terrasse 16.50 16.81 99.90
25787 2020-05-09 20:14:06 Terrasse 17.00 17.36 99.90
25786 2020-05-09 19:45:50 Terrasse 17.40 17.80 99.90
25785 2020-05-09 19:17:35 Terrasse 17.60 18.02 99.90
25784 2020-05-09 18:49:17 Terrasse 17.70 18.13 99.90
25783 2020-05-09 18:20:59 Terrasse 17.70 18.13 99.90
25782 2020-05-09 17:52:40 Terrasse 17.50 17.91 99.90
25781 2020-05-09 17:24:24 Terrasse 17.60 18.02 99.90
25780 2020-05-09 16:56:05 Terrasse 17.60 18.02 99.90
25779 2020-05-09 16:27:47 Terrasse 17.70 18.13 99.90
25778 2020-05-09 15:59:31 Terrasse 17.70 18.13 99.90
25777 2020-05-09 15:31:14 Terrasse 18.00 18.46 99.90
25776 2020-05-09 15:02:58 Terrasse 18.10 18.57 99.90
25775 2020-05-09 14:34:43 Terrasse 18.30 18.66 94.80
25774 2020-05-09 14:06:47 Terrasse 18.30 18.66 94.70
25773 2020-05-09 13:38:19 Terrasse 17.80 17.99 90.00
25772 2020-05-09 13:10:23 Terrasse 18.10 17.72 67.20
25771 2020-05-09 12:41:57 Terrasse 18.00 17.39 58.70
25770 2020-05-09 12:13:44 Terrasse 18.70 17.96 51.00
25769 2020-05-09 11:45:38 Terrasse 18.80 18.01 49.00
25768 2020-05-09 11:17:14 Terrasse 18.40 17.60 50.10
25767 2020-05-09 10:49:00 Terrasse 18.60 17.77 48.10
25766 2020-05-09 10:20:37 Terrasse 18.20 17.35 49.00
25765 2020-05-09 09:52:16 Terrasse 17.40 16.45 48.20
25764 2020-05-09 09:23:59 Terrasse 17.00 15.97 46.70
25763 2020-05-09 08:55:43 Terrasse 16.80 15.80 48.60
25762 2020-05-09 08:27:44 Terrasse 16.60 15.56 47.70
25761 2020-05-09 07:59:39 Terrasse 16.50 15.46 48.20
25760 2020-05-09 07:31:14 Terrasse 16.50 15.41 46.20
25759 2020-05-09 07:02:57 Terrasse 16.10 14.99 46.90
25758 2020-05-09 06:34:39 Terrasse 16.00 14.88 46.80
25757 2020-05-09 06:06:24 Terrasse 15.90 14.75 46.00
25756 2020-05-09 05:38:07 Terrasse 15.90 14.73 45.50
25755 2020-05-09 05:09:50 Terrasse 16.00 14.83 45.00
25754 2020-05-09 04:41:35 Terrasse 16.20 15.05 44.80
25753 2020-05-09 04:13:20 Terrasse 16.40 15.25 44.20
25752 2020-05-09 03:45:05 Terrasse 16.70 15.59 44.60
25751 2020-05-09 03:16:50 Terrasse 17.10 16.03 44.70
25750 2020-05-09 02:48:34 Terrasse 17.10 16.03 44.60
25749 2020-05-09 02:20:18 Terrasse 17.30 16.23 43.70
25748 2020-05-09 01:52:00 Terrasse 17.40 16.33 43.60
25747 2020-05-09 01:23:42 Terrasse 17.40 16.34 44.00
25746 2020-05-09 00:55:26 Terrasse 17.40 16.38 45.50
25745 2020-05-09 00:27:11 Terrasse 17.60 16.65 47.10
25744 2020-05-08 23:58:54 Terrasse 17.80 16.83 45.90
25743 2020-05-08 23:30:38 Terrasse 18.10 17.19 47.00
25742 2020-05-08 23:02:23 Terrasse 18.40 17.53 47.40
25741 2020-05-08 22:34:08 Terrasse 18.60 17.75 47.30
25740 2020-05-08 22:05:54 Terrasse 19.10 18.28 46.40
25739 2020-05-08 21:37:41 Terrasse 19.70 18.94 46.40
25738 2020-05-08 21:09:27 Terrasse 20.30 19.61 47.00
25737 2020-05-08 20:41:14 Terrasse 21.20 20.59 46.40
25736 2020-05-08 20:13:01 Terrasse 22.20 21.57 42.00
25735 2020-05-08 19:44:48 Terrasse 22.70 22.12 42.10
25734 2020-05-08 19:16:34 Terrasse 23.20 22.70 42.90
25733 2020-05-08 18:48:18 Terrasse 23.60 23.07 40.40
25732 2020-05-08 18:20:03 Terrasse 24.10 23.66 42.10
25731 2020-05-08 17:51:46 Terrasse 24.50 24.12 42.80
25730 2020-05-08 17:23:32 Terrasse 25.00 24.66 42.40
25729 2020-05-08 16:55:16 Terrasse 25.10 24.77 42.20
25728 2020-05-08 16:26:57 Terrasse 25.40 25.10 42.20
25727 2020-05-08 15:58:41 Terrasse 25.60 25.30 41.50
25726 2020-05-08 15:30:30 Terrasse 26.50 26.50 39.70
25725 2020-05-08 15:02:19 Terrasse 27.90 27.49 38.60
25724 2020-05-08 14:34:08 Terrasse 27.40 27.11 39.00
25723 2020-05-08 14:05:50 Terrasse 28.00 27.56 38.50
25722 2020-05-08 13:37:39 Terrasse 28.00 27.64 39.60
25721 2020-05-08 13:09:13 Terrasse 27.70 27.36 39.20
25720 2020-05-08 12:40:33 Terrasse 25.20 24.89 42.50
25719 2020-05-08 12:12:23 Terrasse 24.60 24.27 44.10
25718 2020-05-08 11:44:02 Terrasse 23.80 23.41 44.80
25717 2020-05-08 11:15:38 Terrasse 22.40 21.90 46.10
25716 2020-05-08 10:47:18 Terrasse 20.40 19.78 49.30
25715 2020-05-08 10:19:08 Terrasse 18.70 17.95 50.90
25714 2020-05-08 09:50:42 Terrasse 17.40 16.62 54.60
25713 2020-05-08 09:22:15 Terrasse 16.20 15.23 51.90
25712 2020-05-08 08:53:51 Terrasse 15.40 14.43 54.90
25711 2020-05-08 08:25:28 Terrasse 14.40 13.38 56.80
25710 2020-05-08 07:57:20 Terrasse 13.80 12.80 59.90
25709 2020-05-08 07:28:58 Terrasse 13.30 12.25 59.90
25708 2020-05-08 07:00:42 Terrasse 13.30 12.17 56.70
25707 2020-05-08 06:32:25 Terrasse 13.30 12.12 55.10
25706 2020-05-08 06:04:10 Terrasse 13.30 12.11 54.40
25705 2020-05-08 05:35:54 Terrasse 13.40 12.15 51.80
25704 2020-05-08 05:07:39 Terrasse 13.50 12.26 51.70
25703 2020-05-08 04:39:25 Terrasse 13.70 12.46 51.30
25702 2020-05-08 04:11:08 Terrasse 13.80 12.56 50.70
25701 2020-05-08 03:42:51 Terrasse 13.90 12.67 50.90
25700 2020-05-08 03:14:35 Terrasse 14.10 12.88 50.40
25699 2020-05-08 02:46:20 Terrasse 14.30 13.12 51.00
25698 2020-05-08 02:18:04 Terrasse 14.40 13.22 50.70
25697 2020-05-08 01:49:50 Terrasse 14.70 13.53 49.90
25696 2020-05-08 01:21:34 Terrasse 14.80 13.67 51.10
25695 2020-05-08 00:53:19 Terrasse 15.10 13.99 50.60
25694 2020-05-08 00:25:03 Terrasse 15.30 14.19 50.10
25693 2020-05-07 23:56:49 Terrasse 15.60 14.51 49.50
25692 2020-05-07 23:28:35 Terrasse 15.80 14.70 48.50
25691 2020-05-07 23:00:21 Terrasse 16.20 15.16 49.10
25690 2020-05-07 22:32:06 Terrasse 16.50 15.48 48.80
25689 2020-05-07 22:03:53 Terrasse 16.80 15.81 48.80
25688 2020-05-07 21:35:54 Terrasse 17.40 16.49 49.40
25687 2020-05-07 21:07:45 Terrasse 18.30 17.42 47.40
25686 2020-05-07 20:39:30 Terrasse 19.10 18.29 47.00
25685 2020-05-07 20:11:19 Terrasse 20.20 19.35 41.30
25684 2020-05-07 19:43:05 Terrasse 20.60 19.77 40.50
25683 2020-05-07 19:14:50 Terrasse 21.20 20.39 38.70
25682 2020-05-07 18:46:35 Terrasse 21.70 20.92 38.20
25681 2020-05-07 18:18:18 Terrasse 22.00 21.26 38.60
25680 2020-05-07 17:50:04 Terrasse 22.40 21.69 38.00
25679 2020-05-07 17:21:49 Terrasse 22.80 22.13 38.00
25678 2020-05-07 16:53:33 Terrasse 22.90 22.19 36.20
25677 2020-05-07 16:25:29 Terrasse 23.30 22.64 36.40
25676 2020-05-07 15:57:12 Terrasse 23.80 23.18 36.00
25675 2020-05-07 15:28:57 Terrasse 24.30 23.76 37.50
25674 2020-05-07 15:01:00 Terrasse 24.80 24.30 37.00
25673 2020-05-07 14:32:37 Terrasse 25.60 25.10 34.00
25672 2020-05-07 14:04:19 Terrasse 25.40 24.90 34.80
25671 2020-05-07 13:36:07 Terrasse 25.30 24.83 36.20
25670 2020-05-07 13:07:42 Terrasse 24.90 24.43 37.70
25669 2020-05-07 12:38:57 Terrasse 21.90 21.22 41.10
25668 2020-05-07 12:10:46 Terrasse 21.20 20.47 42.10
25667 2020-05-07 11:42:26 Terrasse 20.30 19.48 42.00
25666 2020-05-07 11:14:02 Terrasse 19.20 18.32 44.00
25665 2020-05-07 10:45:23 Terrasse 17.00 15.95 45.60
25664 2020-05-07 10:17:01 Terrasse 15.40 14.26 48.50
25663 2020-05-07 09:48:33 Terrasse 14.10 12.89 50.70
25662 2020-05-07 09:20:09 Terrasse 12.90 11.65 53.90
25661 2020-05-07 08:52:05 Terrasse 11.70 10.40 56.50
25660 2020-05-07 08:23:34 Terrasse 10.40 9.04 59.10
25659 2020-05-07 07:55:17 Terrasse 9.70 8.40 64.00
25658 2020-05-07 06:54:31 Terrasse 8.60 7.16 63.10
25657 2020-05-07 06:26:14 Terrasse 8.70 7.23 61.50
25656 2020-05-07 05:58:00 Terrasse 8.70 7.17 59.00
25655 2020-05-07 05:29:47 Terrasse 8.90 7.38 58.70
25654 2020-05-07 05:01:33 Terrasse 9.10 7.56 57.30
25653 2020-05-07 04:33:20 Terrasse 9.60 8.05 55.00
25652 2020-05-07 04:05:07 Terrasse 9.80 8.26 54.60
25651 2020-05-07 03:36:52 Terrasse 10.00 8.45 53.40
25650 2020-05-07 02:40:33 Terrasse 10.60 9.05 51.20
25649 2020-05-07 02:12:18 Terrasse 10.90 9.36 50.50
25648 2020-05-07 01:44:04 Terrasse 11.00 9.45 49.40
25647 2020-05-07 01:15:49 Terrasse 11.20 9.70 50.80
25646 2020-05-07 00:47:34 Terrasse 11.40 9.88 49.20
25645 2020-05-07 00:19:19 Terrasse 11.70 10.18 48.10
25644 2020-05-06 23:51:04 Terrasse 11.90 10.36 46.40
25643 2020-05-06 23:22:50 Terrasse 12.10 10.61 47.50
25642 2020-05-06 22:54:37 Terrasse 12.50 10.99 45.50
25641 2020-05-06 22:26:23 Terrasse 12.80 11.31 45.00
25640 2020-05-06 21:58:09 Terrasse 13.30 11.87 45.50
25639 2020-05-06 21:29:55 Terrasse 13.80 12.41 44.90
25638 2020-05-06 21:01:44 Terrasse 14.60 13.29 44.80
25637 2020-05-06 20:33:33 Terrasse 15.70 14.45 42.90
25636 2020-05-06 20:05:21 Terrasse 16.60 15.39 41.30
25635 2020-05-06 19:37:06 Terrasse 17.20 15.95 37.30
25634 2020-05-06 19:08:53 Terrasse 17.70 16.49 37.00
25633 2020-05-06 18:40:39 Terrasse 18.50 17.41 38.50
25632 2020-05-06 18:12:25 Terrasse 19.00 17.98 39.40
25631 2020-05-06 17:44:11 Terrasse 19.60 18.59 37.40
25630 2020-05-06 17:15:54 Terrasse 20.10 19.14 37.40
25629 2020-05-06 16:47:39 Terrasse 20.50 19.57 36.80
25628 2020-05-06 16:19:26 Terrasse 20.90 20.05 38.40
25627 2020-05-06 15:51:10 Terrasse 21.20 20.38 38.60
25626 2020-05-06 15:22:57 Terrasse 21.80 20.97 35.90
25625 2020-05-06 14:54:42 Terrasse 22.30 21.55 36.90
25624 2020-05-06 14:26:23 Terrasse 22.80 22.12 37.60
25623 2020-05-06 13:58:07 Terrasse 23.00 22.32 37.00
25622 2020-05-06 13:29:59 Terrasse 22.90 22.22 37.30
25621 2020-05-06 13:01:39 Terrasse 22.70 22.06 39.60
25620 2020-05-06 12:33:00 Terrasse 19.50 18.54 39.70
25619 2020-05-06 12:04:49 Terrasse 19.20 18.20 39.30
25618 2020-05-06 11:36:29 Terrasse 18.50 17.44 39.60
25617 2020-05-06 11:08:22 Terrasse 16.90 15.79 43.90
25616 2020-05-06 10:39:28 Terrasse 14.70 13.40 44.90
25615 2020-05-06 10:11:12 Terrasse 13.10 11.63 44.60
25614 2020-05-06 09:42:45 Terrasse 12.00 10.44 45.40
25613 2020-05-06 09:14:44 Terrasse 11.10 9.51 47.70
25612 2020-05-06 08:46:14 Terrasse 10.10 8.44 48.70
25611 2020-05-06 08:18:13 Terrasse 9.00 7.29 51.10
25610 2020-05-06 07:49:52 Terrasse 8.30 6.56 52.60
25609 2020-05-06 07:21:30 Terrasse 7.50 5.78 56.30
25608 2020-05-06 06:53:15 Terrasse 7.20 5.43 55.60
25607 2020-05-06 06:25:20 Terrasse 7.30 5.49 53.70
25606 2020-05-06 05:56:58 Terrasse 7.50 5.67 52.40
25605 2020-05-06 05:28:45 Terrasse 7.60 5.76 51.60
25604 2020-05-06 05:00:33 Terrasse 8.00 6.20 51.40
25603 2020-05-06 04:32:20 Terrasse 8.50 6.68 49.00
25602 2020-05-06 04:04:07 Terrasse 8.70 6.89 48.30
25601 2020-05-06 03:35:52 Terrasse 8.90 7.11 48.50
25600 2020-05-06 03:07:39 Terrasse 8.90 7.11 48.60
25599 2020-05-06 02:39:24 Terrasse 9.00 7.22 48.60
25598 2020-05-06 02:11:12 Terrasse 9.20 7.45 48.70
25597 2020-05-06 01:42:59 Terrasse 9.40 7.65 48.20
25596 2020-05-06 01:14:57 Terrasse 9.60 7.88 48.50
25595 2020-05-06 00:47:01 Terrasse 10.20 8.45 45.10
25594 2020-05-06 00:18:39 Terrasse 10.30 8.58 45.60
25593 2020-05-05 23:50:27 Terrasse 10.70 8.99 44.60
25592 2020-05-05 23:22:24 Terrasse 11.00 9.31 44.20
25591 2020-05-05 22:54:05 Terrasse 11.10 9.43 44.60
25590 2020-05-05 22:26:04 Terrasse 11.40 9.75 44.20
25589 2020-05-05 21:57:45 Terrasse 11.80 10.19 44.20
25588 2020-05-05 21:29:32 Terrasse 12.30 10.75 44.60
25587 2020-05-05 21:01:31 Terrasse 12.80 11.29 44.40
25586 2020-05-05 20:33:26 Terrasse 13.60 12.16 43.80
25585 2020-05-05 20:05:12 Terrasse 14.40 12.97 41.30
25584 2020-05-05 19:37:00 Terrasse 15.10 13.71 40.10
25583 2020-05-05 19:08:48 Terrasse 16.10 14.74 37.50
25582 2020-05-05 18:40:34 Terrasse 16.60 15.32 38.60
25581 2020-05-05 18:12:21 Terrasse 17.40 16.20 38.40
25580 2020-05-05 17:44:07 Terrasse 17.90 16.71 37.10
25579 2020-05-05 17:15:52 Terrasse 18.40 17.30 38.30
25578 2020-05-05 16:48:05 Terrasse 19.00 17.98 39.10
25577 2020-05-05 16:19:39 Terrasse 19.50 18.47 36.80
25576 2020-05-05 15:51:45 Terrasse 19.80 18.84 38.50
25575 2020-05-05 15:23:26 Terrasse 20.40 19.47 37.50
25574 2020-05-05 14:55:08 Terrasse 20.60 19.74 39.40
25573 2020-05-05 14:27:08 Terrasse 21.20 20.44 40.60
25572 2020-05-05 13:58:44 Terrasse 20.80 20.03 42.10
25571 2020-05-05 13:30:30 Terrasse 20.60 19.90 45.20
25570 2020-05-05 13:02:03 Terrasse 19.60 18.87 48.20
25569 2020-05-05 12:33:34 Terrasse 18.40 17.60 50.00
25568 2020-05-05 12:05:26 Terrasse 17.40 16.58 53.00
25567 2020-05-05 11:37:08 Terrasse 16.90 16.17 58.20
25566 2020-05-05 11:08:45 Terrasse 15.90 15.11 60.10
25565 2020-05-05 10:40:11 Terrasse 14.10 13.23 63.80
25564 2020-05-05 10:12:12 Terrasse 12.90 12.02 67.90
25563 2020-05-05 09:43:38 Terrasse 11.60 10.68 71.40
25562 2020-05-05 09:15:13 Terrasse 10.60 9.73 77.10
25561 2020-05-05 08:46:53 Terrasse 9.90 9.16 84.90
25560 2020-05-05 08:18:35 Terrasse 9.40 8.77 91.10
25559 2020-05-05 07:50:28 Terrasse 8.80 8.25 96.40
25558 2020-05-05 07:22:05 Terrasse 8.30 7.77 98.80
25557 2020-05-05 06:53:49 Terrasse 7.80 7.24 99.90
25556 2020-05-05 06:25:34 Terrasse 7.70 7.13 99.90
25555 2020-05-05 05:57:20 Terrasse 7.70 7.13 99.90
25554 2020-05-05 05:29:06 Terrasse 7.90 7.35 99.90
25553 2020-05-05 05:00:55 Terrasse 8.10 7.57 99.90
25552 2020-05-05 04:33:06 Terrasse 8.10 7.57 99.90
25551 2020-05-05 04:04:40 Terrasse 8.30 7.79 99.90
25550 2020-05-05 03:36:25 Terrasse 8.30 7.79 99.90
25549 2020-05-05 03:08:11 Terrasse 8.20 7.68 99.90
25548 2020-05-05 02:39:57 Terrasse 8.50 8.01 99.90
25547 2020-05-05 02:11:44 Terrasse 8.60 8.12 99.90
25546 2020-05-05 01:43:31 Terrasse 8.90 8.45 99.90
25545 2020-05-05 01:15:16 Terrasse 9.00 8.56 99.90
25544 2020-05-05 00:47:03 Terrasse 9.00 8.56 99.90
25543 2020-05-05 00:18:50 Terrasse 9.40 9.00 99.90
25542 2020-05-04 23:50:48 Terrasse 9.80 9.44 99.90
25541 2020-05-04 23:22:32 Terrasse 10.10 9.77 99.90
25540 2020-05-04 22:54:39 Terrasse 10.70 10.43 99.90
25539 2020-05-04 22:26:43 Terrasse 11.00 10.76 99.90
25538 2020-05-04 21:58:29 Terrasse 11.30 11.09 99.90
25537 2020-05-04 21:30:11 Terrasse 11.60 11.42 99.90
25536 2020-05-04 21:01:59 Terrasse 12.10 11.97 99.90
25535 2020-05-04 20:33:46 Terrasse 12.50 12.41 99.90
25534 2020-05-04 20:05:33 Terrasse 12.90 12.78 97.00
25533 2020-05-04 19:37:38 Terrasse 13.20 13.18 99.90
25532 2020-05-04 19:09:15 Terrasse 13.40 13.36 98.10
25531 2020-05-04 18:41:01 Terrasse 13.70 13.73 99.90
25530 2020-05-04 18:13:05 Terrasse 13.80 13.83 99.30
25529 2020-05-04 17:44:47 Terrasse 14.10 14.17 99.90
25528 2020-05-04 17:16:33 Terrasse 14.40 14.50 99.90
25527 2020-05-04 16:48:18 Terrasse 14.60 14.72 99.90
25526 2020-05-04 16:20:06 Terrasse 15.30 15.49 99.90
25525 2020-05-04 15:51:49 Terrasse 15.80 16.04 99.90
25524 2020-05-04 15:23:34 Terrasse 15.60 15.82 99.90
25523 2020-05-04 14:55:17 Terrasse 15.50 15.71 99.90
25522 2020-05-04 14:27:04 Terrasse 15.70 15.93 99.90
25521 2020-05-04 13:31:05 Terrasse 15.60 15.82 99.90
25520 2020-05-04 13:02:45 Terrasse 15.90 16.15 99.90
25519 2020-05-04 12:34:23 Terrasse 15.20 15.38 99.90
25518 2020-05-04 12:06:05 Terrasse 14.90 15.05 99.90
25517 2020-05-04 11:37:42 Terrasse 13.90 13.95 99.90
25516 2020-05-04 11:09:40 Terrasse 14.10 14.17 99.90
25515 2020-05-04 10:41:15 Terrasse 13.50 13.51 99.90
25514 2020-05-04 10:13:01 Terrasse 13.80 13.84 99.90
25513 2020-05-04 09:44:49 Terrasse 14.20 14.00 89.00
25512 2020-05-04 09:16:30 Terrasse 14.30 14.08 87.70
25511 2020-05-04 08:48:08 Terrasse 13.50 13.31 91.90
25510 2020-05-04 08:19:45 Terrasse 12.40 12.27 98.50
25509 2020-05-04 07:51:40 Terrasse 12.20 12.08 99.90
25508 2020-05-04 07:23:18 Terrasse 11.80 11.64 99.90
25507 2020-05-04 06:55:02 Terrasse 11.70 11.53 99.90
25506 2020-05-04 06:26:47 Terrasse 11.60 11.42 99.90
25505 2020-05-04 05:58:31 Terrasse 11.60 11.42 99.90
25504 2020-05-04 05:30:17 Terrasse 11.60 11.39 98.60
25503 2020-05-04 05:02:01 Terrasse 11.80 11.53 95.50
25502 2020-05-04 04:33:45 Terrasse 11.80 11.54 96.00
25501 2020-05-04 04:05:32 Terrasse 12.00 11.79 97.20
25500 2020-05-04 03:37:17 Terrasse 12.10 11.87 95.90
25499 2020-05-04 03:09:02 Terrasse 12.20 11.88 92.20
25498 2020-05-04 02:40:47 Terrasse 12.40 12.16 94.30
25497 2020-05-04 02:12:32 Terrasse 12.40 12.07 91.10
25496 2020-05-04 01:44:18 Terrasse 12.50 12.16 90.00
25495 2020-05-04 01:16:04 Terrasse 12.60 12.12 84.40
25494 2020-05-04 00:47:48 Terrasse 12.60 12.22 88.40
25493 2020-05-04 00:19:33 Terrasse 12.70 12.06 78.00
25492 2020-05-03 23:51:19 Terrasse 12.70 12.03 76.60
25491 2020-05-03 23:23:05 Terrasse 13.00 12.32 75.20
25490 2020-05-03 22:54:50 Terrasse 13.00 12.26 72.80
25489 2020-05-03 22:26:35 Terrasse 13.30 12.52 70.10
25488 2020-05-03 21:58:26 Terrasse 13.60 12.77 67.30
25487 2020-05-03 21:30:11 Terrasse 14.10 13.33 67.50
25486 2020-05-03 21:01:58 Terrasse 14.50 13.77 67.60
25485 2020-05-03 20:33:45 Terrasse 15.10 14.24 60.40
25484 2020-05-03 20:05:31 Terrasse 15.60 14.67 55.60
25483 2020-05-03 19:37:28 Terrasse 16.10 15.15 53.10
25482 2020-05-03 19:09:30 Terrasse 16.50 15.56 51.80
25481 2020-05-03 18:41:08 Terrasse 16.90 16.01 52.20
25480 2020-05-03 18:12:54 Terrasse 17.40 16.54 51.40
25479 2020-05-03 17:44:38 Terrasse 17.70 16.87 51.50
25478 2020-05-03 17:16:23 Terrasse 17.80 16.97 51.30
25477 2020-05-03 16:48:18 Terrasse 18.00 17.22 52.20
25476 2020-05-03 16:19:56 Terrasse 17.90 17.08 51.00
25475 2020-05-03 15:51:42 Terrasse 18.00 17.22 52.10
25474 2020-05-03 15:23:27 Terrasse 18.30 17.55 52.30
25473 2020-05-03 14:55:25 Terrasse 19.50 18.84 51.20
25472 2020-05-03 14:27:04 Terrasse 19.50 18.80 49.60
25471 2020-05-03 13:58:33 Terrasse 18.00 17.28 54.40
25470 2020-05-03 13:30:45 Terrasse 19.00 18.44 56.90
25469 2020-05-03 13:02:33 Terrasse 17.60 16.96 59.10
25468 2020-05-03 12:34:03 Terrasse 16.60 15.87 59.70
25467 2020-05-03 12:06:04 Terrasse 16.80 16.19 63.40
25466 2020-05-03 11:37:35 Terrasse 16.30 15.78 68.60
25465 2020-05-03 11:09:00 Terrasse 14.60 14.24 81.30
25464 2020-05-03 10:40:37 Terrasse 14.00 13.83 90.90
25463 2020-05-03 10:12:12 Terrasse 12.60 12.52 99.90
25462 2020-05-03 09:43:47 Terrasse 11.20 10.98 99.90
25461 2020-05-03 09:15:26 Terrasse 10.20 9.88 99.90
25460 2020-05-03 08:47:01 Terrasse 9.00 8.56 99.90
25459 2020-05-03 08:18:39 Terrasse 7.90 7.35 99.90
25458 2020-05-03 07:50:19 Terrasse 7.10 6.47 99.90
25457 2020-05-03 07:22:04 Terrasse 6.80 6.14 99.90
25456 2020-05-03 06:53:49 Terrasse 6.50 5.81 99.90
25455 2020-05-03 06:25:33 Terrasse 6.30 5.59 99.90
25454 2020-05-03 05:57:19 Terrasse 6.50 5.81 99.90
25453 2020-05-03 05:29:05 Terrasse 6.50 5.81 99.90
25452 2020-05-03 05:00:52 Terrasse 6.70 6.03 99.90
25451 2020-05-03 04:32:38 Terrasse 6.80 6.14 99.90
25450 2020-05-03 04:04:25 Terrasse 6.90 6.25 99.90
25449 2020-05-03 03:36:12 Terrasse 7.00 6.36 99.90
25448 2020-05-03 03:07:59 Terrasse 7.20 6.58 99.90
25447 2020-05-03 02:39:46 Terrasse 7.50 6.91 99.90
25446 2020-05-03 02:11:32 Terrasse 7.70 7.13 99.90
25445 2020-05-03 01:43:20 Terrasse 8.00 7.46 99.90
25444 2020-05-03 01:15:06 Terrasse 8.50 8.01 99.90
25443 2020-05-03 00:46:51 Terrasse 8.50 8.01 99.90
25442 2020-05-03 00:18:37 Terrasse 8.50 8.01 99.90
25441 2020-05-02 23:50:26 Terrasse 8.80 8.34 99.90
25440 2020-05-02 23:22:13 Terrasse 9.00 8.56 99.90
25439 2020-05-02 22:53:58 Terrasse 9.30 8.89 99.90
25438 2020-05-02 22:25:44 Terrasse 9.50 9.11 99.90
25437 2020-05-02 21:57:30 Terrasse 9.60 9.22 99.90
25436 2020-05-02 21:29:16 Terrasse 9.70 9.33 99.90
25435 2020-05-02 21:01:02 Terrasse 9.80 9.44 99.90
25434 2020-05-02 20:32:47 Terrasse 10.00 9.66 99.90
25433 2020-05-02 20:04:53 Terrasse 10.50 10.21 99.90
25432 2020-05-02 19:36:58 Terrasse 11.20 10.98 99.90
25431 2020-05-02 19:08:40 Terrasse 11.90 11.75 99.90
25430 2020-05-02 18:40:28 Terrasse 12.60 12.33 92.40
25429 2020-05-02 18:12:13 Terrasse 12.80 12.69 97.80
25428 2020-05-02 17:44:28 Terrasse 12.80 12.74 99.70
25427 2020-05-02 17:16:17 Terrasse 12.80 12.74 99.90
25426 2020-05-02 16:48:10 Terrasse 12.30 12.19 99.90
25425 2020-05-02 16:19:37 Terrasse 10.50 10.21 99.90
25424 2020-05-02 15:51:31 Terrasse 11.70 11.49 98.30
25423 2020-05-02 15:23:38 Terrasse 13.70 13.03 72.90
25422 2020-05-02 14:55:18 Terrasse 14.60 14.03 73.30
25421 2020-05-02 14:26:56 Terrasse 14.00 13.61 82.70
25420 2020-05-02 13:58:41 Terrasse 15.20 15.04 86.90
25419 2020-05-02 13:30:05 Terrasse 11.10 10.87 99.90
25418 2020-05-02 13:01:36 Terrasse 10.30 9.99 99.90
25417 2020-05-02 12:33:19 Terrasse 10.00 9.66 99.90
25416 2020-05-02 12:05:26 Terrasse 10.10 9.77 99.90
25415 2020-05-02 11:37:20 Terrasse 12.00 11.69 93.30
25414 2020-05-02 11:09:22 Terrasse 13.90 13.54 84.00
25413 2020-05-02 10:40:52 Terrasse 12.20 12.01 96.90
25412 2020-05-02 10:12:30 Terrasse 11.00 10.76 99.90
25411 2020-05-02 09:44:08 Terrasse 10.10 9.77 99.90
25410 2020-05-02 09:15:49 Terrasse 9.30 8.89 99.90
25409 2020-05-02 08:47:32 Terrasse 8.90 8.45 99.90
25408 2020-05-02 08:19:18 Terrasse 8.50 8.01 99.90
25407 2020-05-02 07:51:04 Terrasse 8.30 7.79 99.90
25406 2020-05-02 07:22:49 Terrasse 7.90 7.35 99.90
25405 2020-05-02 06:54:33 Terrasse 7.80 7.24 99.90
25404 2020-05-02 06:26:18 Terrasse 8.00 7.46 99.90
25403 2020-05-02 05:58:10 Terrasse 8.10 7.57 99.90
25402 2020-05-02 05:30:24 Terrasse 8.10 7.57 99.90
25401 2020-05-02 05:01:37 Terrasse 7.90 7.35 99.90
25400 2020-05-02 04:33:21 Terrasse 8.00 7.46 99.90
25399 2020-05-02 04:05:05 Terrasse 7.90 7.35 99.90
25398 2020-05-02 03:36:49 Terrasse 8.10 7.57 99.90
25397 2020-05-02 03:08:35 Terrasse 8.30 7.79 99.90
25396 2020-05-02 02:40:21 Terrasse 8.50 8.01 99.90
25395 2020-05-02 02:12:05 Terrasse 8.60 8.12 99.90
25394 2020-05-02 01:43:51 Terrasse 8.70 8.23 99.90
25393 2020-05-02 01:15:36 Terrasse 8.80 8.34 99.90
25392 2020-05-02 00:47:19 Terrasse 8.80 8.34 99.90
25391 2020-05-02 00:19:03 Terrasse 8.60 8.12 99.90
25390 2020-05-01 23:50:49 Terrasse 9.00 8.56 99.90
25389 2020-05-01 23:22:37 Terrasse 9.30 8.89 99.90
25388 2020-05-01 22:54:22 Terrasse 9.60 9.22 99.90
25387 2020-05-01 22:26:07 Terrasse 9.60 9.22 99.90
25386 2020-05-01 21:57:54 Terrasse 9.70 9.33 99.90
25385 2020-05-01 21:29:43 Terrasse 10.10 9.77 99.90
25384 2020-05-01 21:01:32 Terrasse 10.60 10.32 99.90
25383 2020-05-01 20:33:22 Terrasse 11.10 10.87 99.90
25382 2020-05-01 20:05:10 Terrasse 11.60 11.42 99.90
25381 2020-05-01 19:36:59 Terrasse 12.40 12.30 99.90
25380 2020-05-01 19:08:48 Terrasse 13.30 12.95 86.80
25379 2020-05-01 18:40:32 Terrasse 13.70 13.22 80.30
25378 2020-05-01 18:12:19 Terrasse 14.20 13.73 78.60
25377 2020-05-01 17:44:03 Terrasse 13.90 13.73 91.50
25376 2020-05-01 17:16:03 Terrasse 14.60 13.91 68.80
25375 2020-05-01 16:47:46 Terrasse 15.10 14.42 67.30
25374 2020-05-01 16:19:29 Terrasse 15.20 14.52 66.80
25373 2020-05-01 15:51:50 Terrasse 15.00 14.56 76.80
25372 2020-05-01 15:23:24 Terrasse 15.30 14.91 77.60
25371 2020-05-01 14:55:02 Terrasse 14.90 14.87 92.70
25370 2020-05-01 14:26:46 Terrasse 14.10 14.01 93.80
25369 2020-05-01 13:58:10 Terrasse 12.50 12.41 99.90
25368 2020-05-01 13:30:00 Terrasse 12.70 12.63 99.90
25367 2020-05-01 13:01:47 Terrasse 12.80 12.74 99.90
25366 2020-05-01 12:33:36 Terrasse 13.60 13.62 99.90
25365 2020-05-01 12:05:29 Terrasse 14.80 14.76 93.00
25364 2020-05-01 11:37:09 Terrasse 14.10 14.17 99.90
25363 2020-05-01 11:08:34 Terrasse 12.00 11.86 99.90
25362 2020-05-01 10:40:11 Terrasse 10.70 10.43 99.90
25361 2020-05-01 10:11:58 Terrasse 10.90 10.65 99.90
25360 2020-05-01 09:43:34 Terrasse 10.30 9.99 99.90
25359 2020-05-01 09:15:15 Terrasse 9.90 9.55 99.90
25358 2020-05-01 08:47:02 Terrasse 9.90 9.55 99.90
25357 2020-05-01 08:18:57 Terrasse 9.90 9.55 99.90
25356 2020-05-01 07:50:40 Terrasse 9.40 9.00 99.90
25355 2020-05-01 07:22:24 Terrasse 9.20 8.78 99.90
25354 2020-05-01 06:54:09 Terrasse 9.20 8.78 99.90
25353 2020-05-01 06:25:54 Terrasse 9.20 8.78 99.90
25352 2020-05-01 05:57:39 Terrasse 9.20 8.78 99.90
25351 2020-05-01 05:29:24 Terrasse 9.30 8.89 99.90
25350 2020-05-01 05:01:10 Terrasse 9.40 9.00 99.90
25349 2020-05-01 04:32:55 Terrasse 9.50 9.11 99.90
25348 2020-05-01 04:04:42 Terrasse 9.60 9.22 99.90
25347 2020-05-01 03:36:28 Terrasse 9.70 9.33 99.90
25346 2020-05-01 03:08:16 Terrasse 9.80 9.44 99.90
25345 2020-05-01 02:40:03 Terrasse 10.10 9.77 99.90
25344 2020-05-01 02:11:48 Terrasse 10.20 9.88 99.90
25343 2020-05-01 01:43:36 Terrasse 10.40 10.10 99.90
25342 2020-05-01 01:15:21 Terrasse 10.50 10.21 99.90
25341 2020-05-01 00:47:07 Terrasse 10.50 10.21 99.90
25340 2020-05-01 00:19:02 Terrasse 10.50 10.21 99.90
25339 2020-04-30 23:50:46 Terrasse 10.40 10.10 99.90
25338 2020-04-30 23:22:38 Terrasse 10.40 10.10 99.90
25337 2020-04-30 22:54:22 Terrasse 10.40 10.10 99.90
25336 2020-04-30 22:26:08 Terrasse 10.60 10.32 99.90
25335 2020-04-30 21:57:54 Terrasse 10.50 10.21 99.90
25334 2020-04-30 21:29:39 Terrasse 10.70 10.43 99.90
25333 2020-04-30 21:01:25 Terrasse 11.00 10.76 99.90
25332 2020-04-30 20:33:12 Terrasse 11.10 10.87 99.90
25331 2020-04-30 20:05:00 Terrasse 11.40 11.20 99.90
25330 2020-04-30 19:36:47 Terrasse 11.70 11.53 99.90
25329 2020-04-30 19:08:36 Terrasse 12.20 12.08 99.90
25328 2020-04-30 18:40:25 Terrasse 13.50 13.51 99.90
25327 2020-04-30 18:12:11 Terrasse 14.00 14.06 99.90
25326 2020-04-30 17:43:58 Terrasse 14.80 14.75 92.40
25325 2020-04-30 17:15:48 Terrasse 15.60 15.24 77.40
25324 2020-04-30 16:47:28 Terrasse 15.70 15.28 74.80
25323 2020-04-30 16:19:12 Terrasse 15.60 15.11 72.50
25322 2020-04-30 15:50:56 Terrasse 15.50 14.87 67.40
25321 2020-04-30 15:22:41 Terrasse 15.80 15.07 62.50
25320 2020-04-30 14:54:31 Terrasse 16.70 16.03 61.40
25319 2020-04-30 14:26:22 Terrasse 18.20 17.63 59.60
25318 2020-04-30 13:58:00 Terrasse 17.40 16.86 63.70
25317 2020-04-30 13:29:37 Terrasse 16.00 15.50 70.50
25316 2020-04-30 13:01:15 Terrasse 15.00 14.45 72.50
25315 2020-04-30 12:33:02 Terrasse 15.50 15.36 86.20
25314 2020-04-30 12:04:41 Terrasse 14.60 14.45 89.40
25313 2020-04-30 11:36:17 Terrasse 13.70 13.73 99.90
25312 2020-04-30 11:08:05 Terrasse 13.80 13.84 99.90
25311 2020-04-30 10:39:48 Terrasse 13.70 13.73 99.90
25310 2020-04-30 10:11:26 Terrasse 12.90 12.85 99.90
25309 2020-04-30 09:43:06 Terrasse 12.40 12.30 99.90
25308 2020-04-30 09:14:50 Terrasse 12.20 12.08 99.90
25307 2020-04-30 08:46:31 Terrasse 11.80 11.64 99.90
25306 2020-04-30 08:18:14 Terrasse 11.60 11.42 99.90
25305 2020-04-30 07:49:57 Terrasse 11.60 11.42 99.90
25304 2020-04-30 07:21:43 Terrasse 11.60 11.42 99.90
25303 2020-04-30 06:53:27 Terrasse 11.60 11.42 99.90
25302 2020-04-30 06:25:11 Terrasse 11.70 11.53 99.90
25301 2020-04-30 05:56:56 Terrasse 11.70 11.53 99.90
25300 2020-04-30 05:28:40 Terrasse 11.70 11.53 99.90
25299 2020-04-30 05:00:25 Terrasse 11.90 11.75 99.90
25298 2020-04-30 04:32:09 Terrasse 12.00 11.86 99.90
25297 2020-04-30 04:03:54 Terrasse 12.10 11.97 99.90
25296 2020-04-30 03:35:38 Terrasse 12.20 12.08 99.90
25295 2020-04-30 03:07:23 Terrasse 12.20 12.08 99.90
25294 2020-04-30 02:39:08 Terrasse 12.30 12.19 99.90
25293 2020-04-30 02:10:53 Terrasse 12.50 12.41 99.90
25292 2020-04-30 01:42:38 Terrasse 12.60 12.52 99.90
25291 2020-04-30 01:14:31 Terrasse 12.80 12.74 99.90
25290 2020-04-30 00:46:12 Terrasse 13.10 13.07 99.90
25289 2020-04-30 00:17:56 Terrasse 13.20 13.12 97.40
25288 2020-04-29 23:49:41 Terrasse 13.30 13.22 97.00
25287 2020-04-29 23:21:24 Terrasse 13.30 13.22 97.20
25286 2020-04-29 22:53:07 Terrasse 13.30 13.20 96.40
25285 2020-04-29 22:24:51 Terrasse 13.30 13.17 95.00
25284 2020-04-29 21:56:38 Terrasse 13.70 13.55 92.80
25283 2020-04-29 21:28:26 Terrasse 14.30 14.02 85.50
25282 2020-04-29 21:00:12 Terrasse 14.70 14.22 76.50
25281 2020-04-29 20:31:58 Terrasse 15.30 14.66 68.00
25280 2020-04-29 20:03:43 Terrasse 15.70 15.00 64.30
25279 2020-04-29 19:35:30 Terrasse 16.00 15.29 62.70
25278 2020-04-29 19:07:15 Terrasse 16.50 15.76 59.70
25277 2020-04-29 18:39:01 Terrasse 16.90 16.21 59.80
25276 2020-04-29 18:10:42 Terrasse 16.90 16.34 64.80
25275 2020-04-29 17:42:24 Terrasse 16.80 16.24 65.40
25274 2020-04-29 17:14:16 Terrasse 17.90 17.20 55.70
25273 2020-04-29 16:45:57 Terrasse 18.10 17.40 54.80
25272 2020-04-29 16:17:47 Terrasse 18.90 18.23 52.90
25271 2020-04-29 15:49:29 Terrasse 19.10 18.41 51.60
25270 2020-04-29 15:21:18 Terrasse 20.50 19.90 49.70
25269 2020-04-29 14:52:54 Terrasse 19.70 19.10 52.50
25268 2020-04-29 14:24:37 Terrasse 19.00 18.34 53.00
25267 2020-04-29 13:56:09 Terrasse 18.40 17.83 58.70
25266 2020-04-29 13:27:36 Terrasse 16.70 16.31 72.20
25265 2020-04-29 12:59:11 Terrasse 15.80 15.81 91.10
25264 2020-04-29 12:31:01 Terrasse 16.90 16.33 64.60
25263 2020-04-29 12:02:49 Terrasse 18.10 17.71 66.70
25262 2020-04-29 11:34:25 Terrasse 16.40 16.21 81.10
25261 2020-04-29 11:06:05 Terrasse 16.10 16.11 89.70
25260 2020-04-29 10:37:33 Terrasse 14.70 14.79 98.10
25259 2020-04-29 10:09:14 Terrasse 14.00 14.06 99.90
25258 2020-04-29 09:40:55 Terrasse 13.60 13.62 99.90
25257 2020-04-29 09:12:39 Terrasse 13.10 13.07 99.90
25256 2020-04-29 08:44:22 Terrasse 12.80 12.74 99.90
25255 2020-04-29 08:16:04 Terrasse 12.50 12.41 99.90
25254 2020-04-29 07:47:49 Terrasse 12.30 12.19 99.90
25253 2020-04-29 07:19:33 Terrasse 12.20 12.08 99.90
25252 2020-04-29 06:51:15 Terrasse 11.90 11.75 99.90
25251 2020-04-29 06:23:00 Terrasse 11.90 11.75 99.90
25250 2020-04-29 05:54:44 Terrasse 11.80 11.64 99.90
25249 2020-04-29 05:26:29 Terrasse 11.90 11.75 99.90
25248 2020-04-29 04:58:13 Terrasse 11.80 11.64 99.90
25247 2020-04-29 04:29:58 Terrasse 11.70 11.53 99.90
25246 2020-04-29 04:01:43 Terrasse 11.60 11.42 99.90
25245 2020-04-29 03:33:29 Terrasse 11.70 11.53 99.90
25244 2020-04-29 03:05:13 Terrasse 11.70 11.53 99.90
25243 2020-04-29 02:37:01 Terrasse 11.90 11.75 99.90
25242 2020-04-29 02:08:46 Terrasse 12.10 11.97 99.90
25241 2020-04-29 01:40:32 Terrasse 12.10 11.97 99.90
25240 2020-04-29 01:12:19 Terrasse 12.30 12.19 99.90
25239 2020-04-29 00:44:05 Terrasse 12.40 12.30 99.90
25238 2020-04-29 00:15:49 Terrasse 12.40 12.30 99.90
25237 2020-04-28 23:47:33 Terrasse 12.40 12.30 99.90
25236 2020-04-28 23:19:19 Terrasse 12.50 12.41 99.90
25235 2020-04-28 22:51:05 Terrasse 12.60 12.52 99.90
25234 2020-04-28 22:22:51 Terrasse 12.80 12.74 99.90
25233 2020-04-28 21:54:37 Terrasse 13.20 13.18 99.90
25232 2020-04-28 21:26:25 Terrasse 13.70 13.73 99.90
25231 2020-04-28 20:58:13 Terrasse 14.20 14.28 99.90
25230 2020-04-28 20:30:01 Terrasse 14.80 14.92 98.80
25229 2020-04-28 20:01:48 Terrasse 15.30 15.40 96.20
25228 2020-04-28 19:33:35 Terrasse 15.50 15.57 94.30
25227 2020-04-28 19:05:20 Terrasse 15.80 16.00 98.40
25226 2020-04-28 18:37:06 Terrasse 16.10 16.37 99.90
25225 2020-04-28 18:08:52 Terrasse 16.20 16.48 99.90
25224 2020-04-28 17:40:37 Terrasse 16.60 16.92 99.90
25223 2020-04-28 17:12:22 Terrasse 16.70 17.03 99.90
25222 2020-04-28 16:44:08 Terrasse 16.40 16.70 99.90
25221 2020-04-28 16:15:54 Terrasse 16.30 16.59 99.90
25220 2020-04-28 15:47:47 Terrasse 17.90 18.35 99.90
25219 2020-04-28 15:19:23 Terrasse 16.70 17.03 99.90
25218 2020-04-28 14:22:56 Terrasse 16.00 16.26 99.90
25217 2020-04-28 13:54:42 Terrasse 16.40 16.53 93.30
25216 2020-04-28 13:26:27 Terrasse 16.80 16.90 90.70
25215 2020-04-28 12:58:10 Terrasse 15.70 15.82 95.60
25214 2020-04-28 12:29:53 Terrasse 15.20 15.38 99.90
25213 2020-04-28 12:01:36 Terrasse 15.00 15.16 99.90
25212 2020-04-28 11:33:21 Terrasse 15.00 15.08 96.50
25211 2020-04-28 11:05:07 Terrasse 15.10 15.05 91.20
25210 2020-04-28 10:36:50 Terrasse 15.00 14.96 91.90
25209 2020-04-28 10:08:53 Terrasse 14.60 14.20 79.90
25208 2020-04-28 09:40:28 Terrasse 14.20 13.69 77.00
25207 2020-04-28 09:12:14 Terrasse 14.30 13.51 66.20
25206 2020-04-28 08:44:02 Terrasse 15.00 14.10 59.00
25205 2020-04-28 08:15:45 Terrasse 15.00 14.33 68.00
25204 2020-04-28 07:47:25 Terrasse 14.30 13.48 65.00
25203 2020-04-28 07:19:07 Terrasse 13.80 12.98 66.80
25202 2020-04-28 06:50:51 Terrasse 13.70 12.72 60.90
25201 2020-04-28 06:22:35 Terrasse 13.60 12.67 63.50
25200 2020-04-28 05:54:19 Terrasse 13.30 12.30 62.00
25199 2020-04-28 05:26:04 Terrasse 13.40 12.34 59.30
25198 2020-04-28 04:57:49 Terrasse 13.50 12.41 57.60
25197 2020-04-28 04:29:35 Terrasse 13.80 12.70 56.00
25196 2020-04-28 04:01:20 Terrasse 13.90 12.78 55.10
25195 2020-04-28 03:33:05 Terrasse 14.20 13.08 53.80
25194 2020-04-28 03:04:51 Terrasse 14.50 13.41 53.80
25193 2020-04-28 02:36:36 Terrasse 14.60 13.53 54.00
25192 2020-04-28 02:08:20 Terrasse 15.10 14.02 51.70
25191 2020-04-28 01:40:06 Terrasse 15.30 14.21 50.90
25190 2020-04-28 01:11:50 Terrasse 15.60 14.51 49.40
25189 2020-04-28 00:43:35 Terrasse 15.80 14.71 49.00
25188 2020-04-28 00:15:20 Terrasse 16.00 14.91 47.90
25187 2020-04-27 23:47:02 Terrasse 16.10 15.00 47.40
25186 2020-04-27 23:18:49 Terrasse 16.30 15.21 46.90
25185 2020-04-27 22:50:35 Terrasse 16.70 15.64 46.50
25184 2020-04-27 22:22:24 Terrasse 17.30 16.27 45.20
25183 2020-04-27 21:54:10 Terrasse 17.80 16.78 43.80
25182 2020-04-27 21:25:56 Terrasse 18.20 17.20 42.90
25181 2020-04-27 20:57:45 Terrasse 19.00 18.04 41.70
25180 2020-04-27 20:29:35 Terrasse 20.00 19.07 39.00
25179 2020-04-27 20:01:24 Terrasse 21.00 20.11 36.50
25178 2020-04-27 19:33:12 Terrasse 21.70 20.84 35.00
25177 2020-04-27 19:04:57 Terrasse 21.80 20.88 32.40
25176 2020-04-27 18:36:46 Terrasse 22.60 21.72 31.00
25175 2020-04-27 18:08:32 Terrasse 23.20 22.36 30.00
25174 2020-04-27 17:40:18 Terrasse 23.90 23.13 30.00
25173 2020-04-27 17:12:02 Terrasse 24.10 23.38 31.30
25172 2020-04-27 16:43:47 Terrasse 24.60 23.99 33.40
25171 2020-04-27 16:15:34 Terrasse 25.00 24.40 32.40
25170 2020-04-27 15:47:19 Terrasse 25.50 24.90 30.50
25169 2020-04-27 15:19:06 Terrasse 26.00 25.47 31.20
25168 2020-04-27 14:50:54 Terrasse 26.20 25.66 30.10
25167 2020-04-27 14:22:35 Terrasse 26.70 26.24 30.20
25166 2020-04-27 13:54:26 Terrasse 26.60 26.22 31.20
25165 2020-04-27 13:26:11 Terrasse 26.70 26.42 34.60
25164 2020-04-27 12:57:45 Terrasse 25.80 25.42 37.60
25163 2020-04-27 12:29:04 Terrasse 22.30 21.64 40.30
25162 2020-04-27 12:00:54 Terrasse 22.10 21.45 41.50
25161 2020-04-27 11:32:32 Terrasse 21.10 20.46 45.90
25160 2020-04-27 11:04:01 Terrasse 19.00 18.23 48.70
25159 2020-04-27 10:35:23 Terrasse 16.80 15.84 49.90
25158 2020-04-27 10:06:59 Terrasse 15.30 14.18 49.70
25157 2020-04-27 09:38:39 Terrasse 14.30 13.10 50.20
25156 2020-04-27 09:10:28 Terrasse 13.40 12.17 52.50
25155 2020-04-27 08:42:05 Terrasse 12.70 11.44 54.30
25154 2020-04-27 08:13:47 Terrasse 11.90 10.52 52.70
25153 2020-04-27 07:45:29 Terrasse 11.30 9.97 57.00
25152 2020-04-27 07:17:13 Terrasse 11.00 9.58 54.40
25151 2020-04-27 06:48:59 Terrasse 10.90 9.42 52.50
25150 2020-04-27 06:20:45 Terrasse 10.90 9.38 51.00
25149 2020-04-27 05:52:31 Terrasse 11.00 9.46 50.10
25148 2020-04-27 05:24:18 Terrasse 11.20 9.68 49.80
25147 2020-04-27 04:56:06 Terrasse 11.70 10.20 49.00
25146 2020-04-27 04:27:54 Terrasse 12.20 10.69 46.70
25145 2020-04-27 03:59:39 Terrasse 12.40 10.91 46.70
25144 2020-04-27 03:31:25 Terrasse 12.60 11.13 46.70
25143 2020-04-27 03:03:11 Terrasse 12.80 11.34 46.10
25142 2020-04-27 02:34:58 Terrasse 12.90 11.45 46.30
25141 2020-04-27 02:06:46 Terrasse 13.30 11.87 45.30
25140 2020-04-27 01:38:32 Terrasse 13.40 11.97 45.10
25139 2020-04-27 01:10:19 Terrasse 13.80 12.40 44.50
25138 2020-04-27 00:42:05 Terrasse 14.10 12.71 43.80
25137 2020-04-27 00:13:52 Terrasse 14.40 13.01 42.50
25136 2020-04-26 23:45:37 Terrasse 14.60 13.22 42.30
25135 2020-04-26 23:17:23 Terrasse 14.90 13.57 43.20
25134 2020-04-26 22:49:09 Terrasse 15.30 13.99 42.30
25133 2020-04-26 22:20:55 Terrasse 15.80 14.52 41.70
25132 2020-04-26 21:52:42 Terrasse 16.20 14.95 41.10
25131 2020-04-26 21:24:29 Terrasse 16.70 15.48 40.30
25130 2020-04-26 20:56:18 Terrasse 17.70 16.55 39.10
25129 2020-04-26 20:28:07 Terrasse 18.70 17.61 37.80
25128 2020-04-26 19:59:55 Terrasse 19.60 18.59 37.20
25127 2020-04-26 19:31:44 Terrasse 20.30 19.31 35.30
25126 2020-04-26 19:03:28 Terrasse 20.80 19.82 33.80
25125 2020-04-26 18:35:11 Terrasse 21.10 20.13 33.20
25124 2020-04-26 18:06:56 Terrasse 21.50 20.56 32.90
25123 2020-04-26 17:38:43 Terrasse 22.10 21.20 31.80
25122 2020-04-26 17:10:29 Terrasse 22.80 22.01 33.50
25121 2020-04-26 16:42:11 Terrasse 23.00 22.24 33.90
25120 2020-04-26 16:13:57 Terrasse 23.40 22.63 32.10
25119 2020-04-26 15:45:40 Terrasse 23.60 22.83 31.10
25118 2020-04-26 15:17:37 Terrasse 24.00 23.25 30.30
25117 2020-04-26 14:49:25 Terrasse 24.90 24.23 30.10
25116 2020-04-26 14:21:04 Terrasse 25.50 24.89 30.00
25115 2020-04-26 13:53:09 Terrasse 25.20 24.61 31.80
25114 2020-04-26 13:25:08 Terrasse 25.10 24.52 32.60
25113 2020-04-26 12:56:36 Terrasse 24.90 24.35 34.80
25112 2020-04-26 12:27:54 Terrasse 21.60 20.83 39.00
25111 2020-04-26 11:59:45 Terrasse 21.50 20.74 39.80
25110 2020-04-26 11:31:25 Terrasse 20.50 19.69 41.60
25109 2020-04-26 11:02:53 Terrasse 18.20 17.23 44.10
25108 2020-04-26 10:34:16 Terrasse 16.20 15.08 46.10
25107 2020-04-26 10:05:51 Terrasse 14.90 13.66 46.60
25106 2020-04-26 09:37:40 Terrasse 13.80 12.49 48.20
25105 2020-04-26 09:09:17 Terrasse 13.00 11.63 48.70
25104 2020-04-26 08:40:55 Terrasse 12.00 10.57 50.40
25103 2020-04-26 08:12:35 Terrasse 11.20 9.78 53.70
25102 2020-04-26 07:44:15 Terrasse 10.20 8.78 57.80
25101 2020-04-26 07:15:59 Terrasse 9.60 8.17 59.60
25100 2020-04-26 06:47:45 Terrasse 9.50 8.04 58.80
25099 2020-04-26 06:19:43 Terrasse 9.60 8.12 57.80
25098 2020-04-26 05:51:26 Terrasse 9.80 8.31 56.40
25097 2020-04-26 05:23:13 Terrasse 10.20 8.69 54.20
25096 2020-04-26 04:55:00 Terrasse 10.40 8.88 52.90
25095 2020-04-26 04:27:05 Terrasse 10.50 8.98 52.60
25094 2020-04-26 03:58:56 Terrasse 10.80 9.26 50.80
25093 2020-04-26 03:30:38 Terrasse 11.30 9.79 50.00
25092 2020-04-26 03:02:26 Terrasse 11.50 9.98 48.90
25091 2020-04-26 02:34:14 Terrasse 12.20 10.71 47.10
25090 2020-04-26 02:06:11 Terrasse 12.40 10.91 46.70
25089 2020-04-26 01:38:05 Terrasse 12.50 11.02 46.60
25088 2020-04-26 01:09:47 Terrasse 12.60 11.14 47.00
25087 2020-04-26 00:41:45 Terrasse 12.80 11.36 47.00
25086 2020-04-26 00:13:28 Terrasse 13.00 11.55 45.90
25085 2020-04-25 23:45:11 Terrasse 12.90 11.44 45.80
25084 2020-04-25 23:16:57 Terrasse 12.80 11.34 46.10
25083 2020-04-25 22:48:54 Terrasse 13.40 11.93 43.60
25082 2020-04-25 22:20:37 Terrasse 13.30 11.83 44.00
25081 2020-04-25 21:52:26 Terrasse 13.70 12.27 43.70
25080 2020-04-25 21:24:13 Terrasse 14.30 12.93 43.70
25079 2020-04-25 20:56:01 Terrasse 14.80 13.47 43.50
25078 2020-04-25 20:28:02 Terrasse 16.20 14.97 41.80
25077 2020-04-25 19:59:50 Terrasse 17.30 16.11 39.40
25076 2020-04-25 19:31:51 Terrasse 18.10 16.97 38.30
25075 2020-04-25 19:03:48 Terrasse 19.10 18.05 37.90
25074 2020-04-25 18:35:31 Terrasse 19.50 18.49 37.80
25073 2020-04-25 18:07:16 Terrasse 20.10 19.16 38.00
25072 2020-04-25 17:39:01 Terrasse 20.40 19.46 36.80
25071 2020-04-25 17:10:48 Terrasse 21.00 20.12 37.10
25070 2020-04-25 16:42:37 Terrasse 21.60 20.73 34.90
25069 2020-04-25 16:14:23 Terrasse 22.00 21.18 35.60
25068 2020-04-25 15:46:08 Terrasse 22.50 21.71 34.50
25067 2020-04-25 15:17:56 Terrasse 23.00 22.28 35.30
25066 2020-04-25 14:49:48 Terrasse 23.80 23.14 34.60
25065 2020-04-25 14:21:27 Terrasse 24.50 23.90 34.40
25064 2020-04-25 13:53:22 Terrasse 23.70 23.03 34.70
25063 2020-04-25 13:25:05 Terrasse 23.60 22.98 37.00
25062 2020-04-25 12:56:58 Terrasse 22.60 21.94 39.30
25061 2020-04-25 12:28:08 Terrasse 18.90 17.93 41.40
25060 2020-04-25 11:59:51 Terrasse 17.90 16.88 43.30
25059 2020-04-25 11:31:22 Terrasse 16.60 15.51 45.70
25058 2020-04-25 11:02:54 Terrasse 14.70 13.49 48.30
25057 2020-04-25 10:34:32 Terrasse 13.50 12.21 49.80
25056 2020-04-25 10:06:12 Terrasse 12.60 11.25 51.10
25055 2020-04-25 09:37:52 Terrasse 12.10 10.74 52.70
25054 2020-04-25 09:09:32 Terrasse 11.50 10.16 55.80
25053 2020-04-25 08:41:18 Terrasse 11.40 10.04 55.50
25052 2020-04-25 08:13:01 Terrasse 11.20 9.83 55.70
25051 2020-04-25 07:44:44 Terrasse 10.70 9.29 56.20
25050 2020-04-25 07:16:28 Terrasse 10.80 9.38 55.30
25049 2020-04-25 06:48:15 Terrasse 10.50 9.05 55.20
25048 2020-04-25 06:20:01 Terrasse 10.90 9.43 53.10
25047 2020-04-25 05:51:49 Terrasse 11.40 9.95 51.70
25046 2020-04-25 05:23:36 Terrasse 11.60 10.14 50.80
25045 2020-04-25 04:55:23 Terrasse 12.20 10.76 49.20
25044 2020-04-25 04:27:10 Terrasse 12.50 11.06 47.90
25043 2020-04-25 03:58:57 Terrasse 12.80 11.37 47.40
25042 2020-04-25 03:30:45 Terrasse 13.00 11.60 47.60
25041 2020-04-25 03:02:32 Terrasse 13.60 12.22 46.20
25040 2020-04-25 02:34:19 Terrasse 14.00 12.64 45.40
25039 2020-04-25 02:06:07 Terrasse 14.60 13.27 44.30
25038 2020-04-25 01:37:56 Terrasse 15.00 13.68 43.20
25037 2020-04-25 01:09:43 Terrasse 15.40 14.11 42.60
25036 2020-04-25 00:41:29 Terrasse 15.70 14.44 42.50
25035 2020-04-25 00:13:18 Terrasse 16.20 14.97 42.00
25034 2020-04-24 23:45:04 Terrasse 16.60 15.39 41.10
25033 2020-04-24 23:16:50 Terrasse 16.90 15.71 40.80
25032 2020-04-24 22:48:36 Terrasse 17.30 16.17 41.60
25031 2020-04-24 22:20:22 Terrasse 17.70 16.64 42.50
25030 2020-04-24 21:52:09 Terrasse 18.10 17.09 43.00
25029 2020-04-24 21:23:56 Terrasse 18.60 17.63 42.50
25028 2020-04-24 20:55:42 Terrasse 19.20 18.24 40.80
25027 2020-04-24 20:27:29 Terrasse 19.90 18.92 37.30
25026 2020-04-24 19:59:17 Terrasse 20.50 19.51 34.60
25025 2020-04-24 19:31:05 Terrasse 21.20 20.24 33.20
25024 2020-04-24 19:02:54 Terrasse 22.00 21.17 35.10
25023 2020-04-24 18:34:43 Terrasse 22.90 22.21 37.10
25022 2020-04-24 18:06:30 Terrasse 23.60 22.98 36.80
25021 2020-04-24 17:38:15 Terrasse 24.30 23.71 35.50
25020 2020-04-24 17:10:00 Terrasse 24.80 24.25 35.20
25019 2020-04-24 16:41:44 Terrasse 25.10 24.54 33.50
25018 2020-04-24 16:13:55 Terrasse 25.40 24.87 33.50
25017 2020-04-24 15:45:26 Terrasse 25.60 25.07 32.70
25016 2020-04-24 15:17:09 Terrasse 25.60 25.02 30.90
25015 2020-04-24 14:48:56 Terrasse 25.90 25.37 31.50
25014 2020-04-24 14:21:00 Terrasse 27.20 26.62 31.70
25013 2020-04-24 13:53:03 Terrasse 27.40 26.77 32.10
25012 2020-04-24 13:24:48 Terrasse 28.20 27.33 31.80
25011 2020-04-24 12:56:16 Terrasse 26.90 26.58 35.50
25010 2020-04-24 12:27:48 Terrasse 23.50 22.88 37.30
25009 2020-04-24 11:59:39 Terrasse 22.90 22.31 40.60
25008 2020-04-24 11:31:10 Terrasse 20.90 20.25 46.00
25007 2020-04-24 11:02:39 Terrasse 19.20 18.52 51.50
25006 2020-04-24 10:34:12 Terrasse 17.40 16.54 51.50
25005 2020-04-24 10:05:47 Terrasse 16.20 15.07 45.90
25004 2020-04-24 09:37:25 Terrasse 15.00 13.85 49.60
25003 2020-04-24 09:09:04 Terrasse 14.00 12.78 50.90
25002 2020-04-24 08:40:45 Terrasse 13.40 12.10 50.10
25001 2020-04-24 08:12:28 Terrasse 12.90 11.60 51.90
25000 2020-04-24 07:44:23 Terrasse 12.90 11.58 51.30
24999 2020-04-24 07:16:03 Terrasse 12.70 11.38 51.80
24998 2020-04-24 06:47:58 Terrasse 12.50 11.14 51.00
24997 2020-04-24 06:19:39 Terrasse 12.40 11.00 49.80
24996 2020-04-24 05:51:25 Terrasse 12.60 11.18 48.50
24995 2020-04-24 05:23:10 Terrasse 12.60 11.17 47.90
24994 2020-04-24 04:54:57 Terrasse 12.70 11.26 47.30
24993 2020-04-24 04:26:44 Terrasse 12.90 11.47 46.90
24992 2020-04-24 03:58:32 Terrasse 13.20 11.77 45.60
24991 2020-04-24 03:30:20 Terrasse 13.60 12.18 44.50
24990 2020-04-24 03:02:05 Terrasse 13.70 12.28 44.10
24989 2020-04-24 02:33:51 Terrasse 14.00 12.60 44.00
24988 2020-04-24 02:05:37 Terrasse 14.30 12.90 42.80
24987 2020-04-24 01:37:33 Terrasse 14.50 13.12 42.60
24986 2020-04-24 01:09:15 Terrasse 14.60 13.24 43.10
24985 2020-04-24 00:41:01 Terrasse 15.00 13.67 42.50
24984 2020-04-24 00:12:47 Terrasse 15.30 13.98 42.00
24983 2020-04-23 23:44:44 Terrasse 15.70 14.41 41.40
24982 2020-04-23 23:16:25 Terrasse 16.10 14.83 40.90
24981 2020-04-23 22:48:11 Terrasse 16.50 15.26 40.30
24980 2020-04-23 22:20:23 Terrasse 16.70 15.48 40.20
24979 2020-04-23 21:52:20 Terrasse 17.50 16.34 39.60
24978 2020-04-23 21:24:09 Terrasse 17.80 16.66 39.10
24977 2020-04-23 20:56:04 Terrasse 18.50 17.38 37.40
24976 2020-04-23 20:27:51 Terrasse 19.40 18.35 36.50
24975 2020-04-23 19:59:42 Terrasse 20.70 19.73 34.50
24974 2020-04-23 19:31:29 Terrasse 21.50 20.57 33.10
24973 2020-04-23 19:03:15 Terrasse 22.10 21.22 32.70
24972 2020-04-23 18:35:14 Terrasse 22.70 21.86 32.10
24971 2020-04-23 18:06:55 Terrasse 23.30 22.53 32.20
24970 2020-04-23 17:38:42 Terrasse 24.00 23.30 32.20
24969 2020-04-23 17:10:29 Terrasse 24.50 23.81 30.80
24968 2020-04-23 16:42:14 Terrasse 24.90 24.26 31.20
24967 2020-04-23 16:14:01 Terrasse 25.40 24.78 30.10
24966 2020-04-23 15:45:57 Terrasse 25.70 25.13 30.80
24965 2020-04-23 15:17:41 Terrasse 26.30 25.74 28.90
24964 2020-04-23 14:49:39 Terrasse 27.30 26.65 30.90
24963 2020-04-23 14:21:14 Terrasse 27.90 27.01 29.70
24962 2020-04-23 13:53:32 Terrasse 27.80 26.94 29.80
24961 2020-04-23 13:25:11 Terrasse 28.50 27.46 29.70
24960 2020-04-23 12:57:00 Terrasse 27.40 26.71 30.80
24959 2020-04-23 12:28:04 Terrasse 23.00 22.26 34.60
24958 2020-04-23 11:59:50 Terrasse 22.30 21.56 37.30
24957 2020-04-23 11:31:11 Terrasse 20.10 19.15 37.70
24956 2020-04-23 11:02:48 Terrasse 18.70 17.65 39.40
24955 2020-04-23 10:34:22 Terrasse 17.20 15.99 38.90
24954 2020-04-23 10:06:09 Terrasse 16.10 14.81 40.10
24953 2020-04-23 09:37:50 Terrasse 15.10 13.75 41.40
24952 2020-04-23 09:09:28 Terrasse 14.40 13.00 42.20
24951 2020-04-23 08:41:07 Terrasse 13.70 12.21 41.60
24950 2020-04-23 08:13:08 Terrasse 13.10 11.56 42.00
24949 2020-04-23 07:44:45 Terrasse 12.70 11.13 42.40
24948 2020-04-23 07:16:41 Terrasse 12.50 10.91 42.20
24947 2020-04-23 06:48:34 Terrasse 12.50 10.89 41.60
24946 2020-04-23 06:20:17 Terrasse 12.50 10.89 41.70
24945 2020-04-23 05:52:04 Terrasse 12.80 11.20 40.90
24944 2020-04-23 05:23:50 Terrasse 13.00 11.41 40.50
24943 2020-04-23 04:55:37 Terrasse 13.30 11.72 39.60
24942 2020-04-23 04:27:20 Terrasse 13.50 11.94 39.80
24941 2020-04-23 03:59:05 Terrasse 13.50 11.96 40.20
24940 2020-04-23 03:30:50 Terrasse 13.60 12.07 40.40
24939 2020-04-23 03:02:47 Terrasse 13.80 12.28 40.10
24938 2020-04-23 02:34:29 Terrasse 14.10 12.62 40.40
24937 2020-04-23 02:06:36 Terrasse 14.50 13.05 39.90
24936 2020-04-23 01:38:51 Terrasse 14.80 13.37 39.80
24935 2020-04-23 01:10:18 Terrasse 15.20 13.82 39.90
24934 2020-04-23 00:42:04 Terrasse 15.50 14.12 38.90
24933 2020-04-23 00:13:52 Terrasse 15.80 14.45 38.80
24932 2020-04-22 23:45:37 Terrasse 16.10 14.76 38.00
24931 2020-04-22 23:17:34 Terrasse 16.50 15.19 37.70
24930 2020-04-22 22:49:28 Terrasse 16.90 15.61 37.00
24929 2020-04-22 22:21:09 Terrasse 17.30 16.03 36.10
24928 2020-04-22 21:52:55 Terrasse 17.60 16.34 35.30
24927 2020-04-22 21:24:43 Terrasse 18.10 16.87 34.50
24926 2020-04-22 20:56:30 Terrasse 18.60 17.41 34.20
24925 2020-04-22 20:28:18 Terrasse 19.30 18.17 33.70
24924 2020-04-22 20:00:06 Terrasse 20.10 19.02 32.70
24923 2020-04-22 19:31:55 Terrasse 20.80 19.78 32.30
24922 2020-04-22 19:03:44 Terrasse 21.70 20.76 31.80
24921 2020-04-22 18:35:31 Terrasse 22.40 21.53 32.10
24920 2020-04-22 18:07:20 Terrasse 23.50 22.73 31.70
24919 2020-04-22 17:39:19 Terrasse 24.30 23.56 29.80
24918 2020-04-22 17:11:02 Terrasse 25.00 24.30 28.60
24917 2020-04-22 16:42:48 Terrasse 25.50 24.82 27.50
24916 2020-04-22 16:14:45 Terrasse 25.90 25.25 27.00
24915 2020-04-22 15:46:26 Terrasse 26.20 25.59 27.50
24914 2020-04-22 15:18:13 Terrasse 26.80 26.17 26.40
24913 2020-04-22 14:50:13 Terrasse 28.20 27.10 26.70
24912 2020-04-22 14:21:49 Terrasse 29.20 27.84 26.30
24911 2020-04-22 13:53:56 Terrasse 28.60 27.40 26.80
24910 2020-04-22 13:25:37 Terrasse 28.90 27.67 27.80
24909 2020-04-22 12:57:06 Terrasse 27.50 26.74 29.80
24908 2020-04-22 12:28:27 Terrasse 22.70 21.84 31.20
24907 2020-04-22 12:00:11 Terrasse 21.80 20.87 32.10
24906 2020-04-22 11:31:44 Terrasse 19.60 18.52 34.70
24905 2020-04-22 11:03:27 Terrasse 17.90 16.70 36.50
24904 2020-04-22 10:34:58 Terrasse 16.40 15.05 36.40
24903 2020-04-22 10:06:36 Terrasse 15.20 13.76 37.60
24902 2020-04-22 09:38:16 Terrasse 14.20 12.67 38.00
24901 2020-04-22 09:09:57 Terrasse 13.60 12.02 38.40
24900 2020-04-22 08:41:37 Terrasse 12.90 11.26 38.80
24899 2020-04-22 08:13:38 Terrasse 12.30 10.61 39.20
24898 2020-04-22 07:45:13 Terrasse 11.90 10.20 40.20
24897 2020-04-22 07:16:59 Terrasse 11.80 10.07 39.70
24896 2020-04-22 06:49:04 Terrasse 11.90 10.17 39.40
24895 2020-04-22 06:20:42 Terrasse 12.00 10.28 39.10
24894 2020-04-22 05:52:41 Terrasse 12.20 10.49 38.70
24893 2020-04-22 05:24:24 Terrasse 12.40 10.71 38.70
24892 2020-04-22 04:56:21 Terrasse 12.60 10.92 38.50
24891 2020-04-22 04:28:29 Terrasse 12.80 11.15 38.70
24890 2020-04-22 04:00:16 Terrasse 13.00 11.36 38.40
24889 2020-04-22 03:32:18 Terrasse 13.30 11.68 37.90
24888 2020-04-22 03:04:16 Terrasse 13.60 12.00 37.60
24887 2020-04-22 02:36:06 Terrasse 13.80 12.21 37.30
24886 2020-04-22 02:08:07 Terrasse 14.10 12.54 37.20
24885 2020-04-22 01:39:57 Terrasse 14.30 12.76 37.30
24884 2020-04-22 01:11:39 Terrasse 14.60 13.08 37.00
24883 2020-04-22 00:43:45 Terrasse 14.90 13.42 37.30
24882 2020-04-22 00:15:35 Terrasse 15.20 13.74 37.10
24881 2020-04-21 23:47:17 Terrasse 15.40 13.97 37.20
24880 2020-04-21 23:19:16 Terrasse 15.80 14.37 35.90
24879 2020-04-21 22:50:59 Terrasse 16.30 14.92 35.90
24878 2020-04-21 22:22:46 Terrasse 16.60 15.24 35.50
24877 2020-04-21 21:54:32 Terrasse 17.20 15.88 34.50
24876 2020-04-21 21:26:18 Terrasse 17.70 16.38 32.70
24875 2020-04-21 20:58:04 Terrasse 18.30 17.02 32.00
24874 2020-04-21 20:29:52 Terrasse 18.90 17.64 30.40
24873 2020-04-21 20:01:39 Terrasse 19.60 18.40 30.20
24872 2020-04-21 19:33:38 Terrasse 20.30 19.16 29.70
24871 2020-04-21 19:05:22 Terrasse 21.00 19.88 27.60
24870 2020-04-21 18:37:09 Terrasse 21.70 20.70 29.50
24869 2020-04-21 18:08:54 Terrasse 22.20 21.25 29.70
24868 2020-04-21 17:40:52 Terrasse 22.80 21.90 29.30
24867 2020-04-21 17:12:33 Terrasse 23.20 22.33 29.00
24866 2020-04-21 16:44:38 Terrasse 23.60 22.77 28.90
24865 2020-04-21 16:16:16 Terrasse 24.20 23.40 27.80
24864 2020-04-21 15:48:05 Terrasse 25.10 24.40 28.20
24863 2020-04-21 15:19:51 Terrasse 25.50 24.82 27.50
24862 2020-04-21 14:51:52 Terrasse 27.00 26.30 26.90
24861 2020-04-21 14:23:25 Terrasse 27.60 26.69 26.90
24860 2020-04-21 13:55:23 Terrasse 27.30 26.51 27.40
24859 2020-04-21 13:27:07 Terrasse 27.90 26.94 28.10
24858 2020-04-21 12:58:37 Terrasse 26.50 26.00 30.40
24857 2020-04-21 12:29:44 Terrasse 21.70 20.75 31.40
24856 2020-04-21 12:01:30 Terrasse 20.80 19.78 32.20
24855 2020-04-21 11:33:05 Terrasse 18.60 17.46 36.20
24854 2020-04-21 11:04:35 Terrasse 16.70 15.41 37.60
24853 2020-04-21 10:36:09 Terrasse 15.10 13.67 38.40
24852 2020-04-21 10:08:11 Terrasse 13.80 12.27 39.80
24851 2020-04-21 09:39:57 Terrasse 12.90 11.28 39.80
24850 2020-04-21 09:11:50 Terrasse 12.10 10.40 39.80
24849 2020-04-21 08:43:23 Terrasse 11.40 9.65 40.30
24848 2020-04-21 08:15:04 Terrasse 10.60 8.78 40.60
24847 2020-04-21 07:46:47 Terrasse 10.30 8.46 41.20
24846 2020-04-21 07:18:31 Terrasse 10.10 8.24 41.20
24845 2020-04-21 06:50:16 Terrasse 10.20 8.35 41.10
24844 2020-04-21 06:22:03 Terrasse 10.30 8.46 41.10
24843 2020-04-21 05:53:48 Terrasse 10.50 8.70 41.80
24842 2020-04-21 05:25:34 Terrasse 10.70 8.91 41.60
24841 2020-04-21 04:57:19 Terrasse 10.90 9.11 40.80
24840 2020-04-21 04:29:06 Terrasse 11.10 9.32 40.40
24839 2020-04-21 04:00:54 Terrasse 11.30 9.53 39.90
24838 2020-04-21 03:32:40 Terrasse 11.60 9.84 39.40
24837 2020-04-21 03:04:28 Terrasse 11.80 10.04 38.50
24836 2020-04-21 02:36:14 Terrasse 11.70 9.92 38.10
24835 2020-04-21 02:08:01 Terrasse 12.10 10.35 37.70
24834 2020-04-21 01:39:48 Terrasse 12.40 10.67 37.40
24833 2020-04-21 01:11:36 Terrasse 12.60 10.88 36.90
24832 2020-04-21 00:43:22 Terrasse 12.80 11.10 36.90
24831 2020-04-21 00:15:09 Terrasse 13.00 11.31 36.50
24830 2020-04-20 23:46:55 Terrasse 13.30 11.63 36.30
24829 2020-04-20 23:18:41 Terrasse 13.70 12.06 35.80
24828 2020-04-20 22:50:48 Terrasse 14.20 12.60 35.50
24827 2020-04-20 22:22:28 Terrasse 14.60 13.05 35.80
24826 2020-04-20 21:54:15 Terrasse 15.10 13.59 35.30
24825 2020-04-20 21:26:03 Terrasse 15.50 14.02 35.10
24824 2020-04-20 20:57:50 Terrasse 16.10 14.69 35.40
24823 2020-04-20 20:29:37 Terrasse 16.60 15.23 35.00
24822 2020-04-20 20:01:25 Terrasse 17.40 16.13 35.80
24821 2020-04-20 19:33:14 Terrasse 18.20 17.02 36.10
24820 2020-04-20 19:05:14 Terrasse 19.00 17.88 35.50
24819 2020-04-20 18:37:17 Terrasse 19.90 18.87 35.60
24818 2020-04-20 18:09:16 Terrasse 20.70 19.72 34.30
24817 2020-04-20 17:40:57 Terrasse 21.40 20.39 30.60
24816 2020-04-20 17:12:42 Terrasse 22.00 21.05 30.30
24815 2020-04-20 16:44:48 Terrasse 22.30 21.40 31.10
24814 2020-04-20 16:16:26 Terrasse 22.90 22.05 30.70
24813 2020-04-20 15:48:12 Terrasse 23.50 22.70 30.30
24812 2020-04-20 15:19:59 Terrasse 24.00 23.21 28.80
24811 2020-04-20 14:51:57 Terrasse 25.50 24.89 30.00
24810 2020-04-20 14:23:29 Terrasse 25.90 25.28 28.20
24809 2020-04-20 13:55:21 Terrasse 25.50 24.89 30.00
24808 2020-04-20 13:27:09 Terrasse 26.10 25.58 31.10
24807 2020-04-20 12:58:39 Terrasse 25.00 24.42 33.10
24806 2020-04-20 12:29:49 Terrasse 20.30 19.33 36.30
24805 2020-04-20 12:01:41 Terrasse 19.70 18.71 37.70
24804 2020-04-20 11:33:08 Terrasse 17.70 16.56 39.70
24803 2020-04-20 11:04:40 Terrasse 15.90 14.57 39.20
24802 2020-04-20 10:36:13 Terrasse 14.30 12.88 42.10
24801 2020-04-20 10:07:50 Terrasse 13.10 11.61 44.00
24800 2020-04-20 09:39:29 Terrasse 12.10 10.54 44.90
24799 2020-04-20 09:11:11 Terrasse 11.40 9.77 44.90
24798 2020-04-20 08:42:50 Terrasse 10.80 9.12 45.20
24797 2020-04-20 08:14:33 Terrasse 10.20 8.46 45.50
24796 2020-04-20 07:46:17 Terrasse 9.90 8.18 47.10
24795 2020-04-20 07:18:02 Terrasse 9.80 8.06 47.00
24794 2020-04-20 06:49:47 Terrasse 9.80 8.05 46.70
24793 2020-04-20 06:21:34 Terrasse 10.00 8.25 45.90
24792 2020-04-20 05:53:21 Terrasse 10.10 8.35 45.50
24791 2020-04-20 05:25:07 Terrasse 10.30 8.57 45.20
24790 2020-04-20 04:57:04 Terrasse 10.50 8.76 44.30
24789 2020-04-20 04:28:46 Terrasse 10.70 8.96 43.50
24788 2020-04-20 04:00:33 Terrasse 10.80 9.08 43.80
24787 2020-04-20 03:32:19 Terrasse 11.00 9.28 43.20
24786 2020-04-20 03:04:07 Terrasse 11.20 9.49 42.60
24785 2020-04-20 02:35:54 Terrasse 11.50 9.80 42.10
24784 2020-04-20 02:07:41 Terrasse 11.70 10.02 41.80
24783 2020-04-20 01:39:29 Terrasse 11.90 10.23 41.60
24782 2020-04-20 01:11:17 Terrasse 12.10 10.46 42.00
24781 2020-04-20 00:43:04 Terrasse 12.40 10.79 42.10
24780 2020-04-20 00:14:50 Terrasse 12.70 11.14 42.70
24779 2020-04-19 23:46:37 Terrasse 13.00 11.48 43.10
24778 2020-04-19 23:18:25 Terrasse 13.40 11.94 43.90
24777 2020-04-19 22:50:13 Terrasse 13.70 12.29 44.50
24776 2020-04-19 22:22:01 Terrasse 14.00 12.64 45.50
24775 2020-04-19 21:53:47 Terrasse 14.40 13.11 46.60
24774 2020-04-19 21:25:33 Terrasse 14.80 13.58 47.70
24773 2020-04-19 20:57:22 Terrasse 15.10 13.97 49.80
24772 2020-04-19 20:29:09 Terrasse 15.60 14.52 50.00
24771 2020-04-19 20:00:57 Terrasse 16.10 15.09 50.90
24770 2020-04-19 19:32:45 Terrasse 16.70 15.75 50.80
24769 2020-04-19 19:04:36 Terrasse 17.70 16.87 51.40
24768 2020-04-19 18:36:22 Terrasse 18.30 17.50 50.50
24767 2020-04-19 18:08:14 Terrasse 19.30 18.59 49.90
24766 2020-04-19 17:40:01 Terrasse 20.20 19.57 49.60
24765 2020-04-19 17:11:47 Terrasse 20.60 20.01 49.60
24764 2020-04-19 16:43:45 Terrasse 21.10 20.59 50.70
24763 2020-04-19 16:15:26 Terrasse 21.40 20.96 52.10
24762 2020-04-19 15:47:12 Terrasse 21.70 21.26 51.30
24761 2020-04-19 15:18:55 Terrasse 21.70 21.33 53.80
24760 2020-04-19 14:50:34 Terrasse 20.70 20.32 57.40
24759 2020-04-19 14:22:27 Terrasse 20.70 20.34 58.00
24758 2020-04-19 13:54:22 Terrasse 22.80 22.65 58.10
24757 2020-04-19 13:26:14 Terrasse 22.80 22.67 58.80
24756 2020-04-19 12:57:54 Terrasse 21.20 20.96 60.80
24755 2020-04-19 12:29:35 Terrasse 20.60 20.40 64.60
24754 2020-04-19 12:01:16 Terrasse 19.60 19.50 72.00
24753 2020-04-19 11:32:58 Terrasse 18.50 18.43 77.60
24752 2020-04-19 11:04:37 Terrasse 17.50 17.47 82.90
24751 2020-04-19 10:36:07 Terrasse 15.70 15.93 99.90
24750 2020-04-19 10:07:55 Terrasse 16.10 16.36 99.40
24749 2020-04-19 09:39:36 Terrasse 15.10 15.27 99.90
24748 2020-04-19 09:11:18 Terrasse 15.00 15.16 99.90
24747 2020-04-19 08:42:57 Terrasse 14.00 14.06 99.90
24746 2020-04-19 08:14:37 Terrasse 13.20 13.18 99.90
24745 2020-04-19 07:46:18 Terrasse 12.40 12.30 99.90
24744 2020-04-19 07:18:01 Terrasse 12.10 11.97 99.90
24743 2020-04-19 06:49:44 Terrasse 12.10 11.97 99.90
24742 2020-04-19 06:21:32 Terrasse 12.10 11.97 99.90
24741 2020-04-19 05:53:20 Terrasse 12.40 12.30 99.90
24740 2020-04-19 05:25:06 Terrasse 12.70 12.63 99.90
24739 2020-04-19 04:56:55 Terrasse 13.20 13.18 99.90
24738 2020-04-19 04:28:41 Terrasse 13.20 13.18 99.90
24737 2020-04-19 04:00:24 Terrasse 12.80 12.74 99.90
24736 2020-04-19 03:32:09 Terrasse 12.70 12.63 99.90
24735 2020-04-19 03:03:56 Terrasse 13.10 13.07 99.90
24734 2020-04-19 02:35:42 Terrasse 13.40 13.40 99.90
24733 2020-04-19 02:07:31 Terrasse 13.80 13.84 99.90
24732 2020-04-19 01:39:19 Terrasse 14.40 14.50 99.90
24731 2020-04-19 01:11:06 Terrasse 14.80 14.94 99.90
24730 2020-04-19 00:42:55 Terrasse 15.40 15.56 98.10
24729 2020-04-19 00:14:41 Terrasse 15.80 15.87 93.30
24728 2020-04-18 23:46:30 Terrasse 16.10 16.09 89.00
24727 2020-04-18 23:18:19 Terrasse 16.60 16.42 80.70
24726 2020-04-18 22:50:04 Terrasse 17.00 16.68 73.70
24725 2020-04-18 22:21:50 Terrasse 17.30 16.92 70.10
24724 2020-04-18 21:53:34 Terrasse 17.30 17.00 73.30
24723 2020-04-18 21:25:18 Terrasse 17.50 17.37 79.10
24722 2020-04-18 20:57:03 Terrasse 17.90 17.72 75.80
24721 2020-04-18 20:28:49 Terrasse 18.30 18.10 73.40
24720 2020-04-18 20:00:34 Terrasse 18.70 18.44 69.60
24719 2020-04-18 19:32:21 Terrasse 19.10 18.71 63.00
24718 2020-04-18 19:04:08 Terrasse 19.70 19.26 58.60
24717 2020-04-18 18:35:52 Terrasse 19.90 19.43 57.00
24716 2020-04-18 18:07:39 Terrasse 20.30 19.91 58.50
24715 2020-04-18 17:39:26 Terrasse 21.30 20.84 51.70
24714 2020-04-18 17:11:16 Terrasse 22.20 21.83 51.90
24713 2020-04-18 16:43:03 Terrasse 22.70 22.34 50.40
24712 2020-04-18 16:14:54 Terrasse 23.50 23.16 48.10
24711 2020-04-18 15:46:46 Terrasse 25.10 24.95 49.20
24710 2020-04-18 15:18:27 Terrasse 24.90 24.73 49.30
24709 2020-04-18 14:50:07 Terrasse 24.40 24.24 51.40
24708 2020-04-18 14:21:31 Terrasse 22.00 21.68 54.60
24707 2020-04-18 13:53:05 Terrasse 20.40 20.15 63.50
24706 2020-04-18 13:24:41 Terrasse 19.90 19.76 69.50
24705 2020-04-18 12:56:27 Terrasse 19.90 19.54 60.90
24704 2020-04-18 12:28:17 Terrasse 20.80 20.30 52.40
24703 2020-04-18 12:00:10 Terrasse 21.70 21.28 51.80
24702 2020-04-18 11:31:39 Terrasse 21.00 20.52 52.30
24701 2020-04-18 11:03:19 Terrasse 20.20 19.67 53.40
24700 2020-04-18 10:34:56 Terrasse 19.10 18.48 54.10
24699 2020-04-18 10:06:33 Terrasse 18.00 17.31 55.90
24698 2020-04-18 09:38:08 Terrasse 17.10 16.37 57.80
24697 2020-04-18 09:09:47 Terrasse 16.30 15.57 60.50
24696 2020-04-18 08:41:28 Terrasse 15.90 15.15 61.30
24695 2020-04-18 08:13:09 Terrasse 15.40 14.76 67.50
24694 2020-04-18 07:44:52 Terrasse 14.90 14.35 72.80
24693 2020-04-18 07:16:36 Terrasse 14.70 14.00 68.00
24692 2020-04-18 06:48:21 Terrasse 14.80 13.96 62.30
24691 2020-04-18 06:20:05 Terrasse 14.60 13.74 62.40
24690 2020-04-18 05:51:49 Terrasse 14.50 13.63 62.40
24689 2020-04-18 05:23:33 Terrasse 14.60 13.66 59.10
24688 2020-04-18 04:55:19 Terrasse 14.80 13.83 57.40
24687 2020-04-18 04:27:03 Terrasse 14.90 13.93 56.90
24686 2020-04-18 03:58:49 Terrasse 15.30 14.35 56.00
24685 2020-04-18 03:30:35 Terrasse 15.70 14.74 54.20
24684 2020-04-18 03:02:23 Terrasse 16.10 15.14 52.80
24683 2020-04-18 02:34:09 Terrasse 16.70 15.76 51.00
24682 2020-04-18 02:05:55 Terrasse 17.20 16.27 49.70
24681 2020-04-18 01:37:40 Terrasse 17.50 16.59 49.10
24680 2020-04-18 01:09:25 Terrasse 17.60 16.69 48.80
24679 2020-04-18 00:41:11 Terrasse 17.70 16.82 49.40
24678 2020-04-18 00:12:57 Terrasse 18.00 17.14 49.10
24677 2020-04-17 23:44:41 Terrasse 18.20 17.37 49.40
24676 2020-04-17 23:16:26 Terrasse 18.20 17.45 52.70
24675 2020-04-17 22:48:12 Terrasse 18.60 17.93 54.20
24674 2020-04-17 22:19:56 Terrasse 18.90 18.10 48.20
24673 2020-04-17 21:51:41 Terrasse 19.20 18.47 49.50
24672 2020-04-17 21:23:26 Terrasse 19.40 18.66 48.50
24671 2020-04-17 20:55:13 Terrasse 19.90 19.21 48.40
24670 2020-04-17 20:27:01 Terrasse 20.70 20.10 48.70
24669 2020-04-17 19:58:49 Terrasse 21.70 21.20 48.80
24668 2020-04-17 19:30:37 Terrasse 22.60 22.12 46.10
24667 2020-04-17 19:02:23 Terrasse 23.00 22.53 45.10
24666 2020-04-17 18:34:10 Terrasse 23.50 23.04 43.40
24665 2020-04-17 18:05:57 Terrasse 24.00 23.53 41.30
24664 2020-04-17 17:37:46 Terrasse 24.90 24.48 39.60
24663 2020-04-17 17:09:35 Terrasse 25.90 25.55 38.30
24662 2020-04-17 16:41:20 Terrasse 26.60 26.59 40.10
24661 2020-04-17 16:13:05 Terrasse 26.90 26.70 38.10
24660 2020-04-17 15:44:53 Terrasse 27.80 27.44 39.10
24659 2020-04-17 15:16:39 Terrasse 28.20 27.76 38.80
24658 2020-04-17 14:48:35 Terrasse 29.80 29.19 37.40
24657 2020-04-17 14:20:08 Terrasse 29.20 28.56 37.20
24656 2020-04-17 13:52:00 Terrasse 28.90 28.32 37.80
24655 2020-04-17 13:23:48 Terrasse 29.60 28.96 37.20
24654 2020-04-17 12:55:10 Terrasse 27.70 27.53 41.90
24653 2020-04-17 12:26:31 Terrasse 23.70 23.34 46.40
24652 2020-04-17 11:58:17 Terrasse 22.90 22.48 47.20
24651 2020-04-17 11:29:39 Terrasse 20.70 20.24 54.10
24650 2020-04-17 11:01:11 Terrasse 18.60 17.96 55.20
24649 2020-04-17 10:32:46 Terrasse 17.00 16.23 56.30
24648 2020-04-17 10:04:27 Terrasse 16.20 15.40 58.40
24647 2020-04-17 09:36:05 Terrasse 15.20 14.34 60.10
24646 2020-04-17 09:07:46 Terrasse 14.50 13.68 64.10
24645 2020-04-17 08:39:24 Terrasse 13.60 12.61 61.00
24644 2020-04-17 08:11:06 Terrasse 13.00 12.05 64.80
24643 2020-04-17 07:42:49 Terrasse 12.80 11.86 66.20
24642 2020-04-17 07:14:34 Terrasse 12.60 11.56 62.80
24641 2020-04-17 06:46:20 Terrasse 12.50 11.37 60.10
24640 2020-04-17 06:18:06 Terrasse 12.60 11.46 59.00
24639 2020-04-17 05:49:53 Terrasse 12.70 11.56 58.60
24638 2020-04-17 05:21:41 Terrasse 13.00 11.85 57.10
24637 2020-04-17 04:53:27 Terrasse 13.10 11.94 56.60
24636 2020-04-17 04:25:15 Terrasse 13.30 12.17 56.80
24635 2020-04-17 03:57:02 Terrasse 13.70 12.56 55.10
24634 2020-04-17 03:28:51 Terrasse 14.40 13.29 53.40
24633 2020-04-17 03:00:40 Terrasse 14.90 13.80 51.90
24632 2020-04-17 02:32:27 Terrasse 15.40 14.32 50.60
24631 2020-04-17 02:04:14 Terrasse 15.70 14.64 50.30
24630 2020-04-17 01:35:59 Terrasse 16.00 14.93 48.70
24629 2020-04-17 01:07:42 Terrasse 16.10 15.02 47.90
24628 2020-04-17 00:39:25 Terrasse 16.10 15.03 48.30
24627 2020-04-17 00:11:09 Terrasse 16.10 15.02 48.20
24626 2020-04-16 23:42:54 Terrasse 16.20 15.12 47.70
24625 2020-04-16 23:14:40 Terrasse 16.40 15.35 48.20
24624 2020-04-16 22:46:25 Terrasse 16.60 15.55 47.30
24623 2020-04-16 22:18:11 Terrasse 17.00 16.00 47.50
24622 2020-04-16 21:49:57 Terrasse 17.40 16.41 46.60
24621 2020-04-16 21:21:43 Terrasse 18.00 17.06 46.10
24620 2020-04-16 20:53:32 Terrasse 18.70 17.81 45.30
24619 2020-04-16 20:25:21 Terrasse 19.50 18.66 44.40
24618 2020-04-16 19:57:12 Terrasse 20.70 19.90 41.00
24617 2020-04-16 19:28:59 Terrasse 21.40 20.56 37.00
24616 2020-04-16 19:00:48 Terrasse 22.20 21.39 35.10
24615 2020-04-16 18:32:35 Terrasse 22.90 22.16 35.20
24614 2020-04-16 18:04:21 Terrasse 23.40 22.80 38.30
24613 2020-04-16 17:36:06 Terrasse 23.50 22.94 39.80
24612 2020-04-16 17:07:49 Terrasse 23.80 23.27 39.50
24611 2020-04-16 16:39:35 Terrasse 24.10 23.59 39.10
24610 2020-04-16 16:11:16 Terrasse 23.90 23.39 40.10
24609 2020-04-16 15:43:01 Terrasse 23.80 23.36 43.10
24608 2020-04-16 15:14:54 Terrasse 25.00 24.52 37.10
24607 2020-04-16 14:46:44 Terrasse 26.50 26.11 34.60
24606 2020-04-16 14:18:17 Terrasse 26.00 25.60 36.10
24605 2020-04-16 13:50:15 Terrasse 25.90 25.50 36.70
24604 2020-04-16 13:21:56 Terrasse 26.30 25.97 37.60
24603 2020-04-16 12:53:15 Terrasse 24.60 24.09 37.30
24602 2020-04-16 12:24:32 Terrasse 20.20 19.34 40.90
24601 2020-04-16 11:56:20 Terrasse 19.70 18.76 39.70
24600 2020-04-16 11:27:40 Terrasse 17.40 16.31 42.60
24599 2020-04-16 10:59:10 Terrasse 15.50 14.31 46.00
24598 2020-04-16 10:30:45 Terrasse 14.20 12.85 44.90
24597 2020-04-16 10:02:23 Terrasse 12.90 11.44 45.60
24596 2020-04-16 09:34:01 Terrasse 11.90 10.33 45.40
24595 2020-04-16 09:05:39 Terrasse 10.80 9.21 49.00
24594 2020-04-16 08:37:17 Terrasse 9.70 8.17 55.40
24593 2020-04-16 08:08:59 Terrasse 9.10 7.60 58.60
24592 2020-04-16 07:40:45 Terrasse 8.70 7.13 57.80
24591 2020-04-16 07:12:31 Terrasse 8.60 6.96 55.40
24590 2020-04-16 06:44:17 Terrasse 8.60 6.93 54.10
24589 2020-04-16 06:16:06 Terrasse 9.00 7.34 52.90
24588 2020-04-16 05:47:53 Terrasse 9.10 7.44 52.50
24587 2020-04-16 05:19:41 Terrasse 9.30 7.66 52.80
24586 2020-04-16 04:51:29 Terrasse 9.60 7.97 51.70
24585 2020-04-16 04:23:17 Terrasse 9.70 8.06 51.20
24584 2020-04-16 03:55:13 Terrasse 10.00 8.36 50.10
24583 2020-04-16 03:26:57 Terrasse 10.30 8.65 48.50
24582 2020-04-16 02:58:44 Terrasse 10.50 8.87 48.60
24581 2020-04-16 02:30:31 Terrasse 10.60 8.98 48.40
24580 2020-04-16 02:02:18 Terrasse 10.80 9.17 47.20
24579 2020-04-16 01:34:06 Terrasse 11.00 9.39 47.20
24578 2020-04-16 01:05:53 Terrasse 11.30 9.72 47.10
24577 2020-04-16 00:37:40 Terrasse 11.40 9.81 46.60
24576 2020-04-16 00:09:26 Terrasse 11.60 10.05 47.20
24575 2020-04-15 23:41:14 Terrasse 11.80 10.25 46.50
24574 2020-04-15 23:13:02 Terrasse 12.10 10.56 45.90
24573 2020-04-15 22:44:49 Terrasse 12.40 10.88 45.30
24572 2020-04-15 22:16:35 Terrasse 12.80 11.29 44.40
24571 2020-04-15 21:48:23 Terrasse 13.20 11.69 42.50
24570 2020-04-15 21:20:12 Terrasse 13.80 12.35 42.80
24569 2020-04-15 20:51:59 Terrasse 14.40 12.97 41.10
24568 2020-04-15 20:23:48 Terrasse 15.20 13.84 40.90
24567 2020-04-15 19:55:37 Terrasse 16.00 14.66 38.50
24566 2020-04-15 19:27:27 Terrasse 16.90 15.60 36.70
24565 2020-04-15 18:59:15 Terrasse 17.60 16.33 35.10
24564 2020-04-15 18:31:03 Terrasse 18.30 17.08 34.40
24563 2020-04-15 18:02:52 Terrasse 19.00 17.85 34.20
24562 2020-04-15 17:34:40 Terrasse 19.50 18.37 33.10
24561 2020-04-15 17:06:22 Terrasse 19.60 18.53 35.20
24560 2020-04-15 16:38:06 Terrasse 19.40 18.25 32.90
24559 2020-04-15 16:09:53 Terrasse 19.90 18.81 33.30
24558 2020-04-15 15:41:39 Terrasse 20.10 18.98 31.30
24557 2020-04-15 15:13:26 Terrasse 20.50 19.45 32.20
24556 2020-04-15 14:45:23 Terrasse 22.30 21.37 30.10
24555 2020-04-15 14:17:00 Terrasse 22.00 21.11 32.80
24554 2020-04-15 13:48:59 Terrasse 21.50 20.56 32.60
24553 2020-04-15 13:20:52 Terrasse 22.40 21.54 32.30
24552 2020-04-15 12:52:07 Terrasse 19.70 18.63 34.60
24551 2020-04-15 12:23:24 Terrasse 15.50 14.12 39.00
24550 2020-04-15 11:55:10 Terrasse 14.50 13.04 39.70
24549 2020-04-15 11:26:45 Terrasse 13.10 11.53 40.60
24548 2020-04-15 10:58:14 Terrasse 11.30 9.60 42.70
24547 2020-04-15 10:29:51 Terrasse 10.40 8.63 43.30
24546 2020-04-15 10:01:29 Terrasse 9.40 7.63 47.20
24545 2020-04-15 09:33:10 Terrasse 8.50 6.68 48.90
24544 2020-04-15 09:04:49 Terrasse 7.70 5.82 49.40
24543 2020-04-15 08:36:30 Terrasse 7.00 5.11 51.70
24542 2020-04-15 08:08:13 Terrasse 6.40 4.49 53.50
24541 2020-04-15 07:39:56 Terrasse 5.90 3.95 53.90
24540 2020-04-15 07:11:39 Terrasse 5.30 3.31 54.70
24539 2020-04-15 06:43:25 Terrasse 5.20 3.19 54.00
24538 2020-04-15 06:15:13 Terrasse 5.20 3.19 54.30
24537 2020-04-15 05:47:01 Terrasse 5.40 3.39 53.50
24536 2020-04-15 05:18:48 Terrasse 5.40 3.37 52.50
24535 2020-04-15 04:50:34 Terrasse 5.50 3.48 52.50
24534 2020-04-15 04:22:21 Terrasse 5.60 3.58 52.20
24533 2020-04-15 03:54:08 Terrasse 5.70 3.68 51.90
24532 2020-04-15 03:25:54 Terrasse 5.80 3.80 52.20
24531 2020-04-15 02:57:42 Terrasse 5.90 3.89 51.60
24530 2020-04-15 02:29:29 Terrasse 6.10 4.10 51.20
24529 2020-04-15 02:01:17 Terrasse 6.20 4.20 50.60
24528 2020-04-15 01:33:06 Terrasse 6.40 4.41 50.50
24527 2020-04-15 01:04:52 Terrasse 6.50 4.55 51.30
24526 2020-04-15 00:36:38 Terrasse 6.70 4.73 50.00
24525 2020-04-15 00:08:24 Terrasse 6.60 4.63 50.30
24524 2020-04-14 23:40:12 Terrasse 6.70 4.71 49.20
24523 2020-04-14 23:12:00 Terrasse 7.10 5.17 50.00
24522 2020-04-14 22:43:48 Terrasse 7.40 5.44 47.60
24521 2020-04-14 22:15:37 Terrasse 7.90 6.00 48.10
24520 2020-04-14 21:47:25 Terrasse 8.20 6.31 47.40
24519 2020-04-14 21:19:14 Terrasse 8.40 6.51 46.40
24518 2020-04-14 20:51:04 Terrasse 9.00 7.15 45.70
24517 2020-04-14 20:22:56 Terrasse 10.10 8.32 44.10
24516 2020-04-14 19:54:45 Terrasse 10.90 9.07 39.40
24515 2020-04-14 19:26:33 Terrasse 11.60 9.84 39.10
24514 2020-04-14 18:58:22 Terrasse 12.20 10.53 40.30
24513 2020-04-14 18:30:12 Terrasse 12.90 11.18 35.80
24512 2020-04-14 18:01:58 Terrasse 13.30 11.64 36.60
24511 2020-04-14 17:33:47 Terrasse 13.90 12.29 36.00
24510 2020-04-14 17:05:34 Terrasse 14.00 12.42 36.90
24509 2020-04-14 16:37:19 Terrasse 13.70 12.07 36.30
24508 2020-04-14 16:09:01 Terrasse 13.50 11.82 35.00
24507 2020-04-14 15:40:50 Terrasse 14.40 12.86 36.90
24506 2020-04-14 15:12:42 Terrasse 14.90 13.40 36.60
24505 2020-04-14 14:44:44 Terrasse 16.10 14.71 36.20
24504 2020-04-14 14:16:08 Terrasse 13.10 11.46 38.20
24503 2020-04-14 13:48:00 Terrasse 13.60 12.03 38.80
24502 2020-04-14 13:19:39 Terrasse 12.50 10.82 38.80
24501 2020-04-14 12:51:20 Terrasse 11.60 9.87 40.40
24500 2020-04-14 12:23:02 Terrasse 11.70 10.05 43.20
24499 2020-04-14 11:54:37 Terrasse 10.10 8.35 45.50
24498 2020-04-14 11:26:17 Terrasse 8.90 7.06 46.60
24497 2020-04-14 10:58:06 Terrasse 8.90 7.07 47.00
24496 2020-04-14 10:29:47 Terrasse 8.10 6.18 46.40
24495 2020-04-14 10:01:29 Terrasse 7.40 5.50 49.90
24494 2020-04-14 09:33:07 Terrasse 6.30 4.34 52.00
24493 2020-04-14 09:04:47 Terrasse 5.50 3.49 53.00
24492 2020-04-14 08:36:28 Terrasse 4.70 2.60 52.70
24491 2020-04-14 08:08:09 Terrasse 3.90 1.73 53.00
24490 2020-04-14 07:39:54 Terrasse 3.50 1.30 53.30
24489 2020-04-14 07:11:38 Terrasse 3.20 0.95 52.80
24488 2020-04-14 06:43:23 Terrasse 3.30 1.05 52.30
24487 2020-04-14 06:15:10 Terrasse 3.40 1.16 52.20
24486 2020-04-14 05:46:56 Terrasse 3.50 1.26 51.70
24485 2020-04-14 05:18:43 Terrasse 3.60 1.39 52.70
24484 2020-04-14 04:50:32 Terrasse 3.70 1.48 52.00
24483 2020-04-14 04:22:20 Terrasse 4.00 1.77 50.50
24482 2020-04-14 03:54:11 Terrasse 4.60 2.41 49.60
24481 2020-04-14 03:26:00 Terrasse 5.10 2.91 47.50
24480 2020-04-14 02:57:49 Terrasse 5.60 3.41 45.60
24479 2020-04-14 02:29:39 Terrasse 5.80 3.65 46.50
24478 2020-04-14 02:01:27 Terrasse 6.20 4.07 45.70
24477 2020-04-14 01:33:15 Terrasse 6.20 4.07 45.60
24476 2020-04-14 01:05:04 Terrasse 6.40 4.30 46.20
24475 2020-04-14 00:36:51 Terrasse 6.60 4.49 45.10
24474 2020-04-14 00:08:41 Terrasse 6.80 4.75 46.50
24473 2020-04-13 23:40:30 Terrasse 7.20 5.15 44.80
24472 2020-04-13 23:12:18 Terrasse 7.50 5.48 45.00
24471 2020-04-13 22:44:05 Terrasse 8.00 6.02 44.50
24470 2020-04-13 22:15:52 Terrasse 8.50 6.55 43.70
24469 2020-04-13 21:47:42 Terrasse 9.00 7.09 43.50
24468 2020-04-13 21:19:30 Terrasse 9.50 7.58 41.10
24467 2020-04-13 20:51:19 Terrasse 10.00 8.09 39.60
24466 2020-04-13 20:23:08 Terrasse 10.60 8.76 40.00
24465 2020-04-13 19:54:57 Terrasse 11.40 9.61 38.80
24464 2020-04-13 19:26:46 Terrasse 12.00 10.28 39.10
24463 2020-04-13 18:58:35 Terrasse 12.70 11.03 38.30
24462 2020-04-13 18:30:26 Terrasse 13.30 11.70 39.00
24461 2020-04-13 18:02:15 Terrasse 13.80 12.30 40.90
24460 2020-04-13 17:34:04 Terrasse 14.30 12.87 41.60
24459 2020-04-13 17:05:48 Terrasse 14.40 13.04 43.90
24458 2020-04-13 16:37:34 Terrasse 14.30 13.03 47.60
24457 2020-04-13 16:09:17 Terrasse 13.90 12.74 53.30
24456 2020-04-13 15:40:56 Terrasse 12.70 11.68 63.30
24455 2020-04-13 15:12:35 Terrasse 11.70 10.93 76.70
24454 2020-04-13 14:44:22 Terrasse 12.00 11.28 77.60
24453 2020-04-13 14:16:07 Terrasse 12.30 11.52 74.10
24452 2020-04-13 13:47:56 Terrasse 12.80 12.36 85.30
24451 2020-04-13 13:19:46 Terrasse 13.50 12.80 72.40
24450 2020-04-13 12:51:30 Terrasse 13.60 12.99 75.50
24449 2020-04-13 12:23:15 Terrasse 13.50 13.26 90.00
24448 2020-04-13 11:55:01 Terrasse 13.60 13.48 94.20
24447 2020-04-13 11:26:46 Terrasse 13.50 13.30 91.70
24446 2020-04-13 10:58:33 Terrasse 13.80 13.03 68.70
24445 2020-04-13 10:30:20 Terrasse 14.10 13.05 56.90
24444 2020-04-13 10:02:07 Terrasse 14.50 13.43 54.70
24443 2020-04-13 09:33:54 Terrasse 14.70 13.53 50.10
24442 2020-04-13 09:05:52 Terrasse 14.90 13.74 49.70
24441 2020-04-13 08:37:32 Terrasse 14.70 13.54 50.20
24440 2020-04-13 08:09:16 Terrasse 14.60 13.39 49.00
24439 2020-04-13 07:41:00 Terrasse 14.40 13.20 50.10
24438 2020-04-13 07:12:45 Terrasse 14.40 13.22 50.60
24437 2020-04-13 06:44:32 Terrasse 14.60 13.38 48.30
24436 2020-04-13 06:16:18 Terrasse 14.70 13.44 46.50
24435 2020-04-13 05:48:05 Terrasse 15.00 13.74 45.50
24434 2020-04-13 05:19:50 Terrasse 15.00 13.69 43.30
24433 2020-04-13 04:51:37 Terrasse 15.00 13.67 42.80
24432 2020-04-13 04:23:21 Terrasse 14.80 13.43 41.80
24431 2020-04-13 03:55:05 Terrasse 14.70 13.33 42.30
24430 2020-04-13 03:26:52 Terrasse 14.80 13.45 42.70
24429 2020-04-13 02:58:38 Terrasse 14.90 13.59 43.70
24428 2020-04-13 02:30:24 Terrasse 15.10 13.80 43.40
24427 2020-04-13 02:02:10 Terrasse 15.40 14.13 43.50
24426 2020-04-13 01:33:58 Terrasse 15.70 14.47 44.00
24425 2020-04-13 01:05:43 Terrasse 15.90 14.69 43.80
24424 2020-04-13 00:37:28 Terrasse 16.00 14.75 41.90
24423 2020-04-13 00:09:12 Terrasse 16.00 14.79 43.30
24422 2020-04-12 23:41:00 Terrasse 16.30 15.16 45.00
24421 2020-04-12 23:12:48 Terrasse 16.50 15.44 47.30
24420 2020-04-12 22:44:35 Terrasse 16.80 15.75 46.70
24419 2020-04-12 22:16:24 Terrasse 17.20 16.17 45.90
24418 2020-04-12 21:48:11 Terrasse 17.60 16.59 44.90
24417 2020-04-12 21:20:00 Terrasse 18.20 17.27 45.90
24416 2020-04-12 20:51:49 Terrasse 18.90 18.02 45.10
24415 2020-04-12 20:23:39 Terrasse 19.90 19.12 45.00
24414 2020-04-12 19:55:28 Terrasse 20.60 19.77 40.40
24413 2020-04-12 19:27:17 Terrasse 21.30 20.50 39.00
24412 2020-04-12 18:59:06 Terrasse 22.00 21.24 37.80
24411 2020-04-12 18:31:08 Terrasse 23.40 22.56 29.20
24410 2020-04-12 18:03:04 Terrasse 24.30 23.53 28.50
24409 2020-04-12 17:34:48 Terrasse 24.90 24.22 29.80
24408 2020-04-12 17:06:51 Terrasse 24.90 24.26 31.20
24407 2020-04-12 16:38:27 Terrasse 25.10 24.51 32.20
24406 2020-04-12 16:10:10 Terrasse 25.00 24.44 34.00
24405 2020-04-12 15:41:51 Terrasse 25.10 24.55 33.90
24404 2020-04-12 15:13:29 Terrasse 24.30 23.71 35.40
24403 2020-04-12 14:45:20 Terrasse 25.10 24.56 34.40
24402 2020-04-12 14:17:14 Terrasse 25.30 24.77 33.70
24401 2020-04-12 13:48:53 Terrasse 24.60 24.03 35.10
24400 2020-04-12 13:20:59 Terrasse 26.60 26.41 35.90
24399 2020-04-12 12:52:32 Terrasse 26.80 26.55 36.30
24398 2020-04-12 12:24:12 Terrasse 22.30 21.66 41.30
24397 2020-04-12 11:55:46 Terrasse 21.80 21.12 41.40
24396 2020-04-12 11:27:15 Terrasse 20.90 20.14 41.80
24395 2020-04-12 10:58:46 Terrasse 19.30 18.40 42.50
24394 2020-04-12 10:30:32 Terrasse 17.70 16.66 43.50
24393 2020-04-12 10:02:23 Terrasse 16.30 15.12 43.60
24392 2020-04-12 09:33:53 Terrasse 15.10 13.85 45.20
24391 2020-04-12 09:05:59 Terrasse 14.60 13.48 52.40
24390 2020-04-12 08:37:30 Terrasse 14.00 12.83 52.60
24389 2020-04-12 08:09:12 Terrasse 13.50 12.20 49.40
24388 2020-04-12 07:40:57 Terrasse 13.10 11.74 48.80
24387 2020-04-12 07:12:41 Terrasse 13.10 11.70 47.10
24386 2020-04-12 06:44:27 Terrasse 13.00 11.56 46.10
24385 2020-04-12 06:16:13 Terrasse 13.10 11.65 45.30
24384 2020-04-12 05:47:58 Terrasse 13.30 11.86 45.10
24383 2020-04-12 05:19:55 Terrasse 13.30 11.85 44.60
24382 2020-04-12 04:51:37 Terrasse 13.40 11.95 44.20
24381 2020-04-12 04:23:23 Terrasse 13.40 11.95 44.10
24380 2020-04-12 03:55:09 Terrasse 13.60 12.14 42.90
24379 2020-04-12 03:26:54 Terrasse 13.70 12.24 42.70
24378 2020-04-12 02:58:41 Terrasse 14.00 12.55 42.10
24377 2020-04-12 02:30:27 Terrasse 14.00 12.52 40.90
24376 2020-04-12 02:02:14 Terrasse 14.20 12.72 40.10
24375 2020-04-12 01:34:00 Terrasse 14.40 12.92 39.40
24374 2020-04-12 01:05:47 Terrasse 14.50 13.00 38.20
24373 2020-04-12 00:37:35 Terrasse 14.70 13.22 37.90
24372 2020-04-12 00:09:32 Terrasse 15.00 13.53 37.20
24371 2020-04-11 23:41:28 Terrasse 15.40 13.96 36.80
24370 2020-04-11 23:13:22 Terrasse 15.80 14.42 37.70
24369 2020-04-11 22:45:17 Terrasse 16.30 14.95 37.00
24368 2020-04-11 22:17:12 Terrasse 16.80 15.50 37.10
24367 2020-04-11 21:48:53 Terrasse 17.00 15.73 37.20
24366 2020-04-11 21:20:41 Terrasse 17.40 16.15 36.40
24365 2020-04-11 20:52:43 Terrasse 18.10 16.94 37.50
24364 2020-04-11 20:24:43 Terrasse 19.20 18.16 37.70
24363 2020-04-11 19:56:30 Terrasse 20.40 19.41 34.90
24362 2020-04-11 19:28:20 Terrasse 21.50 20.52 31.20
24361 2020-04-11 19:00:20 Terrasse 22.10 21.17 30.90
24360 2020-04-11 18:32:02 Terrasse 22.60 21.72 30.80
24359 2020-04-11 18:03:49 Terrasse 23.10 22.26 30.50
24358 2020-04-11 17:35:38 Terrasse 24.10 23.40 31.80
24357 2020-04-11 17:07:25 Terrasse 24.60 23.95 31.80
24356 2020-04-11 16:39:10 Terrasse 25.10 24.48 31.20
24355 2020-04-11 16:10:55 Terrasse 25.50 24.92 31.10
24354 2020-04-11 15:42:51 Terrasse 25.60 25.02 30.70
24353 2020-04-11 15:14:42 Terrasse 26.70 26.20 28.90
24352 2020-04-11 14:46:37 Terrasse 28.70 27.54 28.30
24351 2020-04-11 14:18:08 Terrasse 27.70 26.81 28.30
24350 2020-04-11 13:50:06 Terrasse 27.80 26.90 28.80
24349 2020-04-11 13:22:07 Terrasse 28.60 27.45 27.90
24348 2020-04-11 12:53:35 Terrasse 26.60 26.22 31.10
24347 2020-04-11 12:24:47 Terrasse 22.10 21.26 34.10
24346 2020-04-11 11:56:38 Terrasse 21.60 20.73 35.00
24345 2020-04-11 11:28:08 Terrasse 19.40 18.40 38.50
24344 2020-04-11 10:59:39 Terrasse 17.70 16.59 40.80
24343 2020-04-11 10:31:14 Terrasse 16.30 15.04 40.30
24342 2020-04-11 10:02:53 Terrasse 15.20 13.83 40.50
24341 2020-04-11 09:34:33 Terrasse 14.30 12.86 41.20
24340 2020-04-11 09:06:15 Terrasse 13.70 12.20 41.20
24339 2020-04-11 08:37:56 Terrasse 12.90 11.30 40.50
24338 2020-04-11 08:09:36 Terrasse 12.10 10.43 40.60
24337 2020-04-11 07:41:19 Terrasse 11.50 9.77 40.80
24336 2020-04-11 07:13:05 Terrasse 11.40 9.63 39.50
24335 2020-04-11 06:44:52 Terrasse 11.60 9.81 37.90
24334 2020-04-11 06:16:39 Terrasse 12.00 10.25 37.90
24333 2020-04-11 05:48:26 Terrasse 12.40 10.64 36.00
24332 2020-04-11 05:20:13 Terrasse 12.70 10.93 34.60
24331 2020-04-11 04:52:00 Terrasse 12.70 10.98 36.40
24330 2020-04-11 04:23:48 Terrasse 13.20 11.48 34.60
24329 2020-04-11 03:55:36 Terrasse 13.40 11.73 35.80
24328 2020-04-11 03:27:23 Terrasse 13.70 12.07 36.10
24327 2020-04-11 02:59:10 Terrasse 13.90 12.26 35.20
24326 2020-04-11 02:30:57 Terrasse 14.40 12.77 33.50
24325 2020-04-11 02:02:44 Terrasse 14.80 13.18 32.40
24324 2020-04-11 01:34:32 Terrasse 15.20 13.65 33.50
24323 2020-04-11 01:06:19 Terrasse 15.60 14.12 34.60
24322 2020-04-11 00:38:07 Terrasse 16.10 14.72 36.50
24321 2020-04-11 00:10:04 Terrasse 16.30 14.97 37.60
24320 2020-04-10 23:41:48 Terrasse 16.50 15.18 37.50
24319 2020-04-10 23:13:34 Terrasse 17.00 15.79 39.50
24318 2020-04-10 22:45:20 Terrasse 17.30 16.14 40.20
24317 2020-04-10 22:17:08 Terrasse 17.60 16.49 41.20
24316 2020-04-10 21:48:57 Terrasse 18.10 17.04 41.10
24315 2020-04-10 21:20:56 Terrasse 18.70 17.67 40.10
24314 2020-04-10 20:52:41 Terrasse 19.30 18.35 40.90
24313 2020-04-10 20:24:30 Terrasse 20.30 19.44 40.20
24312 2020-04-10 19:56:22 Terrasse 21.40 20.66 40.90
24311 2020-04-10 19:28:21 Terrasse 22.10 21.47 42.40
24310 2020-04-10 19:00:05 Terrasse 23.10 22.41 36.10
24309 2020-04-10 18:32:05 Terrasse 23.90 23.29 36.30
24308 2020-04-10 18:03:49 Terrasse 24.60 24.06 36.20
24307 2020-04-10 17:35:36 Terrasse 25.10 24.61 36.00
24306 2020-04-10 17:07:25 Terrasse 25.80 25.34 34.80
24305 2020-04-10 16:39:11 Terrasse 26.30 25.90 34.90
24304 2020-04-10 16:10:55 Terrasse 26.50 26.35 35.90
24303 2020-04-10 15:42:44 Terrasse 27.50 26.91 33.60
24302 2020-04-10 15:14:33 Terrasse 27.80 27.21 35.20
24301 2020-04-10 14:46:28 Terrasse 29.70 28.60 31.70
24300 2020-04-10 14:18:02 Terrasse 29.10 28.10 32.30
24299 2020-04-10 13:50:07 Terrasse 28.90 28.06 34.30
24298 2020-04-10 13:22:12 Terrasse 29.80 28.92 34.50
24297 2020-04-10 12:53:27 Terrasse 28.20 27.73 38.40
24296 2020-04-10 12:24:44 Terrasse 23.70 23.19 40.70
24295 2020-04-10 11:56:34 Terrasse 23.40 22.87 41.30
24294 2020-04-10 11:27:50 Terrasse 21.00 20.35 45.90
24293 2020-04-10 10:59:34 Terrasse 19.40 18.66 48.30
24292 2020-04-10 10:31:19 Terrasse 18.10 17.25 49.20
24291 2020-04-10 10:02:55 Terrasse 17.00 16.07 50.40
24290 2020-04-10 09:34:32 Terrasse 16.10 15.10 51.20
24289 2020-04-10 09:06:13 Terrasse 15.40 14.36 52.20
24288 2020-04-10 08:37:53 Terrasse 14.70 13.62 53.50
24287 2020-04-10 08:09:33 Terrasse 13.90 12.77 54.40
24286 2020-04-10 07:41:18 Terrasse 13.50 12.35 55.20
24285 2020-04-10 07:13:03 Terrasse 13.50 12.34 55.10
24284 2020-04-10 06:44:50 Terrasse 13.70 12.55 54.40
24283 2020-04-10 06:16:37 Terrasse 13.80 12.63 53.50
24282 2020-04-10 05:48:24 Terrasse 13.90 12.71 52.40
24281 2020-04-10 05:20:21 Terrasse 14.10 12.93 52.20
24280 2020-04-10 04:52:03 Terrasse 14.10 12.92 51.80
24279 2020-04-10 04:24:03 Terrasse 14.10 12.93 52.10
24278 2020-04-10 03:55:46 Terrasse 14.30 13.12 51.10
24277 2020-04-10 03:27:46 Terrasse 14.80 13.65 50.20
24276 2020-04-10 02:59:30 Terrasse 15.00 13.83 49.00
24275 2020-04-10 02:31:28 Terrasse 15.40 14.26 48.40
24274 2020-04-10 02:03:10 Terrasse 15.80 14.69 48.10
24273 2020-04-10 01:35:07 Terrasse 16.10 15.01 47.60
24272 2020-04-10 01:07:02 Terrasse 16.30 15.22 47.30
24271 2020-04-10 00:38:45 Terrasse 16.50 15.41 46.10
24270 2020-04-10 00:10:30 Terrasse 16.80 15.75 46.70
24269 2020-04-09 23:42:17 Terrasse 17.10 16.11 47.70
24268 2020-04-09 23:14:04 Terrasse 17.40 16.45 48.10
24267 2020-04-09 22:45:51 Terrasse 17.70 16.80 48.80
24266 2020-04-09 22:17:39 Terrasse 18.10 17.23 48.50
24265 2020-04-09 21:49:26 Terrasse 18.50 17.68 48.90
24264 2020-04-09 21:21:24 Terrasse 18.80 18.03 49.40
24263 2020-04-09 20:53:06 Terrasse 19.30 18.56 48.90
24262 2020-04-09 20:24:54 Terrasse 19.70 18.98 48.20
24261 2020-04-09 19:56:52 Terrasse 20.00 19.30 47.60
24260 2020-04-09 19:28:35 Terrasse 20.40 19.73 47.10
24259 2020-04-09 19:00:21 Terrasse 20.80 20.13 45.60
24258 2020-04-09 18:32:09 Terrasse 21.30 20.62 43.40
24257 2020-04-09 18:03:56 Terrasse 21.80 21.13 42.00
24256 2020-04-09 17:36:00 Terrasse 22.90 22.29 40.10
24255 2020-04-09 17:07:33 Terrasse 22.50 21.84 39.80
24254 2020-04-09 16:39:21 Terrasse 22.50 21.86 40.30
24253 2020-04-09 16:11:25 Terrasse 23.30 22.71 39.40
24252 2020-04-09 15:43:05 Terrasse 23.80 23.21 37.20
24251 2020-04-09 15:15:07 Terrasse 24.10 23.53 36.80
24250 2020-04-09 14:47:01 Terrasse 25.80 25.41 37.20
24249 2020-04-09 14:18:52 Terrasse 26.80 26.54 36.00
24248 2020-04-09 13:50:41 Terrasse 26.30 25.99 38.50
24247 2020-04-09 13:22:11 Terrasse 23.50 22.95 39.90
24246 2020-04-09 12:54:09 Terrasse 24.50 24.03 39.40
24245 2020-04-09 12:25:42 Terrasse 23.00 22.47 42.50
24244 2020-04-09 11:57:19 Terrasse 21.00 20.32 44.50
24243 2020-04-09 11:28:55 Terrasse 19.40 18.60 46.20
24242 2020-04-09 11:00:41 Terrasse 19.50 18.73 46.80
24241 2020-04-09 10:32:26 Terrasse 18.00 17.13 48.70
24240 2020-04-09 10:04:35 Terrasse 16.90 15.93 49.30
24239 2020-04-09 09:35:56 Terrasse 15.80 14.74 50.00
24238 2020-04-09 09:07:45 Terrasse 15.10 13.96 49.60
24237 2020-04-09 08:39:24 Terrasse 14.50 13.31 50.10
24236 2020-04-09 08:11:07 Terrasse 14.00 12.82 52.40
24235 2020-04-09 07:42:51 Terrasse 13.60 12.35 51.20
24234 2020-04-09 07:14:37 Terrasse 13.60 12.31 49.70
24233 2020-04-09 06:46:24 Terrasse 13.70 12.38 48.00
24232 2020-04-09 06:18:12 Terrasse 14.00 12.70 47.50
24231 2020-04-09 05:50:10 Terrasse 14.30 13.01 47.00
24230 2020-04-09 05:21:53 Terrasse 14.60 13.32 46.30
24229 2020-04-09 04:53:51 Terrasse 14.80 13.52 45.40
24228 2020-04-09 04:25:47 Terrasse 15.20 13.96 45.50
24227 2020-04-09 03:57:28 Terrasse 15.30 14.06 45.10
24226 2020-04-09 03:29:13 Terrasse 15.30 14.03 43.90
24225 2020-04-09 03:01:09 Terrasse 15.40 14.14 44.00
24224 2020-04-09 02:33:01 Terrasse 15.40 14.13 43.50
24223 2020-04-09 02:04:54 Terrasse 15.40 14.12 43.10
24222 2020-04-09 01:36:48 Terrasse 15.50 14.24 43.50
24221 2020-04-09 01:08:41 Terrasse 15.80 14.56 42.90
24220 2020-04-09 00:40:35 Terrasse 16.00 14.78 43.20
24219 2020-04-09 00:12:19 Terrasse 16.30 15.10 42.70
24218 2020-04-08 23:44:17 Terrasse 16.50 15.29 41.70
24217 2020-04-08 23:16:13 Terrasse 16.90 15.75 42.20
24216 2020-04-08 22:47:56 Terrasse 17.10 15.96 42.00
24215 2020-04-08 22:19:43 Terrasse 17.50 16.39 41.70
24214 2020-04-08 21:51:37 Terrasse 17.90 16.85 42.40
24213 2020-04-08 21:23:23 Terrasse 18.40 17.41 42.70
24212 2020-04-08 20:55:13 Terrasse 19.20 18.21 39.60
24211 2020-04-08 20:27:01 Terrasse 20.00 19.08 39.20
24210 2020-04-08 19:58:51 Terrasse 21.00 20.14 37.90
24209 2020-04-08 19:30:40 Terrasse 21.90 21.09 36.30
24208 2020-04-08 19:02:28 Terrasse 22.70 21.87 32.40
24207 2020-04-08 18:34:18 Terrasse 23.60 22.85 32.00
24206 2020-04-08 18:06:06 Terrasse 24.30 23.62 32.00
24205 2020-04-08 17:37:57 Terrasse 25.40 24.78 30.00
24204 2020-04-08 17:09:45 Terrasse 26.20 25.70 31.40
24203 2020-04-08 16:42:06 Terrasse 26.50 25.97 29.30
24202 2020-04-08 16:13:46 Terrasse 27.20 26.53 29.60
24201 2020-04-08 15:45:27 Terrasse 27.70 26.89 30.30
24200 2020-04-08 15:17:20 Terrasse 28.50 27.40 28.60
24199 2020-04-08 14:49:16 Terrasse 30.30 28.97 29.20
24198 2020-04-08 14:20:52 Terrasse 30.30 29.04 30.10
24197 2020-04-08 13:52:38 Terrasse 29.50 28.60 34.10
24196 2020-04-08 13:24:26 Terrasse 29.90 29.05 34.80
24195 2020-04-08 12:55:49 Terrasse 28.40 27.77 36.50
24194 2020-04-08 12:27:15 Terrasse 23.80 23.25 39.00
24193 2020-04-08 11:58:59 Terrasse 23.20 22.65 41.10
24192 2020-04-08 11:30:34 Terrasse 21.20 20.51 43.30
24191 2020-04-08 11:02:06 Terrasse 19.50 18.66 44.10
24190 2020-04-08 10:33:41 Terrasse 18.20 17.27 45.90
24189 2020-04-08 10:05:19 Terrasse 17.10 16.13 48.40
24188 2020-04-08 09:36:58 Terrasse 16.00 14.99 51.10
24187 2020-04-08 09:08:50 Terrasse 15.20 14.18 53.80
24186 2020-04-08 08:40:24 Terrasse 14.30 13.26 56.40
24185 2020-04-08 08:12:05 Terrasse 13.40 12.29 57.10
24184 2020-04-08 07:43:49 Terrasse 12.90 11.78 58.60
24183 2020-04-08 07:15:34 Terrasse 12.90 11.75 57.60
24182 2020-04-08 06:47:20 Terrasse 13.10 11.97 57.60
24181 2020-04-08 06:19:08 Terrasse 13.40 12.28 56.70
24180 2020-04-08 05:50:57 Terrasse 13.80 12.70 56.10
24179 2020-04-08 05:22:45 Terrasse 14.10 13.02 55.80
24178 2020-04-08 04:54:32 Terrasse 14.50 13.45 55.30
24177 2020-04-08 04:26:19 Terrasse 14.90 13.89 55.50
24176 2020-04-08 03:58:06 Terrasse 15.10 14.12 55.70
24175 2020-04-08 03:29:54 Terrasse 15.30 14.33 55.30
24174 2020-04-08 03:01:40 Terrasse 15.60 14.65 55.10
24173 2020-04-08 02:33:37 Terrasse 15.90 14.97 54.70
24172 2020-04-08 02:05:20 Terrasse 16.10 15.18 54.00
24171 2020-04-08 01:37:17 Terrasse 16.30 15.38 53.60
24170 2020-04-08 01:09:10 Terrasse 16.60 15.69 52.70
24169 2020-04-08 00:41:05 Terrasse 16.80 15.91 52.70
24168 2020-04-08 00:13:00 Terrasse 17.10 16.25 53.10
24167 2020-04-07 23:44:43 Terrasse 17.40 16.57 52.50
24166 2020-04-07 23:16:28 Terrasse 17.60 16.77 51.90
24165 2020-04-07 22:48:25 Terrasse 17.90 17.07 50.70
24164 2020-04-07 22:20:08 Terrasse 18.20 17.40 50.70
24163 2020-04-07 21:51:54 Terrasse 18.70 17.93 50.00
24162 2020-04-07 21:23:41 Terrasse 19.10 18.37 49.80
24161 2020-04-07 20:55:29 Terrasse 19.50 18.77 48.60
24160 2020-04-07 20:27:16 Terrasse 20.10 19.38 46.40
24159 2020-04-07 19:59:05 Terrasse 20.80 20.10 44.60
24158 2020-04-07 19:30:54 Terrasse 21.50 20.82 42.80
24157 2020-04-07 19:02:43 Terrasse 22.20 21.58 42.40
24156 2020-04-07 18:34:45 Terrasse 23.40 22.85 40.50
24155 2020-04-07 18:06:42 Terrasse 24.30 23.85 40.60
24154 2020-04-07 17:38:24 Terrasse 25.00 24.57 38.70
24153 2020-04-07 17:10:11 Terrasse 25.40 24.98 37.80
24152 2020-04-07 16:41:57 Terrasse 26.00 25.66 38.60
24151 2020-04-07 16:13:57 Terrasse 26.80 26.59 37.20
24150 2020-04-07 15:45:41 Terrasse 27.30 26.90 36.40
24149 2020-04-07 15:17:31 Terrasse 28.10 27.39 34.30
24148 2020-04-07 14:49:28 Terrasse 30.00 29.08 34.00
24147 2020-04-07 14:21:34 Terrasse 29.50 28.73 35.70
24146 2020-04-07 13:53:03 Terrasse 28.80 28.28 38.50
24145 2020-04-07 13:24:55 Terrasse 29.70 29.17 38.30
24144 2020-04-07 12:56:50 Terrasse 28.10 27.89 41.90
24143 2020-04-07 12:27:50 Terrasse 23.50 23.11 46.20
24142 2020-04-07 11:31:18 Terrasse 21.10 20.57 49.90
24141 2020-04-07 11:02:52 Terrasse 19.30 18.65 52.40
24140 2020-04-07 10:34:26 Terrasse 17.70 17.02 57.20
24139 2020-04-07 10:06:16 Terrasse 16.40 15.60 57.80
24138 2020-04-07 09:37:49 Terrasse 15.30 14.38 57.30
24137 2020-04-07 09:09:29 Terrasse 14.40 13.45 59.50
24136 2020-04-07 08:41:07 Terrasse 13.40 12.50 65.40
24135 2020-04-07 08:12:47 Terrasse 12.40 11.73 77.90
24134 2020-04-07 07:44:33 Terrasse 12.00 11.17 73.30
24133 2020-04-07 07:16:20 Terrasse 12.00 10.87 61.80
24132 2020-04-07 06:48:06 Terrasse 12.20 10.94 55.90
24131 2020-04-07 06:19:54 Terrasse 12.50 11.20 53.40
24130 2020-04-07 05:51:41 Terrasse 12.90 11.60 52.00
24129 2020-04-07 05:23:28 Terrasse 13.00 11.70 51.40
24128 2020-04-07 04:55:15 Terrasse 13.20 11.90 50.70
24127 2020-04-07 04:27:03 Terrasse 13.80 12.56 50.90
24126 2020-04-07 03:58:50 Terrasse 14.10 12.88 50.30
24125 2020-04-07 03:30:35 Terrasse 14.10 12.81 47.70
24124 2020-04-07 03:02:21 Terrasse 14.20 12.86 45.50
24123 2020-04-07 02:34:07 Terrasse 14.30 12.92 43.40
24122 2020-04-07 02:05:55 Terrasse 14.40 12.94 40.00
24121 2020-04-07 01:37:40 Terrasse 14.40 12.92 39.40
24120 2020-04-07 01:09:27 Terrasse 14.40 12.99 42.10
24119 2020-04-07 00:41:14 Terrasse 14.60 13.21 41.90
24118 2020-04-07 00:13:00 Terrasse 14.90 13.55 42.30
24117 2020-04-06 23:44:57 Terrasse 15.30 13.94 40.50
24116 2020-04-06 23:16:40 Terrasse 15.80 14.44 38.40
24115 2020-04-06 22:48:28 Terrasse 16.10 14.74 37.40
24114 2020-04-06 22:20:14 Terrasse 16.40 15.02 35.50
24113 2020-04-06 21:52:13 Terrasse 16.50 15.15 36.10
24112 2020-04-06 21:23:55 Terrasse 16.90 15.64 38.20
24111 2020-04-06 20:55:44 Terrasse 17.70 16.47 36.20
24110 2020-04-06 20:27:36 Terrasse 18.60 17.43 35.10
24109 2020-04-06 19:59:27 Terrasse 19.90 18.73 30.20
24108 2020-04-06 19:31:14 Terrasse 20.60 19.46 28.50
24107 2020-04-06 19:03:03 Terrasse 21.30 20.22 28.00
24106 2020-04-06 18:34:52 Terrasse 22.10 21.11 28.40
24105 2020-04-06 18:06:41 Terrasse 22.90 21.99 28.60
24104 2020-04-06 17:38:28 Terrasse 23.50 22.64 28.30
24103 2020-04-06 17:10:26 Terrasse 23.70 22.89 29.40
24102 2020-04-06 16:42:06 Terrasse 24.10 23.34 29.60
24101 2020-04-06 16:14:01 Terrasse 24.70 24.03 31.00
24100 2020-04-06 15:45:42 Terrasse 25.00 24.39 31.80
24099 2020-04-06 15:17:34 Terrasse 25.60 25.08 33.30
24098 2020-04-06 14:49:20 Terrasse 27.10 26.58 32.50
24097 2020-04-06 14:21:06 Terrasse 27.80 27.16 34.30
24096 2020-04-06 13:52:49 Terrasse 25.80 25.30 33.30
24095 2020-04-06 13:24:39 Terrasse 26.90 26.50 33.50
24094 2020-04-06 12:56:28 Terrasse 25.80 25.33 34.10
24093 2020-04-06 12:27:24 Terrasse 20.20 19.35 41.30
24092 2020-04-06 11:59:12 Terrasse 19.10 18.22 44.10
24091 2020-04-06 11:30:34 Terrasse 17.20 16.27 49.50
24090 2020-04-06 11:02:24 Terrasse 15.70 14.46 43.50
24089 2020-04-06 10:33:56 Terrasse 14.40 13.04 43.70
24088 2020-04-06 10:05:35 Terrasse 13.20 11.72 43.90
24087 2020-04-06 09:37:13 Terrasse 12.20 10.66 45.50
24086 2020-04-06 09:08:53 Terrasse 11.40 9.87 49.00
24085 2020-04-06 08:40:31 Terrasse 10.50 8.94 51.30
24084 2020-04-06 08:12:12 Terrasse 9.80 8.15 50.30
24083 2020-04-06 07:43:57 Terrasse 9.30 7.59 50.10
24082 2020-04-06 07:15:42 Terrasse 9.20 7.47 49.40
24081 2020-04-06 06:47:28 Terrasse 9.30 7.56 48.90
24080 2020-04-06 06:19:15 Terrasse 9.50 7.76 48.00
24079 2020-04-06 05:51:01 Terrasse 9.70 7.97 47.50
24078 2020-04-06 05:22:48 Terrasse 9.80 8.07 47.20
24077 2020-04-06 04:54:35 Terrasse 10.10 8.37 46.10
24076 2020-04-06 04:26:22 Terrasse 10.30 8.56 44.90
24075 2020-04-06 03:58:11 Terrasse 10.50 8.78 45.00
24074 2020-04-06 03:29:58 Terrasse 10.80 9.11 44.80
24073 2020-04-06 03:01:45 Terrasse 11.10 9.43 44.60
24072 2020-04-06 02:33:33 Terrasse 11.50 9.84 43.60
24071 2020-04-06 02:05:21 Terrasse 11.90 10.25 42.40
24070 2020-04-06 01:37:08 Terrasse 12.20 10.57 42.00
24069 2020-04-06 01:08:56 Terrasse 12.50 10.90 42.10
24068 2020-04-06 00:40:42 Terrasse 12.80 11.20 40.70
24067 2020-04-06 00:12:29 Terrasse 13.10 11.53 40.80
24066 2020-04-05 23:44:17 Terrasse 13.40 11.83 39.80
24065 2020-04-05 23:16:05 Terrasse 13.70 12.18 40.40
24064 2020-04-05 22:47:53 Terrasse 14.00 12.48 39.10
24063 2020-04-05 22:19:40 Terrasse 14.30 12.81 39.30
24062 2020-04-05 21:51:27 Terrasse 14.70 13.24 38.70
24061 2020-04-05 21:23:15 Terrasse 15.10 13.67 38.40
24060 2020-04-05 20:55:03 Terrasse 15.80 14.43 38.00
24059 2020-04-05 20:26:52 Terrasse 16.50 15.15 36.30
24058 2020-04-05 19:58:41 Terrasse 17.30 16.05 37.10
24057 2020-04-05 19:30:29 Terrasse 18.00 16.78 35.30
24056 2020-04-05 19:02:18 Terrasse 18.80 17.65 35.10
24055 2020-04-05 18:34:11 Terrasse 19.70 18.58 32.60
24054 2020-04-05 18:06:14 Terrasse 20.90 19.91 33.10
24053 2020-04-05 17:37:59 Terrasse 21.70 20.77 32.20
24052 2020-04-05 17:09:49 Terrasse 22.40 21.54 32.20
24051 2020-04-05 16:41:34 Terrasse 22.60 21.79 33.40
24050 2020-04-05 16:13:20 Terrasse 23.00 22.19 31.80
24049 2020-04-05 15:45:07 Terrasse 23.60 22.87 32.70
24048 2020-04-05 15:17:07 Terrasse 24.20 23.50 31.40
24047 2020-04-05 14:48:54 Terrasse 25.90 25.37 31.50
24046 2020-04-05 14:20:37 Terrasse 25.30 24.75 33.00
24045 2020-04-05 13:52:22 Terrasse 24.90 24.34 34.40
24044 2020-04-05 13:24:11 Terrasse 26.10 25.66 34.40
24043 2020-04-05 12:55:43 Terrasse 24.50 23.97 37.00
24042 2020-04-05 12:26:43 Terrasse 18.80 17.82 41.40
24041 2020-04-05 11:58:35 Terrasse 18.10 17.06 41.90
24040 2020-04-05 11:29:54 Terrasse 15.70 14.52 45.90
24039 2020-04-05 11:01:26 Terrasse 13.70 12.40 49.00
24038 2020-04-05 10:33:01 Terrasse 12.20 10.77 49.60
24037 2020-04-05 10:04:41 Terrasse 11.20 9.69 50.50
24036 2020-04-05 09:36:19 Terrasse 10.20 8.63 51.70
24035 2020-04-05 09:07:59 Terrasse 9.50 7.89 52.90
24034 2020-04-05 08:39:40 Terrasse 8.90 7.25 53.80
24033 2020-04-05 08:11:20 Terrasse 8.30 6.62 54.90
24032 2020-04-05 07:43:05 Terrasse 8.10 6.40 54.90
24031 2020-04-05 07:14:50 Terrasse 8.10 6.39 54.50
24030 2020-04-05 06:46:35 Terrasse 8.20 6.48 53.60
24029 2020-04-05 06:18:22 Terrasse 8.30 6.58 53.50
24028 2020-04-05 05:50:09 Terrasse 8.50 6.79 53.00
24027 2020-04-05 05:21:55 Terrasse 8.70 7.00 52.80
24026 2020-04-05 04:53:41 Terrasse 8.80 7.09 52.00
24025 2020-04-05 04:25:27 Terrasse 8.90 7.20 51.90
24024 2020-04-05 03:57:13 Terrasse 9.00 7.32 52.10
24023 2020-04-05 03:28:58 Terrasse 9.20 7.51 51.30
24022 2020-04-05 03:00:44 Terrasse 9.30 7.62 51.20
24021 2020-04-05 02:32:28 Terrasse 9.50 7.83 50.90
24020 2020-04-05 02:04:14 Terrasse 9.60 7.93 50.20
24019 2020-04-05 01:36:00 Terrasse 9.70 8.02 49.70
24018 2020-04-05 01:07:46 Terrasse 9.90 8.24 49.50
24017 2020-04-05 00:39:31 Terrasse 10.00 8.33 48.80
24016 2020-04-05 00:11:17 Terrasse 10.10 8.44 48.80
24015 2020-04-04 23:43:05 Terrasse 10.30 8.66 48.80
24014 2020-04-04 23:14:52 Terrasse 10.60 8.96 47.70
24013 2020-04-04 22:46:39 Terrasse 10.80 9.17 47.20
24012 2020-04-04 22:18:25 Terrasse 11.00 9.39 47.40
24011 2020-04-04 21:50:13 Terrasse 11.50 9.93 46.90
24010 2020-04-04 21:22:00 Terrasse 11.90 10.33 45.30
24009 2020-04-04 20:53:49 Terrasse 12.40 10.87 45.00
24008 2020-04-04 20:25:37 Terrasse 12.90 11.39 43.90
24007 2020-04-04 19:57:26 Terrasse 13.70 12.26 43.60
24006 2020-04-04 19:29:13 Terrasse 14.20 12.79 42.80
24005 2020-04-04 19:01:03 Terrasse 14.90 13.57 43.00
24004 2020-04-04 18:32:54 Terrasse 16.00 14.66 38.30
24003 2020-04-04 18:04:43 Terrasse 16.90 15.62 37.40
24002 2020-04-04 17:36:43 Terrasse 17.60 16.39 37.20
24001 2020-04-04 17:08:27 Terrasse 18.10 16.97 38.30
24000 2020-04-04 16:40:13 Terrasse 18.30 17.14 36.60
23999 2020-04-04 16:11:56 Terrasse 18.50 17.35 36.30
23998 2020-04-04 15:43:45 Terrasse 19.30 18.28 38.10
23997 2020-04-04 15:15:36 Terrasse 19.50 18.47 37.10
23996 2020-04-04 14:47:27 Terrasse 21.10 20.25 37.60
23995 2020-04-04 14:19:10 Terrasse 20.90 20.06 38.80
23994 2020-04-04 13:50:57 Terrasse 20.30 19.37 37.90
23993 2020-04-04 13:22:47 Terrasse 21.80 21.07 39.80
23992 2020-04-04 12:54:14 Terrasse 20.00 19.17 42.50
23991 2020-04-04 12:25:23 Terrasse 15.20 14.00 46.80
23990 2020-04-04 11:57:11 Terrasse 14.60 13.39 48.70
23989 2020-04-04 11:28:47 Terrasse 12.90 11.63 53.00
23988 2020-04-04 11:00:18 Terrasse 10.90 9.51 55.90
23987 2020-04-04 10:31:55 Terrasse 9.50 8.11 61.40
23986 2020-04-04 10:03:32 Terrasse 8.20 6.80 66.10
23985 2020-04-04 09:35:10 Terrasse 7.20 5.88 73.00
23984 2020-04-04 09:06:47 Terrasse 6.10 4.68 73.40
23983 2020-04-04 08:38:25 Terrasse 5.20 3.87 80.30
23982 2020-04-04 08:10:07 Terrasse 4.50 3.19 83.70
23981 2020-04-04 07:41:52 Terrasse 4.20 2.80 81.50
23980 2020-04-04 07:13:40 Terrasse 4.40 2.92 77.70
23979 2020-04-04 06:45:27 Terrasse 4.60 3.07 74.90
23978 2020-04-04 06:17:16 Terrasse 5.00 3.43 71.90
23977 2020-04-04 05:49:04 Terrasse 5.40 3.72 66.00
23976 2020-04-04 05:20:51 Terrasse 5.80 4.10 63.80
23975 2020-04-04 04:52:38 Terrasse 5.90 4.16 61.80
23974 2020-04-04 04:24:24 Terrasse 5.90 4.11 60.00
23973 2020-04-04 03:56:10 Terrasse 6.10 4.29 58.50
23972 2020-04-04 03:27:57 Terrasse 6.10 4.27 57.50
23971 2020-04-04 02:59:43 Terrasse 6.20 4.38 57.60
23970 2020-04-04 02:31:32 Terrasse 6.60 4.79 56.30
23969 2020-04-04 02:03:17 Terrasse 6.70 4.89 56.20
23968 2020-04-04 01:35:02 Terrasse 6.70 4.91 56.90
23967 2020-04-04 01:06:52 Terrasse 7.00 5.25 57.10
23966 2020-04-04 00:38:40 Terrasse 7.50 5.75 55.20
23965 2020-04-04 00:10:28 Terrasse 7.70 5.97 55.40
23964 2020-04-03 23:42:17 Terrasse 8.00 6.31 55.70
23963 2020-04-03 23:14:05 Terrasse 8.40 6.74 55.50
23962 2020-04-03 22:45:54 Terrasse 8.70 7.07 55.20
23961 2020-04-03 22:17:41 Terrasse 9.00 7.39 55.10
23960 2020-04-03 21:49:28 Terrasse 9.20 7.60 54.70
23959 2020-04-03 21:21:15 Terrasse 9.40 7.82 54.40
23958 2020-04-03 20:53:01 Terrasse 9.70 8.10 52.50
23957 2020-04-03 20:24:48 Terrasse 9.90 8.25 50.10
23956 2020-04-03 19:56:36 Terrasse 10.20 8.53 48.20
23955 2020-04-03 19:28:24 Terrasse 10.50 8.87 48.60
23954 2020-04-03 19:00:12 Terrasse 10.80 9.28 51.50
23953 2020-04-03 18:31:59 Terrasse 11.00 9.47 50.40
23952 2020-04-03 18:03:45 Terrasse 11.00 9.48 50.60
23951 2020-04-03 17:35:32 Terrasse 11.20 9.69 50.20
23950 2020-04-03 17:07:19 Terrasse 11.50 10.00 49.70
23949 2020-04-03 16:39:07 Terrasse 11.60 10.12 49.90
23948 2020-04-03 16:10:57 Terrasse 12.20 10.73 48.20
23947 2020-04-03 15:42:42 Terrasse 12.10 10.64 48.80
23946 2020-04-03 15:14:28 Terrasse 11.70 10.20 48.70
23945 2020-04-03 14:46:18 Terrasse 12.30 10.82 47.30
23944 2020-04-03 14:18:10 Terrasse 13.20 11.78 46.20
23943 2020-04-03 13:49:38 Terrasse 10.90 9.38 51.10
23942 2020-04-03 13:21:24 Terrasse 10.80 9.24 50.00
23941 2020-04-03 12:53:12 Terrasse 11.10 9.54 49.00
23940 2020-04-03 12:24:58 Terrasse 11.00 9.48 50.80
23939 2020-04-03 11:56:49 Terrasse 11.20 9.86 56.90
23938 2020-04-03 11:28:38 Terrasse 11.10 9.75 56.70
23937 2020-04-03 11:00:18 Terrasse 10.30 8.99 61.30
23936 2020-04-03 10:31:56 Terrasse 9.20 7.86 64.60
23935 2020-04-03 10:03:35 Terrasse 8.10 6.72 67.20
23934 2020-04-03 09:35:18 Terrasse 7.40 6.10 73.00
23933 2020-04-03 09:07:01 Terrasse 6.90 5.49 70.50
23932 2020-04-03 08:38:43 Terrasse 6.60 5.18 71.30
23931 2020-04-03 08:10:27 Terrasse 6.40 4.98 72.10
23930 2020-04-03 07:42:12 Terrasse 6.20 4.71 70.20
23929 2020-04-03 07:13:57 Terrasse 6.10 4.54 68.10
23928 2020-04-03 06:45:45 Terrasse 6.20 4.58 65.10
23927 2020-04-03 06:17:32 Terrasse 6.50 4.86 63.20
23926 2020-04-03 05:49:17 Terrasse 6.50 4.80 61.20
23925 2020-04-03 05:21:01 Terrasse 6.20 4.50 62.30
23924 2020-04-03 04:52:46 Terrasse 6.00 4.32 63.60
23923 2020-04-03 04:24:30 Terrasse 5.70 3.97 62.90
23922 2020-04-03 03:56:16 Terrasse 5.70 3.96 62.70
23921 2020-04-03 03:28:03 Terrasse 5.80 4.08 62.90
23920 2020-04-03 02:59:49 Terrasse 5.50 3.74 62.50
23919 2020-04-03 02:31:37 Terrasse 5.90 4.05 57.60
23918 2020-04-03 02:03:26 Terrasse 6.40 4.56 56.10
23917 2020-04-03 01:35:15 Terrasse 6.90 5.04 53.50
23916 2020-04-03 01:07:03 Terrasse 7.30 5.44 51.80
23915 2020-04-03 00:38:49 Terrasse 7.70 5.85 50.80
23914 2020-04-03 00:10:37 Terrasse 8.00 6.15 49.70
23913 2020-04-02 23:42:24 Terrasse 8.30 6.45 48.50
23912 2020-04-02 23:14:11 Terrasse 8.70 6.86 47.30
23911 2020-04-02 22:45:58 Terrasse 9.10 7.28 46.60
23910 2020-04-02 22:17:46 Terrasse 9.50 7.69 45.40
23909 2020-04-02 21:49:34 Terrasse 9.90 8.11 44.50
23908 2020-04-02 21:21:24 Terrasse 10.50 8.75 43.80
23907 2020-04-02 20:53:12 Terrasse 10.80 9.06 43.20
23906 2020-04-02 20:25:01 Terrasse 11.70 10.03 42.20
23905 2020-04-02 19:56:53 Terrasse 12.50 10.85 40.00
23904 2020-04-02 19:28:44 Terrasse 13.50 11.91 38.60
23903 2020-04-02 19:00:46 Terrasse 14.40 12.96 40.70
23902 2020-04-02 18:32:35 Terrasse 15.50 14.02 35.00
23901 2020-04-02 18:04:26 Terrasse 16.70 15.21 30.10
23900 2020-04-02 17:36:15 Terrasse 17.50 16.10 30.30
23899 2020-04-02 17:08:20 Terrasse 17.90 16.53 30.00
23898 2020-04-02 16:40:24 Terrasse 18.50 17.17 29.40
23897 2020-04-02 16:12:06 Terrasse 19.80 18.60 29.40
23896 2020-04-02 15:44:10 Terrasse 19.80 18.62 29.90
23895 2020-04-02 15:16:07 Terrasse 20.50 19.41 30.70
23894 2020-04-02 14:48:25 Terrasse 24.70 23.99 29.30
23893 2020-04-02 14:20:01 Terrasse 24.70 23.99 29.10
23892 2020-04-02 13:51:40 Terrasse 22.50 21.59 30.00
23891 2020-04-02 13:23:30 Terrasse 24.20 23.50 31.40
23890 2020-04-02 12:54:54 Terrasse 21.10 20.14 33.60
23889 2020-04-02 12:25:52 Terrasse 14.70 13.25 39.10
23888 2020-04-02 11:57:41 Terrasse 13.50 11.98 41.00
23887 2020-04-02 11:29:04 Terrasse 11.50 9.80 41.90
23886 2020-04-02 11:00:52 Terrasse 10.10 8.32 44.20
23885 2020-04-02 10:32:24 Terrasse 8.80 6.93 45.90
23884 2020-04-02 10:04:01 Terrasse 7.40 5.43 47.20
23883 2020-04-02 09:35:38 Terrasse 6.00 3.99 51.00
23882 2020-04-02 09:07:17 Terrasse 5.00 2.91 51.80
23881 2020-04-02 08:38:56 Terrasse 3.80 1.67 54.90
23880 2020-04-02 08:10:37 Terrasse 3.00 0.84 57.00
23879 2020-04-02 07:42:23 Terrasse 2.70 0.49 56.20
23878 2020-04-02 07:14:10 Terrasse 2.60 0.35 54.80
23877 2020-04-02 06:45:58 Terrasse 2.90 0.65 53.80
23876 2020-04-02 06:17:45 Terrasse 2.90 0.65 53.60
23875 2020-04-02 05:49:33 Terrasse 3.20 0.97 53.30
23874 2020-04-02 05:21:21 Terrasse 3.40 1.16 52.40
23873 2020-04-02 04:53:08 Terrasse 3.60 1.36 51.30
23872 2020-04-02 04:24:55 Terrasse 3.80 1.56 50.80
23871 2020-04-02 03:56:43 Terrasse 3.90 1.66 50.20
23870 2020-04-02 03:28:30 Terrasse 4.10 1.87 49.90
23869 2020-04-02 03:00:17 Terrasse 4.00 1.76 50.10
23868 2020-04-02 02:32:05 Terrasse 4.40 2.17 49.00
23867 2020-04-02 02:03:52 Terrasse 4.80 2.58 47.70
23866 2020-04-02 01:35:38 Terrasse 4.90 2.68 47.10
23865 2020-04-02 01:07:27 Terrasse 5.30 3.09 46.10
23864 2020-04-02 00:39:16 Terrasse 5.60 3.40 45.30
23863 2020-04-02 00:11:03 Terrasse 6.00 3.83 44.80
23862 2020-04-01 23:42:50 Terrasse 6.30 4.12 43.60
23861 2020-04-01 23:14:37 Terrasse 6.60 4.44 43.10
23860 2020-04-01 22:46:23 Terrasse 6.60 4.43 42.80
23859 2020-04-01 22:18:11 Terrasse 6.90 4.72 41.10
23858 2020-04-01 21:49:59 Terrasse 7.30 5.15 40.80
23857 2020-04-01 21:21:48 Terrasse 7.90 5.82 41.00
23856 2020-04-01 20:53:36 Terrasse 8.40 6.34 39.90
23855 2020-04-01 20:25:27 Terrasse 9.20 7.20 39.30
23854 2020-04-01 19:57:21 Terrasse 10.50 8.54 35.80
23853 2020-04-01 19:29:09 Terrasse 11.30 9.37 33.90
23852 2020-04-01 19:00:59 Terrasse 12.00 10.14 33.70
23851 2020-04-01 18:32:50 Terrasse 13.00 11.20 32.50
23850 2020-04-01 18:04:44 Terrasse 14.30 12.62 31.90
23849 2020-04-01 17:36:47 Terrasse 15.50 13.88 29.80
23848 2020-04-01 17:08:34 Terrasse 16.10 14.55 30.10
23847 2020-04-01 16:40:23 Terrasse 17.20 15.76 30.00
23846 2020-04-01 16:12:08 Terrasse 18.00 16.60 28.60
23845 2020-04-01 15:44:12 Terrasse 18.60 17.28 29.30
23844 2020-04-01 15:16:01 Terrasse 19.30 18.02 28.30
23843 2020-04-01 14:48:29 Terrasse 23.80 22.98 28.60
23842 2020-04-01 14:20:19 Terrasse 23.70 22.85 27.80
23841 2020-04-01 13:51:37 Terrasse 21.10 20.05 30.00
23840 2020-04-01 13:23:42 Terrasse 22.20 21.25 29.80
23839 2020-04-01 12:54:46 Terrasse 19.20 18.02 32.40
23838 2020-04-01 12:25:44 Terrasse 12.50 10.75 36.30
23837 2020-04-01 11:57:33 Terrasse 11.20 9.36 37.80
23836 2020-04-01 11:28:57 Terrasse 9.30 7.33 40.10
23835 2020-04-01 11:00:36 Terrasse 7.90 5.83 41.70
23834 2020-04-01 10:32:11 Terrasse 6.40 4.21 42.50
23833 2020-04-01 10:03:47 Terrasse 5.10 2.83 44.70
23832 2020-04-01 09:35:26 Terrasse 3.90 1.57 46.80
23831 2020-04-01 09:07:05 Terrasse 2.90 0.50 48.20
23830 2020-04-01 08:38:46 Terrasse 2.20 -0.23 49.40
23829 2020-04-01 08:10:26 Terrasse 1.30 -1.17 51.50
23828 2020-04-01 07:42:10 Terrasse 1.00 -1.49 51.70
23827 2020-04-01 07:13:58 Terrasse 1.20 -1.28 51.60
23826 2020-04-01 06:45:44 Terrasse 1.10 -1.41 50.70
23825 2020-04-01 06:17:29 Terrasse 1.10 -1.37 52.40
23824 2020-04-01 05:49:16 Terrasse 1.10 -1.39 51.40
23823 2020-04-01 05:21:04 Terrasse 1.40 -1.08 50.60
23822 2020-04-01 04:52:52 Terrasse 1.50 -0.99 49.80
23821 2020-04-01 04:24:39 Terrasse 1.70 -0.77 50.10
23820 2020-04-01 03:56:26 Terrasse 2.00 -0.45 49.50
23819 2020-04-01 03:28:23 Terrasse 2.20 -0.23 49.60
23818 2020-04-01 03:00:08 Terrasse 2.50 0.08 48.70
23817 2020-04-01 02:31:56 Terrasse 2.70 0.29 48.50
23816 2020-04-01 02:03:45 Terrasse 3.00 0.61 48.00
23815 2020-04-01 01:35:32 Terrasse 3.20 0.82 47.80
23814 2020-04-01 01:07:20 Terrasse 3.30 0.92 47.20
23813 2020-04-01 00:39:09 Terrasse 3.60 1.26 47.60
23812 2020-04-01 00:10:56 Terrasse 3.90 1.58 47.20
23811 2020-03-31 23:42:44 Terrasse 4.20 1.87 45.80
23810 2020-03-31 23:14:32 Terrasse 4.70 2.43 46.10
23809 2020-03-31 22:46:18 Terrasse 5.10 2.87 46.20
23808 2020-03-31 22:18:06 Terrasse 5.50 3.30 45.80
23807 2020-03-31 21:49:54 Terrasse 6.00 3.85 45.70
23806 2020-03-31 21:21:41 Terrasse 6.20 4.07 45.80
23805 2020-03-31 20:53:28 Terrasse 6.30 4.18 45.80
23804 2020-03-31 20:25:18 Terrasse 6.90 4.84 45.70
23803 2020-03-31 19:57:08 Terrasse 7.60 5.59 44.80
23802 2020-03-31 19:28:59 Terrasse 8.70 6.80 44.80
23801 2020-03-31 19:00:49 Terrasse 9.40 7.58 45.40
23800 2020-03-31 18:32:39 Terrasse 10.40 8.74 47.50
23799 2020-03-31 18:04:31 Terrasse 11.00 10.12 75.40
23798 2020-03-31 17:36:22 Terrasse 11.40 11.20 99.90
23797 2020-03-31 17:08:10 Terrasse 10.90 10.65 99.90
23796 2020-03-31 16:40:00 Terrasse 11.20 10.98 99.90
23795 2020-03-31 16:11:34 Terrasse 10.70 10.43 99.90
23794 2020-03-31 15:43:17 Terrasse 14.50 12.95 36.30
23793 2020-03-31 15:15:03 Terrasse 14.20 12.48 30.80
23792 2020-03-31 14:46:45 Terrasse 13.80 12.07 31.90
23791 2020-03-31 14:18:28 Terrasse 13.40 11.68 33.90
23790 2020-03-31 13:50:15 Terrasse 13.00 11.25 34.30
23789 2020-03-31 13:21:46 Terrasse 12.20 10.49 38.70
23788 2020-03-31 12:53:33 Terrasse 12.40 10.68 37.70
23787 2020-03-31 12:25:09 Terrasse 10.60 8.74 39.20
23786 2020-03-31 11:56:59 Terrasse 10.40 8.55 40.20
23785 2020-03-31 11:28:25 Terrasse 8.80 6.90 44.60
23784 2020-03-31 11:00:01 Terrasse 7.30 5.33 47.80
23783 2020-03-31 10:31:42 Terrasse 6.50 4.54 51.20
23782 2020-03-31 10:03:27 Terrasse 6.50 4.58 52.80
23781 2020-03-31 09:35:08 Terrasse 5.50 3.51 53.70
23780 2020-03-31 09:06:54 Terrasse 5.40 3.42 54.40
23779 2020-03-31 08:38:37 Terrasse 4.80 2.83 57.10
23778 2020-03-31 08:10:23 Terrasse 4.70 2.76 58.70
23777 2020-03-31 07:42:11 Terrasse 4.80 2.87 58.90
23776 2020-03-31 07:13:59 Terrasse 5.00 3.08 58.40
23775 2020-03-31 06:45:48 Terrasse 5.00 3.09 58.80
23774 2020-03-31 06:17:34 Terrasse 5.20 3.29 58.00
23773 2020-03-31 05:49:19 Terrasse 5.10 3.17 57.80
23772 2020-03-31 05:21:07 Terrasse 5.30 3.38 57.10
23771 2020-03-31 04:52:53 Terrasse 5.40 3.46 56.00
23770 2020-03-31 04:24:39 Terrasse 5.30 3.33 55.30
23769 2020-03-31 03:56:24 Terrasse 5.50 3.53 54.50
23768 2020-03-31 03:28:10 Terrasse 5.80 3.86 54.50
23767 2020-03-31 02:59:55 Terrasse 5.90 3.96 54.10
23766 2020-03-31 02:31:42 Terrasse 6.00 4.05 53.50
23765 2020-03-31 02:03:28 Terrasse 6.10 4.15 52.90
23764 2020-03-31 01:35:15 Terrasse 6.20 4.24 52.10
23763 2020-03-31 01:07:02 Terrasse 6.40 4.37 49.00
23762 2020-03-31 00:38:47 Terrasse 6.30 4.24 48.10
23761 2020-03-31 00:10:33 Terrasse 6.50 4.44 47.30
23760 2020-03-30 23:42:22 Terrasse 6.60 4.54 46.80
23759 2020-03-30 23:14:07 Terrasse 6.70 4.63 46.10
23758 2020-03-30 22:45:55 Terrasse 6.80 4.72 45.40
23757 2020-03-30 22:17:42 Terrasse 6.90 4.82 44.90
23756 2020-03-30 21:49:30 Terrasse 6.90 4.81 44.50
23755 2020-03-30 21:21:18 Terrasse 7.20 5.11 43.30
23754 2020-03-30 20:53:06 Terrasse 7.50 5.42 42.50
23753 2020-03-30 20:24:57 Terrasse 8.00 5.92 40.80
23752 2020-03-30 19:56:47 Terrasse 8.60 6.54 39.30
23751 2020-03-30 19:28:36 Terrasse 9.20 7.16 37.70
23750 2020-03-30 19:00:26 Terrasse 9.60 7.56 36.20
23749 2020-03-30 18:32:16 Terrasse 10.20 8.13 32.60
23748 2020-03-30 18:04:08 Terrasse 11.30 9.30 31.20
23747 2020-03-30 17:35:57 Terrasse 12.00 10.03 29.80
23746 2020-03-30 17:07:44 Terrasse 12.30 10.34 29.00
23745 2020-03-30 16:39:30 Terrasse 12.40 10.43 28.00
23744 2020-03-30 16:11:14 Terrasse 12.90 10.99 28.60
23743 2020-03-30 15:43:01 Terrasse 13.20 11.33 28.80
23742 2020-03-30 15:14:47 Terrasse 13.10 11.22 28.80
23741 2020-03-30 14:46:33 Terrasse 13.30 11.39 27.00
23740 2020-03-30 14:18:15 Terrasse 12.40 10.42 27.90
23739 2020-03-30 13:50:04 Terrasse 12.10 10.09 27.90
23738 2020-03-30 13:21:50 Terrasse 12.40 10.43 28.30
23737 2020-03-30 12:53:14 Terrasse 10.30 8.10 27.30
23736 2020-03-30 12:24:50 Terrasse 8.30 5.94 29.00
23735 2020-03-30 11:56:41 Terrasse 7.70 5.39 33.10
23734 2020-03-30 11:28:11 Terrasse 6.10 3.57 30.70
23733 2020-03-30 10:59:50 Terrasse 4.80 2.17 31.80
23732 2020-03-30 10:31:29 Terrasse 3.80 1.11 33.60
23731 2020-03-30 10:03:11 Terrasse 3.00 0.25 34.30
23730 2020-03-30 09:34:55 Terrasse 2.40 -0.37 35.80
23729 2020-03-30 09:06:40 Terrasse 1.90 -0.91 36.20
23728 2020-03-30 08:38:24 Terrasse 1.30 -1.51 38.50
23727 2020-03-30 08:10:08 Terrasse 0.70 -2.11 40.70
23726 2020-03-30 07:42:02 Terrasse 0.50 -2.32 41.00
23725 2020-03-30 07:13:49 Terrasse 0.50 -2.31 41.70
23724 2020-03-30 06:45:37 Terrasse 0.60 -2.20 41.60
23723 2020-03-30 06:17:26 Terrasse 0.80 -1.98 41.50
23722 2020-03-30 05:49:17 Terrasse 1.10 -1.64 41.90
23721 2020-03-30 05:21:06 Terrasse 1.30 -1.43 41.40
23720 2020-03-30 04:52:56 Terrasse 1.40 -1.31 41.80
23719 2020-03-30 04:24:45 Terrasse 1.70 -0.96 42.70
23718 2020-03-30 03:56:33 Terrasse 1.80 -0.82 43.90
23717 2020-03-30 03:28:38 Terrasse 2.00 -0.58 44.50
23716 2020-03-30 03:00:19 Terrasse 2.20 -0.34 45.20
23715 2020-03-30 02:32:07 Terrasse 2.40 -0.10 46.20
23714 2020-03-30 02:03:56 Terrasse 2.60 0.15 47.20
23713 2020-03-30 01:35:45 Terrasse 2.70 0.27 47.60
23712 2020-03-30 01:07:34 Terrasse 3.10 0.70 47.20
23711 2020-03-30 00:39:24 Terrasse 3.40 1.03 47.20
23710 2020-03-30 00:11:15 Terrasse 3.50 1.15 47.50
23709 2020-03-29 23:43:05 Terrasse 3.80 1.51 49.00
23708 2020-03-29 23:14:53 Terrasse 4.10 1.89 50.70
23707 2020-03-29 22:46:42 Terrasse 4.40 2.27 52.50
23706 2020-03-29 22:18:32 Terrasse 4.70 2.62 53.40
23705 2020-03-29 21:50:21 Terrasse 5.10 3.08 54.10
23704 2020-03-29 21:22:09 Terrasse 5.20 3.21 55.00
23703 2020-03-29 20:54:07 Terrasse 5.50 3.55 55.50
23702 2020-03-29 20:25:54 Terrasse 5.80 3.93 57.40
23701 2020-03-29 19:57:44 Terrasse 6.10 4.28 58.00
23700 2020-03-29 19:29:34 Terrasse 6.60 4.77 55.60
23699 2020-03-29 19:01:24 Terrasse 7.20 5.42 55.20
23698 2020-03-29 18:33:15 Terrasse 7.80 6.04 53.60
23697 2020-03-29 18:05:05 Terrasse 8.60 6.76 47.60
23696 2020-03-29 17:36:58 Terrasse 9.60 7.76 43.70
23695 2020-03-29 17:08:47 Terrasse 10.30 8.44 40.20
23694 2020-03-29 16:40:23 Terrasse 9.20 7.30 43.20
23693 2020-03-29 16:12:07 Terrasse 9.00 7.07 42.60
23692 2020-03-29 15:43:53 Terrasse 9.00 7.10 43.80
23691 2020-03-29 15:15:41 Terrasse 9.10 7.22 44.30
23690 2020-03-29 14:47:27 Terrasse 9.30 7.45 44.60
23689 2020-03-29 14:19:15 Terrasse 9.60 7.78 44.70
23688 2020-03-29 13:51:01 Terrasse 9.60 7.78 44.60
23687 2020-03-29 13:22:59 Terrasse 11.00 9.28 43.00
23686 2020-03-29 12:54:37 Terrasse 9.10 7.21 43.80
23685 2020-03-29 12:26:26 Terrasse 9.40 7.54 43.80
23684 2020-03-29 11:58:10 Terrasse 8.80 6.97 47.40
23683 2020-03-29 11:29:54 Terrasse 8.70 6.90 48.90
23682 2020-03-29 11:01:42 Terrasse 8.60 6.79 48.80
23681 2020-03-29 10:33:23 Terrasse 7.50 5.61 50.00
23680 2020-03-29 10:05:04 Terrasse 6.80 4.88 51.40
23679 2020-03-29 09:36:52 Terrasse 7.00 5.08 50.80
23678 2020-03-29 09:08:37 Terrasse 7.10 5.19 50.90
23677 2020-03-29 08:40:16 Terrasse 6.20 4.20 50.90
23676 2020-03-29 08:11:58 Terrasse 5.40 3.32 50.80
23675 2020-03-29 07:43:43 Terrasse 5.10 2.99 50.60
23674 2020-03-29 07:15:30 Terrasse 5.20 3.09 50.40
23673 2020-03-29 06:47:17 Terrasse 5.30 3.20 50.30
23672 2020-03-29 06:19:03 Terrasse 5.50 3.42 50.30
23671 2020-03-29 05:50:50 Terrasse 5.80 3.74 49.80
23670 2020-03-29 05:22:38 Terrasse 6.30 4.28 49.60
23669 2020-03-29 04:54:27 Terrasse 6.70 4.73 49.80
23668 2020-03-29 04:26:14 Terrasse 7.10 5.16 49.60
23667 2020-03-29 03:58:03 Terrasse 7.50 5.62 50.20
23666 2020-03-29 03:29:49 Terrasse 7.80 5.98 51.50
23665 2020-03-29 03:01:36 Terrasse 8.20 6.38 50.00
23664 2020-03-29 01:33:24 Terrasse 8.60 6.79 49.00
23663 2020-03-29 01:05:13 Terrasse 9.00 7.22 48.30
23662 2020-03-29 00:37:01 Terrasse 9.30 7.55 48.30
23661 2020-03-29 00:08:50 Terrasse 9.70 7.97 47.80
23660 2020-03-28 23:40:39 Terrasse 10.10 8.34 44.80
23659 2020-03-28 23:12:28 Terrasse 10.60 8.80 41.50
23658 2020-03-28 22:44:18 Terrasse 11.10 9.35 41.40
23657 2020-03-28 22:16:07 Terrasse 11.50 9.80 41.90
23656 2020-03-28 21:47:57 Terrasse 12.00 10.33 41.10
23655 2020-03-28 21:19:45 Terrasse 12.50 10.86 40.30
23654 2020-03-28 20:51:33 Terrasse 13.00 11.35 37.90
23653 2020-03-28 20:23:23 Terrasse 13.70 12.09 36.90
23652 2020-03-28 19:55:11 Terrasse 14.30 12.69 34.80
23651 2020-03-28 19:26:59 Terrasse 14.90 13.31 33.20
23650 2020-03-28 18:58:49 Terrasse 15.70 14.18 32.70
23649 2020-03-28 18:30:40 Terrasse 16.80 15.34 31.00
23648 2020-03-28 18:02:31 Terrasse 18.00 16.71 32.60
23647 2020-03-28 17:34:23 Terrasse 19.20 18.03 32.60
23646 2020-03-28 17:06:14 Terrasse 20.50 19.46 32.60
23645 2020-03-28 16:38:16 Terrasse 21.90 21.00 32.60
23644 2020-03-28 16:09:58 Terrasse 22.40 21.52 31.70
23643 2020-03-28 15:41:58 Terrasse 22.70 21.87 32.30
23642 2020-03-28 15:13:44 Terrasse 23.70 22.94 31.30
23641 2020-03-28 14:45:45 Terrasse 24.50 23.83 31.70
23640 2020-03-28 14:17:37 Terrasse 26.50 26.00 30.30
23639 2020-03-28 13:50:00 Terrasse 29.10 27.96 30.10
23638 2020-03-28 13:21:53 Terrasse 29.90 28.67 30.20
23637 2020-03-28 12:53:06 Terrasse 27.90 27.10 31.70
23636 2020-03-28 12:25:04 Terrasse 28.90 28.01 33.60
23635 2020-03-28 11:56:15 Terrasse 26.10 25.72 36.60
23634 2020-03-28 11:27:19 Terrasse 20.60 19.74 39.40
23633 2020-03-28 10:58:59 Terrasse 18.90 17.93 41.60
23632 2020-03-28 10:30:30 Terrasse 17.30 16.18 41.90
23631 2020-03-28 10:02:15 Terrasse 15.60 14.35 43.50
23630 2020-03-28 09:33:48 Terrasse 14.20 12.85 44.90
23629 2020-03-28 09:05:25 Terrasse 12.90 11.46 46.40
23628 2020-03-28 08:37:03 Terrasse 11.60 10.06 47.60
23627 2020-03-28 08:08:41 Terrasse 10.50 8.91 50.00
23626 2020-03-28 07:40:23 Terrasse 9.50 7.93 54.70
23625 2020-03-28 07:12:05 Terrasse 9.00 7.37 54.30
23624 2020-03-28 06:43:53 Terrasse 8.90 7.25 53.70
23623 2020-03-28 06:15:39 Terrasse 9.00 7.33 52.80
23622 2020-03-28 05:47:27 Terrasse 9.20 7.53 51.80
23621 2020-03-28 05:19:16 Terrasse 9.60 7.95 51.20
23620 2020-03-28 04:51:05 Terrasse 9.80 8.17 51.00
23619 2020-03-28 04:22:53 Terrasse 10.20 8.57 49.40
23618 2020-03-28 03:54:41 Terrasse 10.70 9.09 48.60
23617 2020-03-28 03:26:31 Terrasse 11.00 9.39 47.30
23616 2020-03-28 02:58:19 Terrasse 11.20 9.59 46.50
23615 2020-03-28 02:30:07 Terrasse 11.40 9.82 46.80
23614 2020-03-28 02:01:53 Terrasse 11.50 9.92 46.40
23613 2020-03-28 01:33:40 Terrasse 11.70 10.13 46.00
23612 2020-03-28 01:05:28 Terrasse 11.90 10.33 45.50
23611 2020-03-28 00:37:16 Terrasse 12.00 10.44 45.50
23610 2020-03-28 00:09:04 Terrasse 12.20 10.67 45.70
23609 2020-03-27 23:40:51 Terrasse 12.40 10.87 45.00
23608 2020-03-27 23:12:59 Terrasse 12.60 11.08 44.50
23607 2020-03-27 22:44:49 Terrasse 12.90 11.41 44.60
23606 2020-03-27 22:16:32 Terrasse 13.10 11.62 44.30
23605 2020-03-27 21:48:19 Terrasse 13.40 11.94 44.00
23604 2020-03-27 21:20:06 Terrasse 13.60 12.14 43.20
23603 2020-03-27 20:51:54 Terrasse 13.90 12.46 42.50
23602 2020-03-27 20:23:40 Terrasse 14.20 12.78 42.30
23601 2020-03-27 19:55:27 Terrasse 14.50 13.09 41.40
23600 2020-03-27 19:27:13 Terrasse 14.80 13.42 41.40
23599 2020-03-27 18:59:02 Terrasse 15.30 13.94 40.50
23598 2020-03-27 18:31:04 Terrasse 16.00 14.70 40.10
23597 2020-03-27 18:02:49 Terrasse 16.90 15.69 40.10
23596 2020-03-27 17:34:51 Terrasse 17.90 16.76 38.90
23595 2020-03-27 17:06:38 Terrasse 19.20 18.13 36.60
23594 2020-03-27 16:38:38 Terrasse 20.50 19.54 35.70
23593 2020-03-27 16:10:24 Terrasse 21.40 20.49 34.10
23592 2020-03-27 15:42:10 Terrasse 22.10 21.24 33.40
23591 2020-03-27 15:14:04 Terrasse 23.20 22.43 32.60
23590 2020-03-27 14:45:51 Terrasse 23.60 22.85 32.10
23589 2020-03-27 14:17:42 Terrasse 24.60 23.92 31.00
23588 2020-03-27 13:50:05 Terrasse 27.10 26.52 31.00
23587 2020-03-27 13:21:45 Terrasse 27.90 27.07 31.10
23586 2020-03-27 12:53:00 Terrasse 25.60 25.04 31.60
23585 2020-03-27 12:24:56 Terrasse 26.50 26.05 32.40
23584 2020-03-27 11:56:06 Terrasse 23.40 22.69 34.40
23583 2020-03-27 11:27:06 Terrasse 17.20 15.98 38.30
23582 2020-03-27 10:58:48 Terrasse 15.40 14.05 40.20
23581 2020-03-27 10:30:21 Terrasse 13.70 12.19 40.70
23580 2020-03-27 10:01:55 Terrasse 12.10 10.44 41.30
23579 2020-03-27 09:33:30 Terrasse 10.70 8.93 42.40
23578 2020-03-27 09:05:09 Terrasse 9.50 7.64 43.60
23577 2020-03-27 08:36:48 Terrasse 8.50 6.58 44.80
23576 2020-03-27 08:08:27 Terrasse 7.60 5.61 45.60
23575 2020-03-27 07:40:08 Terrasse 6.90 4.85 46.10
23574 2020-03-27 07:11:50 Terrasse 6.40 4.31 46.70
23573 2020-03-27 06:43:34 Terrasse 6.20 4.10 46.90
23572 2020-03-27 06:15:20 Terrasse 6.20 4.10 46.90
23571 2020-03-27 05:47:07 Terrasse 6.20 4.09 46.50
23570 2020-03-27 05:18:52 Terrasse 6.30 4.20 46.50
23569 2020-03-27 04:50:38 Terrasse 6.30 4.19 46.10
23568 2020-03-27 04:22:24 Terrasse 6.30 4.18 45.70
23567 2020-03-27 03:54:11 Terrasse 6.40 4.29 45.80
23566 2020-03-27 03:25:57 Terrasse 6.40 4.30 46.10
23565 2020-03-27 02:57:43 Terrasse 6.50 4.40 45.70
23564 2020-03-27 02:29:39 Terrasse 6.60 4.51 45.90
23563 2020-03-27 02:01:23 Terrasse 6.70 4.63 46.10
23562 2020-03-27 01:33:10 Terrasse 6.80 4.74 46.00
23561 2020-03-27 01:04:57 Terrasse 7.10 5.06 45.70
23560 2020-03-27 00:36:44 Terrasse 7.30 5.27 45.30
23559 2020-03-27 00:08:31 Terrasse 7.50 5.48 45.10
23558 2020-03-26 23:40:18 Terrasse 7.70 5.69 44.70
23557 2020-03-26 23:12:06 Terrasse 7.90 5.91 44.70
23556 2020-03-26 22:43:54 Terrasse 8.30 6.33 43.90
23555 2020-03-26 22:15:41 Terrasse 8.40 6.43 43.60
23554 2020-03-26 21:47:28 Terrasse 8.70 6.75 43.00
23553 2020-03-26 21:19:14 Terrasse 8.80 6.84 42.30
23552 2020-03-26 20:51:03 Terrasse 9.10 7.16 42.10
23551 2020-03-26 20:22:49 Terrasse 9.20 7.29 42.60
23550 2020-03-26 19:54:37 Terrasse 9.40 7.48 41.60
23549 2020-03-26 19:26:25 Terrasse 9.90 8.02 41.20
23548 2020-03-26 18:58:12 Terrasse 10.40 8.52 39.40
23547 2020-03-26 18:30:01 Terrasse 11.00 9.14 37.80
23546 2020-03-26 18:01:51 Terrasse 12.10 10.31 36.10
23545 2020-03-26 17:33:43 Terrasse 12.90 11.15 34.80
23544 2020-03-26 17:05:34 Terrasse 13.80 12.10 33.30
23543 2020-03-26 16:37:25 Terrasse 14.70 13.06 31.90
23542 2020-03-26 16:09:17 Terrasse 16.10 14.57 30.70
23541 2020-03-26 15:41:08 Terrasse 17.00 15.54 30.00
23540 2020-03-26 15:13:00 Terrasse 17.80 16.39 28.90
23539 2020-03-26 14:44:52 Terrasse 19.50 18.25 28.40
23538 2020-03-26 14:16:44 Terrasse 20.50 19.36 28.80
23537 2020-03-26 13:49:15 Terrasse 23.00 22.07 27.40
23536 2020-03-26 13:20:52 Terrasse 23.80 22.94 27.00
23535 2020-03-26 12:52:05 Terrasse 21.40 20.32 27.90
23534 2020-03-26 12:24:01 Terrasse 23.10 22.20 28.10
23533 2020-03-26 11:55:07 Terrasse 20.00 18.85 30.40
23532 2020-03-26 11:26:04 Terrasse 12.80 11.04 34.80
23531 2020-03-26 10:57:44 Terrasse 11.00 9.08 35.30
23530 2020-03-26 10:29:17 Terrasse 9.40 7.37 37.40
23529 2020-03-26 10:00:53 Terrasse 7.80 5.63 38.10
23528 2020-03-26 09:32:29 Terrasse 6.50 4.22 38.80
23527 2020-03-26 09:04:10 Terrasse 5.40 3.03 39.60
23526 2020-03-26 08:35:51 Terrasse 4.50 2.06 40.30
23525 2020-03-26 08:07:34 Terrasse 3.90 1.40 40.50
23524 2020-03-26 07:40:56 Terrasse 3.50 0.94 39.80
23523 2020-03-26 07:10:14 Terrasse 3.10 0.54 41.20
23522 2020-03-26 06:41:59 Terrasse 3.00 0.41 40.40
23521 2020-03-26 06:13:48 Terrasse 3.10 0.52 40.30
23520 2020-03-26 05:45:34 Terrasse 3.20 0.61 39.60
23519 2020-03-26 05:17:23 Terrasse 3.40 0.82 39.40
23518 2020-03-26 04:49:10 Terrasse 3.50 0.92 38.80
23517 2020-03-26 04:20:57 Terrasse 3.70 1.14 38.80
23516 2020-03-26 03:52:46 Terrasse 3.80 1.23 38.10
23515 2020-03-26 03:24:34 Terrasse 4.10 1.52 36.70
23514 2020-03-26 02:56:22 Terrasse 4.20 1.62 36.30
23513 2020-03-26 02:28:21 Terrasse 4.40 1.82 35.50
23512 2020-03-26 02:00:08 Terrasse 4.70 2.13 34.60
23511 2020-03-26 01:31:55 Terrasse 4.90 2.33 34.00
23510 2020-03-26 01:03:43 Terrasse 5.00 2.43 33.30
23509 2020-03-26 00:35:30 Terrasse 5.30 2.77 33.80
23508 2020-03-26 00:07:20 Terrasse 5.50 2.97 33.10
23507 2020-03-25 23:39:08 Terrasse 5.70 3.21 34.00
23506 2020-03-25 23:10:56 Terrasse 6.10 3.64 33.50
23505 2020-03-25 22:42:44 Terrasse 6.40 3.96 33.10
23504 2020-03-25 22:14:32 Terrasse 6.70 4.30 33.50
23503 2020-03-25 21:46:20 Terrasse 7.10 4.74 33.50
23502 2020-03-25 21:18:07 Terrasse 7.50 5.17 33.00
23501 2020-03-25 20:49:55 Terrasse 7.90 5.58 31.80
23500 2020-03-25 20:21:44 Terrasse 8.50 6.23 31.60
23499 2020-03-25 19:53:33 Terrasse 9.00 6.74 30.00
23498 2020-03-25 19:25:22 Terrasse 9.60 7.39 29.80
23497 2020-03-25 18:29:10 Terrasse 11.20 9.04 25.60
23496 2020-03-25 18:01:01 Terrasse 12.10 9.98 23.70
23495 2020-03-25 17:32:50 Terrasse 13.00 11.03 25.70
23494 2020-03-25 17:04:43 Terrasse 14.30 12.45 25.60
23493 2020-03-25 16:36:36 Terrasse 15.60 13.88 25.50
23492 2020-03-25 16:08:24 Terrasse 16.60 14.96 24.70
23491 2020-03-25 15:40:15 Terrasse 17.30 15.65 21.50
23490 2020-03-25 15:12:02 Terrasse 18.00 16.46 23.10
23489 2020-03-25 14:43:51 Terrasse 18.90 17.45 23.20
23488 2020-03-25 14:15:50 Terrasse 21.10 19.87 23.10
23487 2020-03-25 13:48:16 Terrasse 23.20 22.24 25.60
23486 2020-03-25 13:19:56 Terrasse 24.60 23.78 25.60
23485 2020-03-25 12:51:04 Terrasse 21.80 20.71 25.80
23484 2020-03-25 12:23:03 Terrasse 22.90 21.95 27.10
23483 2020-03-25 11:54:07 Terrasse 19.10 17.84 29.60
23482 2020-03-25 11:25:05 Terrasse 11.70 9.73 30.70
23481 2020-03-25 10:56:43 Terrasse 10.10 7.96 30.40
23480 2020-03-25 10:28:18 Terrasse 8.70 6.48 32.90
23479 2020-03-25 09:59:55 Terrasse 7.00 4.63 33.30
23478 2020-03-25 09:31:33 Terrasse 5.80 3.32 34.00
23477 2020-03-25 09:03:14 Terrasse 4.80 2.26 35.50
23476 2020-03-25 08:34:55 Terrasse 4.00 1.40 36.20
23475 2020-03-25 08:06:36 Terrasse 3.30 0.64 36.50
23474 2020-03-25 07:38:25 Terrasse 2.90 0.20 36.50
23473 2020-03-25 07:10:06 Terrasse 2.40 -0.34 36.80
23472 2020-03-25 06:41:52 Terrasse 2.30 -0.46 36.60
23471 2020-03-25 06:13:40 Terrasse 2.30 -0.46 36.70
23470 2020-03-25 05:45:27 Terrasse 2.60 -0.14 36.10
23469 2020-03-25 05:17:15 Terrasse 2.80 0.08 36.00
23468 2020-03-25 04:49:01 Terrasse 2.90 0.18 35.90
23467 2020-03-25 04:20:51 Terrasse 3.00 0.28 35.30
23466 2020-03-25 03:52:39 Terrasse 3.30 0.58 34.40
23465 2020-03-25 03:24:26 Terrasse 3.50 0.81 34.60
23464 2020-03-25 02:56:14 Terrasse 3.70 1.02 34.40
23463 2020-03-25 02:28:02 Terrasse 3.80 1.12 33.80
23462 2020-03-25 01:59:51 Terrasse 4.00 1.36 34.70
23461 2020-03-25 01:31:39 Terrasse 4.30 1.68 34.30
23460 2020-03-25 01:03:27 Terrasse 4.60 1.99 33.30
23459 2020-03-25 00:35:15 Terrasse 4.80 2.19 32.70
23458 2020-03-25 00:07:03 Terrasse 5.00 2.39 31.80
23457 2020-03-24 23:38:52 Terrasse 5.30 2.67 30.20
23456 2020-03-24 23:10:38 Terrasse 5.60 3.01 30.30
23455 2020-03-24 22:42:26 Terrasse 5.80 3.19 28.90
23454 2020-03-24 22:14:13 Terrasse 5.90 3.30 28.90
23453 2020-03-24 21:46:02 Terrasse 6.10 3.54 29.50
23452 2020-03-24 21:17:49 Terrasse 6.20 3.66 30.20
23451 2020-03-24 20:49:38 Terrasse 6.50 4.02 31.30
23450 2020-03-24 20:21:28 Terrasse 7.00 4.53 29.80
23449 2020-03-24 19:53:18 Terrasse 7.60 5.16 28.70
23448 2020-03-24 19:25:08 Terrasse 8.30 5.90 27.50
23447 2020-03-24 18:56:59 Terrasse 9.20 6.88 27.10
23446 2020-03-24 18:28:49 Terrasse 10.00 7.73 25.90
23445 2020-03-24 18:00:39 Terrasse 10.90 8.69 24.70
23444 2020-03-24 17:32:30 Terrasse 11.80 9.64 23.10
23443 2020-03-24 17:04:24 Terrasse 13.30 11.31 23.90
23442 2020-03-24 16:36:16 Terrasse 14.50 12.60 22.80
23441 2020-03-24 16:08:14 Terrasse 15.40 13.59 22.60
23440 2020-03-24 15:40:00 Terrasse 16.20 14.47 22.60
23439 2020-03-24 15:11:48 Terrasse 16.90 15.22 22.10
23438 2020-03-24 14:43:40 Terrasse 18.40 16.91 23.50
23437 2020-03-24 14:15:48 Terrasse 21.00 19.77 23.60
23436 2020-03-24 13:48:14 Terrasse 22.60 21.56 24.50
23435 2020-03-24 13:19:55 Terrasse 24.40 23.54 24.70
23434 2020-03-24 12:50:58 Terrasse 21.30 20.14 25.10
23433 2020-03-24 12:23:00 Terrasse 22.40 21.39 26.50
23432 2020-03-24 11:53:58 Terrasse 17.90 16.47 27.90
23431 2020-03-24 11:24:58 Terrasse 10.80 8.71 29.50
23430 2020-03-24 10:56:33 Terrasse 9.20 7.03 32.70
23429 2020-03-24 10:28:10 Terrasse 7.90 5.61 33.00
23428 2020-03-24 09:59:45 Terrasse 6.00 3.62 36.90
23427 2020-03-24 09:31:23 Terrasse 4.70 2.21 37.80
23426 2020-03-24 09:03:03 Terrasse 3.70 1.15 39.10
23425 2020-03-24 08:34:46 Terrasse 3.00 0.38 39.20
23424 2020-03-24 08:06:28 Terrasse 2.30 -0.35 40.60
23423 2020-03-24 07:38:11 Terrasse 1.80 -0.90 40.60
23422 2020-03-24 07:09:57 Terrasse 1.50 -1.21 41.60
23421 2020-03-24 06:41:46 Terrasse 1.50 -1.21 41.50
23420 2020-03-24 06:13:32 Terrasse 1.60 -1.10 41.60
23419 2020-03-24 05:45:20 Terrasse 1.70 -0.99 41.40
23418 2020-03-24 05:17:09 Terrasse 1.80 -0.90 40.90
23417 2020-03-24 04:48:57 Terrasse 2.00 -0.68 40.90
23416 2020-03-24 04:20:45 Terrasse 2.10 -0.57 40.70
23415 2020-03-24 03:52:33 Terrasse 2.30 -0.35 40.80
23414 2020-03-24 03:24:20 Terrasse 2.50 -0.14 40.50
23413 2020-03-24 02:56:08 Terrasse 2.70 0.08 40.30
23412 2020-03-24 02:27:55 Terrasse 2.80 0.19 40.50
23411 2020-03-24 01:59:44 Terrasse 3.00 0.41 40.20
23410 2020-03-24 01:31:31 Terrasse 3.30 0.73 39.90
23409 2020-03-24 01:03:20 Terrasse 3.50 0.94 39.80
23408 2020-03-24 00:35:09 Terrasse 3.80 1.23 38.20
23407 2020-03-24 00:06:56 Terrasse 4.10 1.54 37.40
23406 2020-03-23 23:38:45 Terrasse 4.50 1.96 36.60
23405 2020-03-23 23:10:34 Terrasse 4.90 2.36 35.00
23404 2020-03-23 22:42:22 Terrasse 5.20 2.64 33.00
23403 2020-03-23 22:14:10 Terrasse 5.40 2.88 33.70
23402 2020-03-23 21:45:58 Terrasse 5.50 3.01 34.80
23401 2020-03-23 21:17:47 Terrasse 5.70 3.23 34.70
23400 2020-03-23 20:49:36 Terrasse 6.10 3.66 34.30
23399 2020-03-23 20:21:25 Terrasse 6.50 4.10 34.40
23398 2020-03-23 19:53:15 Terrasse 7.10 4.71 32.40
23397 2020-03-23 19:25:05 Terrasse 7.70 5.34 31.10
23396 2020-03-23 18:56:54 Terrasse 8.50 6.19 30.10
23395 2020-03-23 18:28:44 Terrasse 9.40 7.16 29.10
23394 2020-03-23 18:00:34 Terrasse 10.10 7.87 27.00
23393 2020-03-23 17:32:24 Terrasse 10.90 8.72 25.70
23392 2020-03-23 17:04:20 Terrasse 12.30 10.27 26.30
23391 2020-03-23 16:36:12 Terrasse 13.80 11.90 25.50
23390 2020-03-23 16:08:01 Terrasse 15.00 13.21 25.10
23389 2020-03-23 15:39:51 Terrasse 15.60 13.84 24.00
23388 2020-03-23 15:11:38 Terrasse 16.20 14.50 24.00
23387 2020-03-23 14:43:34 Terrasse 18.00 16.49 24.30
23386 2020-03-23 14:15:44 Terrasse 20.80 19.61 26.00
23385 2020-03-23 13:48:05 Terrasse 21.50 20.39 26.10
23384 2020-03-23 13:19:40 Terrasse 22.90 21.94 26.50
23383 2020-03-23 12:50:47 Terrasse 19.90 18.63 26.30
23382 2020-03-23 12:22:51 Terrasse 20.60 19.43 27.30
23381 2020-03-23 11:53:52 Terrasse 16.80 15.27 28.30
23380 2020-03-23 11:24:50 Terrasse 10.00 7.86 30.80
23379 2020-03-23 10:56:26 Terrasse 8.20 5.94 33.10
23378 2020-03-23 10:28:03 Terrasse 6.90 4.51 33.10
23377 2020-03-23 09:59:40 Terrasse 5.30 2.78 34.40
23376 2020-03-23 09:31:19 Terrasse 4.00 1.41 36.60
23375 2020-03-23 09:03:01 Terrasse 3.00 0.34 37.70
23374 2020-03-23 08:34:41 Terrasse 2.20 -0.46 40.80
23373 2020-03-23 08:06:25 Terrasse 1.70 -0.99 41.70
23372 2020-03-23 07:38:12 Terrasse 1.20 -1.52 42.20
23371 2020-03-23 07:09:55 Terrasse 0.80 -1.95 42.80
23370 2020-03-23 06:41:43 Terrasse 0.70 -2.05 42.90
23369 2020-03-23 06:13:31 Terrasse 0.90 -1.81 43.80
23368 2020-03-23 05:45:19 Terrasse 1.00 -1.70 43.70
23367 2020-03-23 05:17:08 Terrasse 1.30 -1.39 42.90
23366 2020-03-23 04:48:55 Terrasse 1.40 -1.28 42.90
23365 2020-03-23 04:20:43 Terrasse 1.60 -1.06 43.20
23364 2020-03-23 03:52:32 Terrasse 1.80 -0.84 43.10
23363 2020-03-23 03:24:21 Terrasse 2.00 -0.63 42.80
23362 2020-03-23 02:56:12 Terrasse 2.20 -0.41 42.60
23361 2020-03-23 02:28:01 Terrasse 2.50 -0.09 42.30
23360 2020-03-23 01:59:49 Terrasse 2.80 0.23 41.80
23359 2020-03-23 01:31:37 Terrasse 3.10 0.56 41.90
23358 2020-03-23 01:03:25 Terrasse 3.30 0.77 41.60
23357 2020-03-23 00:35:13 Terrasse 3.60 1.11 41.80
23356 2020-03-23 00:07:02 Terrasse 4.00 1.53 41.30
23355 2020-03-22 23:38:50 Terrasse 4.20 1.75 41.10
23354 2020-03-22 23:10:39 Terrasse 4.50 2.06 40.50
23353 2020-03-22 22:42:28 Terrasse 4.90 2.49 40.10
23352 2020-03-22 22:14:17 Terrasse 5.20 2.80 39.20
23351 2020-03-22 21:46:05 Terrasse 5.60 3.24 39.10
23350 2020-03-22 21:17:53 Terrasse 6.10 3.78 38.80
23349 2020-03-22 20:49:43 Terrasse 6.50 4.20 38.20
23348 2020-03-22 20:21:31 Terrasse 7.00 4.70 36.30
23347 2020-03-22 19:53:20 Terrasse 7.60 5.35 35.60
23346 2020-03-22 19:25:11 Terrasse 8.20 6.02 36.00
23345 2020-03-22 18:57:01 Terrasse 8.80 6.66 35.40
23344 2020-03-22 18:28:52 Terrasse 9.60 7.51 34.30
23343 2020-03-22 18:00:43 Terrasse 10.40 8.33 31.90
23342 2020-03-22 17:32:34 Terrasse 11.50 9.53 31.60
23341 2020-03-22 17:04:29 Terrasse 12.90 11.06 31.10
23340 2020-03-22 16:36:22 Terrasse 14.60 12.92 30.80
23339 2020-03-22 16:08:11 Terrasse 15.50 13.92 31.20
23338 2020-03-22 15:39:56 Terrasse 16.50 14.99 30.00
23337 2020-03-22 15:11:46 Terrasse 17.50 16.10 30.30
23336 2020-03-22 14:43:39 Terrasse 18.40 17.07 29.80
23335 2020-03-22 14:15:46 Terrasse 21.50 20.50 30.30
23334 2020-03-22 13:48:01 Terrasse 21.20 20.16 30.10
23333 2020-03-22 13:19:43 Terrasse 23.00 22.18 31.50
23332 2020-03-22 12:50:46 Terrasse 20.20 19.07 30.50
23331 2020-03-22 12:22:50 Terrasse 21.20 20.21 31.90
23330 2020-03-22 11:53:48 Terrasse 17.70 16.44 35.20
23329 2020-03-22 11:24:43 Terrasse 10.30 8.36 37.20
23328 2020-03-22 10:56:18 Terrasse 8.70 6.66 39.60
23327 2020-03-22 10:27:55 Terrasse 7.40 5.27 41.20
23326 2020-03-22 09:59:31 Terrasse 5.90 3.65 42.40
23325 2020-03-22 09:31:08 Terrasse 4.60 2.30 45.40
23324 2020-03-22 09:02:50 Terrasse 3.60 1.29 48.70
23323 2020-03-22 08:34:31 Terrasse 2.80 0.47 51.00
23322 2020-03-22 08:06:13 Terrasse 2.20 -0.16 52.10
23321 2020-03-22 07:37:56 Terrasse 1.60 -0.79 53.40
23320 2020-03-22 07:09:42 Terrasse 1.30 -1.10 54.10
23319 2020-03-22 06:41:33 Terrasse 1.20 -1.21 54.10
23318 2020-03-22 06:13:18 Terrasse 1.40 -0.99 54.00
23317 2020-03-22 05:45:05 Terrasse 1.60 -0.77 54.00
23316 2020-03-22 05:16:53 Terrasse 1.70 -0.67 53.80
23315 2020-03-22 04:48:41 Terrasse 1.90 -0.45 53.80
23314 2020-03-22 04:20:27 Terrasse 2.10 -0.22 54.30
23313 2020-03-22 03:52:14 Terrasse 2.20 -0.10 54.40
23312 2020-03-22 03:24:02 Terrasse 2.30 0.00 54.20
23311 2020-03-22 02:55:48 Terrasse 2.50 0.22 54.10
23310 2020-03-22 02:27:35 Terrasse 2.60 0.34 54.40
23309 2020-03-22 01:59:23 Terrasse 2.70 0.44 54.20
23308 2020-03-22 01:31:09 Terrasse 2.90 0.67 54.60
23307 2020-03-22 01:02:58 Terrasse 3.10 0.89 54.40
23306 2020-03-22 00:34:47 Terrasse 3.30 1.11 54.50
23305 2020-03-22 00:06:34 Terrasse 3.40 1.23 54.90
23304 2020-03-21 23:38:21 Terrasse 3.60 1.44 54.60
23303 2020-03-21 23:10:10 Terrasse 3.90 1.78 55.00
23302 2020-03-21 22:41:57 Terrasse 4.20 2.11 55.10
23301 2020-03-21 22:13:44 Terrasse 4.30 2.22 55.10
23300 2020-03-21 21:45:34 Terrasse 4.60 2.53 54.30
23299 2020-03-21 21:17:21 Terrasse 5.00 2.96 53.80
23298 2020-03-21 20:49:09 Terrasse 5.30 3.29 53.70
23297 2020-03-21 20:20:58 Terrasse 5.60 3.61 53.50
23296 2020-03-21 19:52:47 Terrasse 6.10 4.17 53.70
23295 2020-03-21 19:24:34 Terrasse 6.60 4.70 53.20
23294 2020-03-21 18:56:23 Terrasse 6.90 5.02 52.50
23293 2020-03-21 18:28:13 Terrasse 7.40 5.55 51.80
23292 2020-03-21 18:00:02 Terrasse 7.90 6.10 52.00
23291 2020-03-21 17:31:50 Terrasse 8.40 6.64 51.40
23290 2020-03-21 17:03:39 Terrasse 8.80 7.06 50.70
23289 2020-03-21 16:35:25 Terrasse 9.20 7.56 53.00
23288 2020-03-21 16:07:11 Terrasse 9.40 7.77 52.70
23287 2020-03-21 15:38:56 Terrasse 9.10 7.47 53.80
23286 2020-03-21 15:10:43 Terrasse 9.40 7.86 55.90
23285 2020-03-21 14:42:26 Terrasse 9.50 7.97 56.10
23284 2020-03-21 14:14:11 Terrasse 9.20 7.69 58.10
23283 2020-03-21 13:46:00 Terrasse 9.50 8.02 58.00
23282 2020-03-21 13:17:48 Terrasse 10.00 8.60 59.00
23281 2020-03-21 12:49:33 Terrasse 9.90 8.52 60.20
23280 2020-03-21 12:21:43 Terrasse 12.50 11.31 57.70
23279 2020-03-21 11:53:04 Terrasse 11.20 10.30 73.70
23278 2020-03-21 11:24:37 Terrasse 8.60 8.12 99.90
23277 2020-03-21 10:56:16 Terrasse 7.40 6.80 99.90
23276 2020-03-21 10:27:58 Terrasse 6.80 6.14 99.90
23275 2020-03-21 09:59:42 Terrasse 6.50 5.81 99.90
23274 2020-03-21 09:31:27 Terrasse 6.40 5.70 99.90
23273 2020-03-21 09:03:12 Terrasse 6.20 5.48 99.90
23272 2020-03-21 08:34:56 Terrasse 6.00 5.26 99.90
23271 2020-03-21 08:06:42 Terrasse 5.90 5.15 99.90
23270 2020-03-21 07:38:26 Terrasse 5.70 4.93 99.90
23269 2020-03-21 07:10:11 Terrasse 5.60 4.82 99.90
23268 2020-03-21 06:41:58 Terrasse 5.60 4.82 99.90
23267 2020-03-21 06:13:45 Terrasse 5.70 4.93 99.90
23266 2020-03-21 05:45:33 Terrasse 5.90 5.15 99.90
23265 2020-03-21 05:17:21 Terrasse 6.10 5.37 99.90
23264 2020-03-21 04:49:08 Terrasse 6.30 5.59 99.90
23263 2020-03-21 04:20:56 Terrasse 6.50 5.81 99.90
23262 2020-03-21 03:52:44 Terrasse 6.80 6.09 97.70
23261 2020-03-21 03:24:31 Terrasse 6.90 6.06 92.40
23260 2020-03-21 02:56:18 Terrasse 7.40 6.21 77.30
23259 2020-03-21 02:28:06 Terrasse 7.80 6.38 66.80
23258 2020-03-21 01:59:54 Terrasse 8.00 6.50 63.10
23257 2020-03-21 01:31:40 Terrasse 8.20 6.67 61.00
23256 2020-03-21 01:03:27 Terrasse 8.30 6.74 59.50
23255 2020-03-21 00:35:13 Terrasse 8.50 6.94 58.80
23254 2020-03-21 00:07:00 Terrasse 8.70 7.15 58.20
23253 2020-03-20 23:38:48 Terrasse 9.00 7.45 57.40
23252 2020-03-20 23:10:45 Terrasse 9.40 7.92 58.50
23251 2020-03-20 22:42:29 Terrasse 9.70 8.35 62.40
23250 2020-03-20 22:14:17 Terrasse 10.20 9.05 67.90
23249 2020-03-20 21:46:03 Terrasse 10.60 9.65 74.20
23248 2020-03-20 21:17:50 Terrasse 10.80 9.95 77.10
23247 2020-03-20 20:49:36 Terrasse 11.30 10.53 78.40
23246 2020-03-20 20:21:23 Terrasse 11.70 10.84 73.40
23245 2020-03-20 19:53:09 Terrasse 12.00 11.05 68.90
23244 2020-03-20 19:24:57 Terrasse 12.60 11.62 65.30
23243 2020-03-20 18:56:44 Terrasse 13.10 12.13 63.90
23242 2020-03-20 18:28:32 Terrasse 13.80 12.86 62.40
23241 2020-03-20 18:00:20 Terrasse 14.50 13.57 60.00
23240 2020-03-20 17:32:08 Terrasse 15.00 14.10 59.30
23239 2020-03-20 17:03:56 Terrasse 15.50 14.62 58.00
23238 2020-03-20 16:35:45 Terrasse 16.20 15.38 57.50
23237 2020-03-20 16:07:37 Terrasse 17.20 16.44 56.10
23236 2020-03-20 15:39:28 Terrasse 18.20 17.51 55.00
23235 2020-03-20 15:11:29 Terrasse 21.10 20.65 52.90
23234 2020-03-20 14:43:23 Terrasse 22.80 22.44 50.10
23233 2020-03-20 14:15:01 Terrasse 22.80 22.47 51.10
23232 2020-03-20 13:46:44 Terrasse 21.50 21.08 52.80
23231 2020-03-20 13:18:32 Terrasse 21.70 21.23 50.10
23230 2020-03-20 12:50:10 Terrasse 20.30 19.75 52.10
23229 2020-03-20 12:21:56 Terrasse 19.60 19.06 55.30
23228 2020-03-20 11:53:35 Terrasse 19.30 18.71 54.40
23227 2020-03-20 11:25:21 Terrasse 19.30 18.72 55.00
23226 2020-03-20 10:56:51 Terrasse 16.80 16.17 62.70
23225 2020-03-20 10:28:32 Terrasse 16.00 15.36 65.30
23224 2020-03-20 10:00:03 Terrasse 14.60 13.90 68.20
23223 2020-03-20 09:31:45 Terrasse 14.10 13.43 71.50
23222 2020-03-20 09:03:22 Terrasse 12.80 12.48 89.80
23221 2020-03-20 08:34:59 Terrasse 11.80 11.57 96.90
23220 2020-03-20 08:06:39 Terrasse 10.80 10.54 99.90
23219 2020-03-20 07:38:23 Terrasse 10.60 10.32 99.90
23218 2020-03-20 07:10:08 Terrasse 10.70 10.33 96.10
23217 2020-03-20 06:41:54 Terrasse 10.70 10.37 97.30
23216 2020-03-20 06:13:41 Terrasse 11.00 10.59 93.40
23215 2020-03-20 05:45:27 Terrasse 11.30 10.72 85.60
23214 2020-03-20 05:17:14 Terrasse 11.20 10.53 82.60
23213 2020-03-20 04:49:01 Terrasse 11.70 10.84 73.30
23212 2020-03-20 04:20:48 Terrasse 11.70 10.78 70.90
23211 2020-03-20 03:52:32 Terrasse 11.80 10.86 70.00
23210 2020-03-20 03:24:18 Terrasse 12.00 11.04 68.30
23209 2020-03-20 02:56:04 Terrasse 12.20 11.21 66.60
23208 2020-03-20 02:27:50 Terrasse 12.50 11.52 65.60
23207 2020-03-20 01:59:35 Terrasse 12.70 11.70 64.00
23206 2020-03-20 01:31:20 Terrasse 12.80 11.77 62.60
23205 2020-03-20 01:03:05 Terrasse 12.90 11.88 62.60
23204 2020-03-20 00:34:50 Terrasse 12.90 11.86 61.90
23203 2020-03-20 00:06:35 Terrasse 13.10 12.06 61.10
23202 2020-03-19 23:38:20 Terrasse 13.20 12.16 60.60
23201 2020-03-19 23:10:05 Terrasse 13.20 12.13 59.60
23200 2020-03-19 22:41:51 Terrasse 13.30 12.24 59.70
23199 2020-03-19 22:13:36 Terrasse 13.30 12.24 59.60
23198 2020-03-19 21:45:19 Terrasse 13.30 12.24 59.40
23197 2020-03-19 21:17:02 Terrasse 13.30 12.22 58.90
23196 2020-03-19 20:48:47 Terrasse 13.10 12.00 58.60
23195 2020-03-19 20:20:33 Terrasse 13.10 12.00 58.80
23194 2020-03-19 19:52:31 Terrasse 13.60 12.53 58.00
23193 2020-03-19 19:24:17 Terrasse 14.00 12.97 57.90
23192 2020-03-19 18:56:06 Terrasse 14.70 13.74 57.90
23191 2020-03-19 18:27:53 Terrasse 15.50 14.56 55.60
23190 2020-03-19 17:59:41 Terrasse 16.30 15.44 55.70
23189 2020-03-19 17:31:30 Terrasse 16.90 16.08 55.10
23188 2020-03-19 17:03:18 Terrasse 17.70 16.93 53.80
23187 2020-03-19 16:35:07 Terrasse 18.30 17.58 53.40
23186 2020-03-19 16:06:57 Terrasse 19.40 18.75 51.90
23185 2020-03-19 15:38:55 Terrasse 21.60 21.12 49.80
23184 2020-03-19 15:10:39 Terrasse 22.30 21.84 48.10
23183 2020-03-19 14:42:24 Terrasse 22.30 21.92 51.20
23182 2020-03-19 14:13:59 Terrasse 22.00 21.59 51.00
23181 2020-03-19 13:45:46 Terrasse 21.20 20.75 52.60
23180 2020-03-19 13:17:20 Terrasse 20.60 20.10 53.10
23179 2020-03-19 12:48:58 Terrasse 20.40 19.93 54.90
23178 2020-03-19 12:20:10 Terrasse 15.50 14.82 65.60
23177 2020-03-19 11:51:49 Terrasse 14.90 14.27 69.80
23176 2020-03-19 11:23:36 Terrasse 15.10 14.47 69.20
23175 2020-03-19 10:55:13 Terrasse 14.50 14.09 79.70
23174 2020-03-19 10:26:45 Terrasse 12.30 12.03 93.80
23173 2020-03-19 09:58:26 Terrasse 11.50 11.31 99.90
23172 2020-03-19 09:30:06 Terrasse 10.90 10.65 99.90
23171 2020-03-19 09:01:48 Terrasse 10.40 10.10 99.90
23170 2020-03-19 08:33:30 Terrasse 10.10 9.77 99.90
23169 2020-03-19 08:05:15 Terrasse 9.90 9.55 99.90
23168 2020-03-19 07:36:59 Terrasse 9.70 9.33 99.90
23167 2020-03-19 07:08:45 Terrasse 9.50 9.11 99.90
23166 2020-03-19 06:40:31 Terrasse 9.40 9.00 99.90
23165 2020-03-19 06:12:16 Terrasse 9.30 8.89 99.90
23164 2020-03-19 05:44:00 Terrasse 9.10 8.67 99.90
23163 2020-03-19 05:15:46 Terrasse 9.00 8.56 99.90
23162 2020-03-19 04:47:31 Terrasse 8.90 8.45 99.90
23161 2020-03-19 04:19:16 Terrasse 8.80 8.34 99.90
23160 2020-03-19 03:51:02 Terrasse 8.80 8.34 99.90
23159 2020-03-19 03:22:50 Terrasse 8.90 8.45 99.90
23158 2020-03-19 02:54:36 Terrasse 9.10 8.67 99.90
23157 2020-03-19 02:26:21 Terrasse 9.20 8.78 99.90
23156 2020-03-19 01:58:08 Terrasse 9.20 8.78 99.90
23155 2020-03-19 01:29:54 Terrasse 9.40 8.94 97.30
23154 2020-03-19 01:01:41 Terrasse 9.50 9.03 96.60
23153 2020-03-19 00:33:29 Terrasse 9.60 9.06 93.80
23152 2020-03-19 00:05:16 Terrasse 9.90 9.29 89.70
23151 2020-03-18 23:37:02 Terrasse 10.10 9.34 83.20
23150 2020-03-18 23:08:47 Terrasse 10.20 9.39 81.10
23149 2020-03-18 22:40:34 Terrasse 10.50 9.72 81.00
23148 2020-03-18 22:12:21 Terrasse 10.80 10.04 80.60
23147 2020-03-18 21:44:10 Terrasse 11.30 10.49 76.60
23146 2020-03-18 21:15:57 Terrasse 11.90 11.08 73.90
23145 2020-03-18 20:47:45 Terrasse 12.30 11.54 75.00
23144 2020-03-18 20:19:34 Terrasse 13.00 12.30 74.40
23143 2020-03-18 19:51:20 Terrasse 13.30 12.76 79.30
23142 2020-03-18 19:23:08 Terrasse 13.70 13.04 73.20
23141 2020-03-18 18:54:57 Terrasse 14.40 13.62 66.20
23140 2020-03-18 18:26:44 Terrasse 14.90 14.11 63.70
23139 2020-03-18 17:58:32 Terrasse 15.40 14.57 60.40
23138 2020-03-18 17:30:21 Terrasse 16.00 15.19 58.60
23137 2020-03-18 17:02:09 Terrasse 16.60 15.84 58.20
23136 2020-03-18 16:33:54 Terrasse 16.60 15.81 57.40
23135 2020-03-18 16:05:43 Terrasse 17.10 16.36 57.10
23134 2020-03-18 15:37:31 Terrasse 18.00 17.29 54.80
23133 2020-03-18 15:09:19 Terrasse 18.30 17.58 53.60
23132 2020-03-18 14:41:08 Terrasse 18.90 18.25 53.70
23131 2020-03-18 14:12:51 Terrasse 19.60 19.00 52.90
23130 2020-03-18 13:44:31 Terrasse 18.40 17.75 55.90
23129 2020-03-18 13:16:09 Terrasse 17.90 17.29 59.20
23128 2020-03-18 12:47:44 Terrasse 16.40 15.79 64.80
23127 2020-03-18 12:19:24 Terrasse 15.40 14.79 68.70
23126 2020-03-18 11:51:04 Terrasse 14.70 14.15 73.80
23125 2020-03-18 11:22:50 Terrasse 14.40 13.91 77.20
23124 2020-03-18 10:54:34 Terrasse 14.30 13.79 76.70
23123 2020-03-18 10:26:19 Terrasse 14.10 13.56 76.50
23122 2020-03-18 09:58:01 Terrasse 13.90 13.71 90.40
23121 2020-03-18 09:29:35 Terrasse 12.00 11.86 99.90
23120 2020-03-18 09:01:14 Terrasse 10.80 10.54 99.90
23119 2020-03-18 08:32:52 Terrasse 9.70 9.33 99.90
23118 2020-03-18 08:04:32 Terrasse 8.80 8.34 99.90
23117 2020-03-18 07:36:24 Terrasse 8.50 8.01 99.90
23116 2020-03-18 07:08:05 Terrasse 8.20 7.68 99.90
23115 2020-03-18 06:39:52 Terrasse 8.20 7.68 99.90
23114 2020-03-18 06:11:39 Terrasse 8.20 7.68 99.90
23113 2020-03-18 05:43:27 Terrasse 8.30 7.79 99.90
23112 2020-03-18 05:15:15 Terrasse 8.50 8.01 99.90
23111 2020-03-18 04:47:02 Terrasse 8.60 8.12 99.90
23110 2020-03-18 04:18:49 Terrasse 8.70 8.23 99.90
23109 2020-03-18 03:50:38 Terrasse 8.90 8.45 99.90
23108 2020-03-18 03:22:26 Terrasse 9.20 8.78 99.90
23107 2020-03-18 02:54:13 Terrasse 9.30 8.89 99.90
23106 2020-03-18 02:26:00 Terrasse 9.50 9.05 97.40
23105 2020-03-18 01:57:47 Terrasse 9.60 9.02 92.00
23104 2020-03-18 01:29:35 Terrasse 9.90 9.15 84.60
23103 2020-03-18 01:01:21 Terrasse 10.00 8.97 73.30
23102 2020-03-18 00:33:08 Terrasse 10.20 9.02 66.90
23101 2020-03-18 00:04:56 Terrasse 10.40 9.17 64.30
23100 2020-03-17 23:36:43 Terrasse 10.70 9.46 62.50
23099 2020-03-17 23:08:30 Terrasse 10.80 9.53 61.10
23098 2020-03-17 22:40:17 Terrasse 11.20 9.94 59.90
23097 2020-03-17 22:12:04 Terrasse 11.60 10.35 58.90
23096 2020-03-17 21:43:51 Terrasse 11.80 10.55 58.10
23095 2020-03-17 21:15:38 Terrasse 12.10 10.85 57.00
23094 2020-03-17 20:47:25 Terrasse 12.30 11.05 55.90
23093 2020-03-17 20:19:15 Terrasse 12.90 11.66 54.20
23092 2020-03-17 19:51:03 Terrasse 13.40 12.14 51.60
23091 2020-03-17 19:22:51 Terrasse 14.00 12.74 49.30
23090 2020-03-17 18:54:41 Terrasse 14.80 13.63 49.60
23089 2020-03-17 18:26:35 Terrasse 16.40 15.35 48.20
23088 2020-03-17 17:58:26 Terrasse 17.60 16.59 45.10
23087 2020-03-17 17:30:20 Terrasse 18.90 17.98 43.40
23086 2020-03-17 17:02:22 Terrasse 21.80 21.15 42.50
23085 2020-03-17 16:34:27 Terrasse 26.40 26.11 38.80
23084 2020-03-17 16:05:55 Terrasse 23.80 23.39 44.10
23083 2020-03-17 15:37:39 Terrasse 22.60 22.04 42.90
23082 2020-03-17 15:09:29 Terrasse 23.60 23.15 43.40
23081 2020-03-17 14:41:16 Terrasse 23.50 23.11 46.00
23080 2020-03-17 14:13:03 Terrasse 23.80 23.47 47.20
23079 2020-03-17 13:44:57 Terrasse 24.00 23.72 48.50
23078 2020-03-17 13:16:36 Terrasse 24.80 24.59 47.90
23077 2020-03-17 12:48:18 Terrasse 24.00 23.72 48.60
23076 2020-03-17 12:20:09 Terrasse 23.90 23.68 51.30
23075 2020-03-17 11:51:31 Terrasse 21.50 21.12 54.20
23074 2020-03-17 11:23:02 Terrasse 19.80 19.31 56.40
23073 2020-03-17 10:54:05 Terrasse 15.00 14.36 69.30
23072 2020-03-17 10:25:53 Terrasse 15.00 14.35 68.70
23071 2020-03-17 09:57:23 Terrasse 13.40 12.86 79.20
23070 2020-03-17 09:29:08 Terrasse 13.20 12.71 81.60
23069 2020-03-17 09:00:50 Terrasse 12.60 12.40 95.00
23068 2020-03-17 08:32:33 Terrasse 12.20 12.05 98.70
23067 2020-03-17 08:04:15 Terrasse 11.50 11.31 99.90
23066 2020-03-17 07:36:01 Terrasse 11.40 11.20 99.90
23065 2020-03-17 07:07:47 Terrasse 11.20 10.98 99.90
23064 2020-03-17 06:39:34 Terrasse 11.30 11.09 99.90
23063 2020-03-17 06:11:20 Terrasse 11.60 11.42 99.70
23062 2020-03-17 05:43:04 Terrasse 11.50 11.31 99.90
23061 2020-03-17 05:14:49 Terrasse 11.30 11.09 99.90
23060 2020-03-17 04:46:35 Terrasse 11.20 10.98 99.90
23059 2020-03-17 04:18:21 Terrasse 11.30 11.09 99.90
23058 2020-03-17 03:50:07 Terrasse 11.50 11.11 92.10
23057 2020-03-17 03:21:52 Terrasse 11.50 10.86 82.60
23056 2020-03-17 02:53:38 Terrasse 11.60 11.11 87.70
23055 2020-03-17 02:25:27 Terrasse 11.90 11.19 78.20
23054 2020-03-17 01:57:15 Terrasse 12.40 11.54 70.80
23053 2020-03-17 01:29:00 Terrasse 12.50 11.59 68.50
23052 2020-03-17 01:00:45 Terrasse 12.70 11.76 66.30
23051 2020-03-17 00:32:33 Terrasse 13.10 12.15 64.40
23050 2020-03-17 00:04:18 Terrasse 13.30 12.33 63.00
23049 2020-03-16 23:36:02 Terrasse 13.30 12.31 62.20
23048 2020-03-16 23:07:46 Terrasse 13.30 12.30 61.70
23047 2020-03-16 22:39:30 Terrasse 13.10 12.07 61.40
23046 2020-03-16 22:11:15 Terrasse 13.20 12.19 61.90
23045 2020-03-16 21:43:01 Terrasse 13.20 12.16 60.60
23044 2020-03-16 21:14:46 Terrasse 13.30 12.31 62.10
23043 2020-03-16 20:46:31 Terrasse 13.40 12.43 62.50
23042 2020-03-16 20:18:15 Terrasse 13.50 12.50 60.90
23041 2020-03-16 19:50:01 Terrasse 13.70 12.71 60.70
23040 2020-03-16 19:21:51 Terrasse 14.40 13.44 59.30
23039 2020-03-16 18:53:39 Terrasse 15.30 14.39 57.70
23038 2020-03-16 18:25:29 Terrasse 16.50 15.65 55.30
23037 2020-03-16 17:58:25 Terrasse 17.20 16.35 52.60
23036 2020-03-16 17:30:24 Terrasse 18.00 17.20 51.50
23035 2020-03-16 16:54:16 Terrasse 19.10 18.37 50.10
23034 2020-03-16 15:51:23 Terrasse 21.20 20.61 47.10
23033 2020-03-16 15:21:22 Terrasse 22.20 21.69 46.50
23032 2020-03-16 14:53:02 Terrasse 23.10 22.67 46.00
23031 2020-03-16 14:23:30 Terrasse 24.80 24.53 45.70
23030 2020-03-16 13:55:05 Terrasse 24.20 23.85 45.10
23029 2020-03-16 13:27:03 Terrasse 26.20 26.05 44.90
23028 2020-03-16 12:58:28 Terrasse 25.20 24.99 46.40
23027 2020-03-16 12:30:37 Terrasse 24.90 24.68 47.20
23026 2020-03-16 12:02:02 Terrasse 23.30 22.97 49.10
23025 2020-03-16 11:32:55 Terrasse 17.50 16.79 56.90
23024 2020-03-16 11:04:31 Terrasse 14.60 13.72 61.40
23023 2020-03-16 10:36:09 Terrasse 13.30 12.37 64.50
23022 2020-03-16 10:07:41 Terrasse 11.80 10.76 66.10
23021 2020-03-16 09:39:18 Terrasse 10.40 9.32 69.90
23020 2020-03-16 09:10:56 Terrasse 9.20 8.11 74.10
23019 2020-03-16 08:42:33 Terrasse 8.10 7.57 99.90
23018 2020-03-16 08:14:13 Terrasse 7.00 6.36 99.90
23017 2020-03-16 07:45:56 Terrasse 6.50 5.81 99.90
23016 2020-03-16 07:17:43 Terrasse 6.20 5.48 99.90
23015 2020-03-16 06:49:29 Terrasse 6.20 5.48 99.90
23014 2020-03-16 06:21:16 Terrasse 6.30 5.55 98.40
23013 2020-03-16 05:53:05 Terrasse 6.40 5.56 94.30
23012 2020-03-16 05:24:52 Terrasse 6.50 5.64 93.40
23011 2020-03-16 04:56:40 Terrasse 6.70 5.77 89.60
23010 2020-03-16 04:28:29 Terrasse 6.80 5.75 85.00
23009 2020-03-16 04:00:17 Terrasse 7.00 5.85 80.40
23008 2020-03-16 03:32:06 Terrasse 7.10 5.85 76.10
23007 2020-03-16 03:03:55 Terrasse 7.30 6.00 73.50
23006 2020-03-16 02:35:43 Terrasse 7.40 6.00 69.10
23005 2020-03-16 02:07:30 Terrasse 7.60 6.16 66.80
23004 2020-03-16 01:39:17 Terrasse 7.80 6.32 64.60
23003 2020-03-16 01:11:03 Terrasse 8.00 6.52 63.90
23002 2020-03-16 00:42:50 Terrasse 8.20 6.71 62.70
23001 2020-03-16 00:14:37 Terrasse 8.30 6.82 62.70
23000 2020-03-15 23:46:25 Terrasse 8.60 7.11 61.10
22999 2020-03-15 23:18:12 Terrasse 8.80 7.33 61.10
22998 2020-03-15 22:50:00 Terrasse 9.10 7.64 60.30
22997 2020-03-15 22:21:49 Terrasse 9.30 7.86 60.30
22996 2020-03-15 21:53:37 Terrasse 9.60 8.17 59.70
22995 2020-03-15 21:25:25 Terrasse 10.00 8.56 57.80
22994 2020-03-15 20:57:13 Terrasse 10.50 9.09 56.80
22993 2020-03-15 20:29:02 Terrasse 10.90 9.51 56.20
22992 2020-03-15 20:00:51 Terrasse 11.40 10.02 54.70
22991 2020-03-15 19:32:40 Terrasse 12.00 10.63 52.70
22990 2020-03-15 19:04:29 Terrasse 12.60 11.25 51.30
22989 2020-03-15 18:36:19 Terrasse 13.40 12.10 49.80
22988 2020-03-15 18:08:08 Terrasse 14.40 13.09 45.90
22987 2020-03-15 17:39:59 Terrasse 15.40 14.12 43.00
22986 2020-03-15 17:11:51 Terrasse 16.80 15.63 41.80
22985 2020-03-15 16:43:42 Terrasse 18.80 17.76 39.30
22984 2020-03-15 16:15:33 Terrasse 19.40 18.44 39.90
22983 2020-03-15 15:47:18 Terrasse 20.70 19.83 38.30
22982 2020-03-15 15:19:07 Terrasse 21.50 20.67 36.90
22981 2020-03-15 14:50:45 Terrasse 21.90 21.14 38.20
22980 2020-03-15 14:22:42 Terrasse 23.60 23.03 38.80
22979 2020-03-15 13:54:07 Terrasse 22.20 21.53 40.40
22978 2020-03-15 13:26:10 Terrasse 23.80 23.35 42.60
22977 2020-03-15 12:57:41 Terrasse 23.20 22.70 43.10
22976 2020-03-15 12:29:38 Terrasse 21.50 20.97 48.50
22975 2020-03-15 12:00:55 Terrasse 19.50 18.82 50.30
22974 2020-03-15 11:31:55 Terrasse 14.60 13.61 57.10
22973 2020-03-15 11:03:33 Terrasse 11.80 10.67 62.50
22972 2020-03-15 10:35:12 Terrasse 10.80 9.69 67.20
22971 2020-03-15 10:06:49 Terrasse 9.80 8.74 73.00
22970 2020-03-15 09:38:27 Terrasse 8.40 7.43 81.60
22969 2020-03-15 09:10:06 Terrasse 7.30 6.55 94.40
22968 2020-03-15 08:41:46 Terrasse 6.30 5.59 99.90
22967 2020-03-15 08:13:28 Terrasse 5.60 4.82 99.90
22966 2020-03-15 07:45:12 Terrasse 5.10 4.27 99.90
22965 2020-03-15 07:16:56 Terrasse 4.60 3.72 99.90
22964 2020-03-15 06:48:42 Terrasse 4.40 3.50 99.90
22963 2020-03-15 06:20:30 Terrasse 4.40 3.50 99.90
22962 2020-03-15 05:52:17 Terrasse 4.60 3.72 99.90
22961 2020-03-15 05:24:05 Terrasse 4.90 4.05 99.90
22960 2020-03-15 04:55:54 Terrasse 5.10 4.27 99.90
22959 2020-03-15 04:27:41 Terrasse 5.00 4.16 99.90
22958 2020-03-15 03:59:29 Terrasse 5.20 4.38 99.90
22957 2020-03-15 03:31:17 Terrasse 5.50 4.71 99.90
22956 2020-03-15 03:03:04 Terrasse 5.50 4.71 99.90
22955 2020-03-15 02:34:50 Terrasse 5.40 4.60 99.90
22954 2020-03-15 02:06:36 Terrasse 5.40 4.60 99.90
22953 2020-03-15 01:38:23 Terrasse 5.40 4.60 99.90
22952 2020-03-15 01:10:08 Terrasse 5.30 4.49 99.90
22951 2020-03-15 00:41:52 Terrasse 5.10 4.27 99.90
22950 2020-03-15 00:13:39 Terrasse 5.00 4.16 99.90
22949 2020-03-14 23:45:25 Terrasse 5.10 4.27 99.90
22948 2020-03-14 23:17:12 Terrasse 5.30 4.49 99.90
22947 2020-03-14 22:49:00 Terrasse 5.60 4.82 99.90
22946 2020-03-14 22:20:47 Terrasse 5.80 5.04 99.90
22945 2020-03-14 21:52:35 Terrasse 6.00 5.26 99.90
22944 2020-03-14 21:24:24 Terrasse 6.30 5.59 99.90
22943 2020-03-14 20:56:12 Terrasse 6.60 5.92 99.90
22942 2020-03-14 20:27:59 Terrasse 6.80 6.14 99.90
22941 2020-03-14 19:59:46 Terrasse 7.10 6.47 99.90
22940 2020-03-14 19:31:35 Terrasse 7.60 7.02 99.90
22939 2020-03-14 19:03:25 Terrasse 8.00 7.39 97.00
22938 2020-03-14 18:35:14 Terrasse 8.70 8.02 91.60
22937 2020-03-14 18:07:01 Terrasse 9.00 8.55 99.20
22936 2020-03-14 17:38:49 Terrasse 9.40 8.94 97.60
22935 2020-03-14 17:10:38 Terrasse 9.80 9.08 85.80
22934 2020-03-14 16:42:27 Terrasse 10.40 9.28 68.50
22933 2020-03-14 16:14:18 Terrasse 11.40 10.17 60.20
22932 2020-03-14 15:46:12 Terrasse 12.70 11.59 60.00
22931 2020-03-14 15:18:06 Terrasse 14.00 12.83 52.70
22930 2020-03-14 14:50:18 Terrasse 18.10 17.24 48.80
22929 2020-03-14 14:22:14 Terrasse 20.60 20.02 50.10
22928 2020-03-14 13:53:26 Terrasse 17.60 16.80 53.20
22927 2020-03-14 13:25:12 Terrasse 17.50 16.77 56.20
22926 2020-03-14 12:56:51 Terrasse 15.80 14.94 57.80
22925 2020-03-14 12:28:23 Terrasse 13.70 12.82 64.80
22924 2020-03-14 12:00:26 Terrasse 15.30 14.52 62.60
22923 2020-03-14 11:31:30 Terrasse 10.90 10.30 86.30
22922 2020-03-14 11:03:07 Terrasse 9.10 8.67 99.90
22921 2020-03-14 10:34:47 Terrasse 8.00 7.46 99.90
22920 2020-03-14 10:06:28 Terrasse 7.30 6.69 99.90
22919 2020-03-14 09:38:07 Terrasse 6.50 5.81 99.90
22918 2020-03-14 09:09:49 Terrasse 5.90 5.15 99.90
22917 2020-03-14 08:41:43 Terrasse 5.60 4.82 99.90
22916 2020-03-14 08:13:24 Terrasse 5.10 4.27 99.90
22915 2020-03-14 07:45:05 Terrasse 4.40 3.50 99.90
22914 2020-03-14 07:16:51 Terrasse 4.10 3.17 99.90
22913 2020-03-14 06:48:36 Terrasse 4.00 3.06 99.90
22912 2020-03-14 06:20:23 Terrasse 4.10 3.17 99.90
22911 2020-03-14 05:52:10 Terrasse 4.30 3.39 99.90
22910 2020-03-14 05:23:58 Terrasse 4.50 3.61 99.90
22909 2020-03-14 04:55:45 Terrasse 4.70 3.83 99.90
22908 2020-03-14 04:27:32 Terrasse 4.80 3.94 99.90
22907 2020-03-14 03:59:17 Terrasse 4.80 3.94 99.90
22906 2020-03-14 03:31:03 Terrasse 4.70 3.83 99.90
22905 2020-03-14 03:02:50 Terrasse 4.80 3.94 99.90
22904 2020-03-14 02:34:34 Terrasse 4.50 3.61 99.90
22903 2020-03-14 02:06:22 Terrasse 4.70 3.83 99.90
22902 2020-03-14 01:38:10 Terrasse 4.90 4.05 99.90
22901 2020-03-14 01:09:59 Terrasse 5.30 4.49 99.90
22900 2020-03-14 00:41:48 Terrasse 5.40 4.60 99.90
22899 2020-03-14 00:13:36 Terrasse 5.50 4.71 99.90
22898 2020-03-13 23:45:25 Terrasse 5.40 4.60 99.90
22897 2020-03-13 23:17:12 Terrasse 5.50 4.71 99.90
22896 2020-03-13 22:48:59 Terrasse 5.40 4.60 99.90
22895 2020-03-13 22:20:49 Terrasse 5.70 4.93 99.90
22894 2020-03-13 21:52:36 Terrasse 5.80 5.04 99.90
22893 2020-03-13 21:24:27 Terrasse 6.20 5.48 99.90
22892 2020-03-13 20:56:14 Terrasse 6.50 5.81 99.90
22891 2020-03-13 20:28:03 Terrasse 6.80 6.14 99.90
22890 2020-03-13 19:59:52 Terrasse 7.10 6.47 99.90
22889 2020-03-13 19:31:42 Terrasse 7.30 6.69 99.90
22888 2020-03-13 19:03:29 Terrasse 7.40 6.80 99.90
22887 2020-03-13 18:35:16 Terrasse 7.70 7.00 94.80
22886 2020-03-13 18:07:06 Terrasse 8.30 7.48 87.70
22885 2020-03-13 17:38:53 Terrasse 8.60 7.42 73.10
22884 2020-03-13 17:10:41 Terrasse 8.90 7.77 73.70
22883 2020-03-13 16:42:31 Terrasse 9.60 8.46 70.50
22882 2020-03-13 16:14:13 Terrasse 9.70 9.10 90.90
22881 2020-03-13 15:45:58 Terrasse 8.80 8.34 99.90
22880 2020-03-13 15:17:41 Terrasse 8.90 8.45 99.90
22879 2020-03-13 14:49:38 Terrasse 10.20 8.93 63.30
22878 2020-03-13 14:21:40</